Time,TemperatureF,DewpointF,PressureIn,WindDirection,WindDirectionDegrees,WindSpeedMPH,WindSpeedGustMPH,Humidity,HourlyPrecipIn,Conditions,Clouds,dailyrainin,SolarRadiationWatts/m^2,SoftwareType,DateUTC
2013-04-06 00:00:00,40.4,31.5,-100.00,North,-999,-999.0,-999.0,70,-99.99,,,-99.99,1.0,HOBO +U30 +Weather +,2013-04-06 04:00:00,
2013-04-06 00:01:00,40.6,31.7,-100.00,North,-999,-999.0,-999.0,70,-99.99,,,-99.99,1.0,HOBO +U30 +Weather +,2013-04-06 04:01:00,
2013-04-06 00:02:00,40.6,31.6,-100.00,North,-999,-999.0,-999.0,69,-99.99,,,-99.99,1.0,HOBO +U30 +Weather +,2013-04-06 04:02:00,
2013-04-06 00:03:00,40.7,31.6,-100.00,North,-999,-999.0,-999.0,69,-99.99,,,-99.99,1.0,HOBO +U30 +Weather +,2013-04-06 04:03:00,
2013-04-06 00:04:00,40.7,31.5,-100.00,North,-999,-999.0,-999.0,69,-99.99,,,-99.99,1.0,HOBO +U30 +Weather +,2013-04-06 04:04:00,
2013-04-06 00:05:00,40.7,31.5,-100.00,North,-999,-999.0,-999.0,69,-99.99,,,-99.99,1.0,HOBO +U30 +Weather +,2013-04-06 04:05:00,
2013-04-06 00:06:00,40.7,31.5,-100.00,North,-999,-999.0,-999.0,69,-99.99,,,-99.99,1.0,HOBO +U30 +Weather +,2013-04-06 04:06:00,
2013-04-06 00:07:00,40.6,31.5,-100.00,North,-999,-999.0,-999.0,69,-99.99,,,-99.99,1.0,HOBO +U30 +Weather +,2013-04-06 04:07:00,
2013-04-06 00:08:00,40.7,31.5,-100.00,North,-999,-999.0,-999.0,69,-99.99,,,-99.99,1.0,HOBO +U30 +Weather +,2013-04-06 04:08:00,
2013-04-06 00:09:00,40.7,31.4,-100.00,North,-999,-999.0,-999.0,69,-99.99,,,-99.99,1.0,HOBO +U30 +Weather +,2013-04-06 04:09:00,
2013-04-06 00:10:00,40.6,31.4,-100.00,North,-999,-999.0,-999.0,69,-99.99,,,-99.99,1.0,HOBO +U30 +Weather +,2013-04-06 04:10:00,
2013-04-06 00:11:00,40.5,31.4,-100.00,North,-999,-999.0,-999.0,69,-99.99,,,-99.99,1.0,HOBO +U30 +Weather +,2013-04-06 04:11:00,
2013-04-06 00:12:00,40.5,31.3,-100.00,North,-999,-999.0,-999.0,69,-99.99,,,-99.99,1.0,HOBO +U30 +Weather +,2013-04-06 04:12:00,
2013-04-06 00:13:00,40.6,31.3,-100.00,North,-999,-999.0,-999.0,69,-99.99,,,-99.99,1.0,HOBO +U30 +Weather +,2013-04-06 04:13:00,
2013-04-06 00:14:00,40.6,31.3,-100.00,North,-999,-999.0,-999.0,69,-99.99,,,-99.99,1.0,HOBO +U30 +Weather +,2013-04-06 04:14:00,
2013-04-06 00:15:00,40.7,31.4,-100.00,North,-999,-999.0,-999.0,69,-99.99,,,-99.99,1.0,HOBO +U30 +Weather +,2013-04-06 04:15:00,
2013-04-06 00:16:00,40.9,31.4,-100.00,North,-999,-999.0,-999.0,68,-99.99,,,-99.99,1.0,HOBO +U30 +Weather +,2013-04-06 04:16:00,
2013-04-06 00:17:00,41.0,31.4,-100.00,North,-999,-999.0,-999.0,68,-99.99,,,-99.99,1.0,HOBO +U30 +Weather +,2013-04-06 04:17:00,
2013-04-06 00:18:00,41.0,31.4,-100.00,North,-999,-999.0,-999.0,68,-99.99,,,-99.99,1.0,HOBO +U30 +Weather +,2013-04-06 04:18:00,
2013-04-06 00:19:00,40.9,31.4,-100.00,North,-999,-999.0,-999.0,68,-99.99,,,-99.99,1.0,HOBO +U30 +Weather +,2013-04-06 04:19:00,
2013-04-06 00:20:00,40.8,31.3,-100.00,North,-999,-999.0,-999.0,68,-99.99,,,-99.99,1.0,HOBO +U30 +Weather +,2013-04-06 04:20:00,
2013-04-06 00:21:00,40.8,31.3,-100.00,North,-999,-999.0,-999.0,68,-99.99,,,-99.99,1.0,HOBO +U30 +Weather +,2013-04-06 04:21:00,
2013-04-06 00:22:00,40.8,31.2,-100.00,North,-999,-999.0,-999.0,68,-99.99,,,-99.99,1.0,HOBO +U30 +Weather +,2013-04-06 04:22:00,
2013-04-06 00:23:00,40.7,31.2,-100.00,North,-999,-999.0,-999.0,68,-99.99,,,-99.99,1.0,HOBO +U30 +Weather +,2013-04-06 04:23:00,
2013-04-06 00:24:00,40.6,31.2,-100.00,North,-999,-999.0,-999.0,68,-99.99,,,-99.99,1.0,HOBO +U30 +Weather +,2013-04-06 04:24:00,
2013-04-06 00:25:00,40.4,31.1,-100.00,North,-999,-999.0,-999.0,69,-99.99,,,-99.99,1.0,HOBO +U30 +Weather +,2013-04-06 04:25:00,
2013-04-06 00:26:00,40.4,31.1,-100.00,North,-999,-999.0,-999.0,69,-99.99,,,-99.99,1.0,HOBO +U30 +Weather +,2013-04-06 04:26:00,
2013-04-06 00:27:00,40.3,31.0,-100.00,North,-999,-999.0,-999.0,69,-99.99,,,-99.99,1.0,HOBO +U30 +Weather +,2013-04-06 04:27:00,
2013-04-06 00:28:00,40.2,31.0,-100.00,North,-999,-999.0,-999.0,69,-99.99,,,-99.99,1.0,HOBO +U30 +Weather +,2013-04-06 04:28:00,
2013-04-06 00:29:00,40.2,31.0,-100.00,North,-999,-999.0,-999.0,69,-99.99,,,-99.99,1.0,HOBO +U30 +Weather +,2013-04-06 04:29:00,
2013-04-06 00:30:00,40.2,31.0,-100.00,North,-999,-999.0,-999.0,69,-99.99,,,-99.99,1.0,HOBO +U30 +Weather +,2013-04-06 04:30:00,
2013-04-06 00:31:00,40.0,30.9,-100.00,North,-999,-999.0,-999.0,69,-99.99,,,-99.99,1.0,HOBO +U30 +Weather +,2013-04-06 04:31:00,
2013-04-06 00:32:00,39.9,30.8,-100.00,North,-999,-999.0,-999.0,69,-99.99,,,-99.99,1.0,HOBO +U30 +Weather +,2013-04-06 04:32:00,
2013-04-06 00:33:00,39.7,30.8,-100.00,North,-999,-999.0,-999.0,70,-99.99,,,-99.99,1.0,HOBO +U30 +Weather +,2013-04-06 04:33:00,
2013-04-06 00:34:00,39.7,30.7,-100.00,North,-999,-999.0,-999.0,69,-99.99,,,-99.99,1.0,HOBO +U30 +Weather +,2013-04-06 04:34:00,
2013-04-06 00:35:00,39.7,30.6,-100.00,North,-999,-999.0,-999.0,69,-99.99,,,-99.99,1.0,HOBO +U30 +Weather +,2013-04-06 04:35:00,
2013-04-06 00:36:00,39.6,30.6,-100.00,North,-999,-999.0,-999.0,70,-99.99,,,-99.99,1.0,HOBO +U30 +Weather +,2013-04-06 04:36:00,
2013-04-06 00:37:00,39.5,30.5,-100.00,North,-999,-999.0,-999.0,69,-99.99,,,-99.99,1.0,HOBO +U30 +Weather +,2013-04-06 04:37:00,
2013-04-06 00:38:00,39.5,30.5,-100.00,North,-999,-999.0,-999.0,69,-99.99,,,-99.99,1.0,HOBO +U30 +Weather +,2013-04-06 04:38:00,
2013-04-06 00:39:00,39.6,30.6,-100.00,North,-999,-999.0,-999.0,69,-99.99,,,-99.99,1.0,HOBO +U30 +Weather +,2013-04-06 04:39:00,
2013-04-06 00:40:00,39.6,30.5,-100.00,North,-999,-999.0,-999.0,69,-99.99,,,-99.99,1.0,HOBO +U30 +Weather +,2013-04-06 04:40:00,
2013-04-06 00:41:00,39.7,30.5,-100.00,North,-999,-999.0,-999.0,69,-99.99,,,-99.99,1.0,HOBO +U30 +Weather +,2013-04-06 04:41:00,
2013-04-06 00:42:00,39.6,30.5,-100.00,North,-999,-999.0,-999.0,69,-99.99,,,-99.99,1.0,HOBO +U30 +Weather +,2013-04-06 04:42:00,
2013-04-06 00:43:00,39.7,30.4,-100.00,North,-999,-999.0,-999.0,69,-99.99,,,-99.99,1.0,HOBO +U30 +Weather +,2013-04-06 04:43:00,
2013-04-06 00:44:00,39.7,30.5,-100.00,North,-999,-999.0,-999.0,69,-99.99,,,-99.99,1.0,HOBO +U30 +Weather +,2013-04-06 04:44:00,
2013-04-06 00:45:00,39.7,30.5,-100.00,North,-999,-999.0,-999.0,69,-99.99,,,-99.99,1.0,HOBO +U30 +Weather +,2013-04-06 04:45:00,
2013-04-06 00:46:00,39.8,30.5,-100.00,North,-999,-999.0,-999.0,69,-99.99,,,-99.99,1.0,HOBO +U30 +Weather +,2013-04-06 04:46:00,
2013-04-06 00:47:00,39.9,30.5,-100.00,North,-999,-999.0,-999.0,68,-99.99,,,-99.99,1.0,HOBO +U30 +Weather +,2013-04-06 04:47:00,
2013-04-06 00:48:00,39.9,30.6,-100.00,North,-999,-999.0,-999.0,69,-99.99,,,-99.99,1.0,HOBO +U30 +Weather +,2013-04-06 04:48:00,
2013-04-06 00:49:00,40.0,30.6,-100.00,North,-999,-999.0,-999.0,68,-99.99,,,-99.99,1.0,HOBO +U30 +Weather +,2013-04-06 04:49:00,
2013-04-06 00:50:00,39.9,30.6,-100.00,North,-999,-999.0,-999.0,68,-99.99,,,-99.99,1.0,HOBO +U30 +Weather +,2013-04-06 04:50:00,
2013-04-06 00:51:00,39.7,30.5,-100.00,North,-999,-999.0,-999.0,69,-99.99,,,-99.99,1.0,HOBO +U30 +Weather +,2013-04-06 04:51:00,
2013-04-06 00:52:00,39.7,30.5,-100.00,North,-999,-999.0,-999.0,69,-99.99,,,-99.99,1.0,HOBO +U30 +Weather +,2013-04-06 04:52:00,
2013-04-06 00:53:00,39.7,30.4,-100.00,North,-999,-999.0,-999.0,69,-99.99,,,-99.99,1.0,HOBO +U30 +Weather +,2013-04-06 04:53:00,
2013-04-06 00:54:00,39.7,30.4,-100.00,North,-999,-999.0,-999.0,69,-99.99,,,-99.99,1.0,HOBO +U30 +Weather +,2013-04-06 04:54:00,
2013-04-06 00:55:00,39.7,30.4,-100.00,North,-999,-999.0,-999.0,69,-99.99,,,-99.99,1.0,HOBO +U30 +Weather +,2013-04-06 04:55:00,
2013-04-06 00:56:00,39.7,30.3,-100.00,North,-999,-999.0,-999.0,68,-99.99,,,-99.99,1.0,HOBO +U30 +Weather +,2013-04-06 04:56:00,
2013-04-06 00:57:00,39.7,30.4,-100.00,North,-999,-999.0,-999.0,69,-99.99,,,-99.99,1.0,HOBO +U30 +Weather +,2013-04-06 04:57:00,
2013-04-06 00:58:00,39.7,30.4,-100.00,North,-999,-999.0,-999.0,69,-99.99,,,-99.99,1.0,HOBO +U30 +Weather +,2013-04-06 04:58:00,
2013-04-06 00:59:00,39.7,30.3,-100.00,North,-999,-999.0,-999.0,68,-99.99,,,-99.99,1.0,HOBO +U30 +Weather +,2013-04-06 04:59:00,
2013-04-06 01:00:00,39.6,30.3,-100.00,North,-999,-999.0,-999.0,69,-99.99,,,-99.99,1.0,HOBO +U30 +Weather +,2013-04-06 05:00:00,
2013-04-06 01:01:00,39.5,30.3,-100.00,North,-999,-999.0,-999.0,69,-99.99,,,-99.99,1.0,HOBO +U30 +Weather +,2013-04-06 05:01:00,
2013-04-06 01:02:00,39.4,30.2,-100.00,North,-999,-999.0,-999.0,69,-99.99,,,-99.99,1.0,HOBO +U30 +Weather +,2013-04-06 05:02:00,
2013-04-06 01:03:00,39.4,30.2,-100.00,North,-999,-999.0,-999.0,69,-99.99,,,-99.99,1.0,HOBO +U30 +Weather +,2013-04-06 05:03:00,
2013-04-06 01:04:00,39.4,30.2,-100.00,North,-999,-999.0,-999.0,69,-99.99,,,-99.99,1.0,HOBO +U30 +Weather +,2013-04-06 05:04:00,
2013-04-06 01:05:00,39.3,30.2,-100.00,North,-999,-999.0,-999.0,69,-99.99,,,-99.99,1.0,HOBO +U30 +Weather +,2013-04-06 05:05:00,
2013-04-06 01:06:00,39.2,30.2,-100.00,North,-999,-999.0,-999.0,69,-99.99,,,-99.99,1.0,HOBO +U30 +Weather +,2013-04-06 05:06:00,
2013-04-06 01:07:00,39.1,30.0,-100.00,North,-999,-999.0,-999.0,69,-99.99,,,-99.99,1.0,HOBO +U30 +Weather +,2013-04-06 05:07:00,
2013-04-06 01:08:00,38.9,30.0,-100.00,North,-999,-999.0,-999.0,69,-99.99,,,-99.99,1.0,HOBO +U30 +Weather +,2013-04-06 05:08:00,
2013-04-06 01:09:00,38.9,30.0,-100.00,North,-999,-999.0,-999.0,70,-99.99,,,-99.99,1.0,HOBO +U30 +Weather +,2013-04-06 05:09:00,
2013-04-06 01:10:00,38.8,29.9,-100.00,North,-999,-999.0,-999.0,70,-99.99,,,-99.99,1.0,HOBO +U30 +Weather +,2013-04-06 05:10:00,
2013-04-06 01:11:00,38.8,29.9,-100.00,North,-999,-999.0,-999.0,70,-99.99,,,-99.99,1.0,HOBO +U30 +Weather +,2013-04-06 05:11:00,
2013-04-06 01:12:00,38.8,29.9,-100.00,North,-999,-999.0,-999.0,70,-99.99,,,-99.99,1.0,HOBO +U30 +Weather +,2013-04-06 05:12:00,
2013-04-06 01:13:00,38.8,29.9,-100.00,North,-999,-999.0,-999.0,70,-99.99,,,-99.99,1.0,HOBO +U30 +Weather +,2013-04-06 05:13:00,
2013-04-06 01:14:00,38.7,29.8,-100.00,North,-999,-999.0,-999.0,70,-99.99,,,-99.99,1.0,HOBO +U30 +Weather +,2013-04-06 05:14:00,
2013-04-06 01:15:00,38.8,29.9,-100.00,North,-999,-999.0,-999.0,70,-99.99,,,-99.99,1.0,HOBO +U30 +Weather +,2013-04-06 05:15:00,
2013-04-06 01:16:00,38.8,29.9,-100.00,North,-999,-999.0,-999.0,70,-99.99,,,-99.99,1.0,HOBO +U30 +Weather +,2013-04-06 05:16:00,
2013-04-06 01:17:00,38.7,29.8,-100.00,North,-999,-999.0,-999.0,70,-99.99,,,-99.99,1.0,HOBO +U30 +Weather +,2013-04-06 05:17:00,
2013-04-06 01:18:00,38.7,29.8,-100.00,North,-999,-999.0,-999.0,70,-99.99,,,-99.99,1.0,HOBO +U30 +Weather +,2013-04-06 05:18:00,
2013-04-06 01:19:00,38.6,29.7,-100.00,North,-999,-999.0,-999.0,70,-99.99,,,-99.99,1.0,HOBO +U30 +Weather +,2013-04-06 05:19:00,
2013-04-06 01:20:00,38.5,29.7,-100.00,North,-999,-999.0,-999.0,70,-99.99,,,-99.99,1.0,HOBO +U30 +Weather +,2013-04-06 05:20:00,
2013-04-06 01:21:00,38.6,29.7,-100.00,North,-999,-999.0,-999.0,70,-99.99,,,-99.99,1.0,HOBO +U30 +Weather +,2013-04-06 05:21:00,
2013-04-06 01:22:00,38.5,29.8,-100.00,North,-999,-999.0,-999.0,70,-99.99,,,-99.99,1.0,HOBO +U30 +Weather +,2013-04-06 05:22:00,
2013-04-06 01:23:00,38.4,29.6,-100.00,North,-999,-999.0,-999.0,70,-99.99,,,-99.99,1.0,HOBO +U30 +Weather +,2013-04-06 05:23:00,
2013-04-06 01:24:00,38.3,29.6,-100.00,North,-999,-999.0,-999.0,70,-99.99,,,-99.99,1.0,HOBO +U30 +Weather +,2013-04-06 05:24:00,
2013-04-06 01:25:00,38.3,29.6,-100.00,North,-999,-999.0,-999.0,70,-99.99,,,-99.99,1.0,HOBO +U30 +Weather +,2013-04-06 05:25:00,
2013-04-06 01:26:00,38.3,29.6,-100.00,North,-999,-999.0,-999.0,70,-99.99,,,-99.99,1.0,HOBO +U30 +Weather +,2013-04-06 05:26:00,
2013-04-06 01:27:00,38.2,29.6,-100.00,North,-999,-999.0,-999.0,70,-99.99,,,-99.99,1.0,HOBO +U30 +Weather +,2013-04-06 05:27:00,
2013-04-06 01:28:00,38.2,29.6,-100.00,North,-999,-999.0,-999.0,70,-99.99,,,-99.99,1.0,HOBO +U30 +Weather +,2013-04-06 05:28:00,
2013-04-06 01:29:00,38.2,29.5,-100.00,North,-999,-999.0,-999.0,70,-99.99,,,-99.99,1.0,HOBO +U30 +Weather +,2013-04-06 05:29:00,
2013-04-06 01:30:00,38.2,29.6,-100.00,North,-999,-999.0,-999.0,70,-99.99,,,-99.99,1.0,HOBO +U30 +Weather +,2013-04-06 05:30:00,
2013-04-06 01:31:00,38.2,29.6,-100.00,North,-999,-999.0,-999.0,70,-99.99,,,-99.99,1.0,HOBO +U30 +Weather +,2013-04-06 05:31:00,
2013-04-06 01:32:00,38.1,29.5,-100.00,North,-999,-999.0,-999.0,70,-99.99,,,-99.99,1.0,HOBO +U30 +Weather +,2013-04-06 05:32:00,
2013-04-06 01:33:00,38.2,29.6,-100.00,North,-999,-999.0,-999.0,70,-99.99,,,-99.99,1.0,HOBO +U30 +Weather +,2013-04-06 05:33:00,
2013-04-06 01:35:00,38.2,29.6,-100.00,North,-999,-999.0,-999.0,70,-99.99,,,-99.99,1.0,HOBO +U30 +Weather +,2013-04-06 05:35:00,
2013-04-06 01:36:00,38.2,29.5,-100.00,North,-999,-999.0,-999.0,70,-99.99,,,-99.99,1.0,HOBO +U30 +Weather +,2013-04-06 05:36:00,
2013-04-06 01:37:00,38.3,29.5,-100.00,North,-999,-999.0,-999.0,70,-99.99,,,-99.99,1.0,HOBO +U30 +Weather +,2013-04-06 05:37:00,
2013-04-06 01:38:00,38.3,29.4,-100.00,North,-999,-999.0,-999.0,70,-99.99,,,-99.99,1.0,HOBO +U30 +Weather +,2013-04-06 05:38:00,
2013-04-06 01:39:00,38.3,29.4,-100.00,North,-999,-999.0,-999.0,70,-99.99,,,-99.99,1.0,HOBO +U30 +Weather +,2013-04-06 05:39:00,
2013-04-06 01:40:00,38.3,29.3,-100.00,North,-999,-999.0,-999.0,69,-99.99,,,-99.99,1.0,HOBO +U30 +Weather +,2013-04-06 05:40:00,
2013-04-06 01:41:00,38.3,29.3,-100.00,North,-999,-999.0,-999.0,69,-99.99,,,-99.99,1.0,HOBO +U30 +Weather +,2013-04-06 05:41:00,
2013-04-06 01:42:00,38.3,29.3,-100.00,North,-999,-999.0,-999.0,69,-99.99,,,-99.99,1.0,HOBO +U30 +Weather +,2013-04-06 05:42:00,
2013-04-06 01:43:00,38.3,29.3,-100.00,North,-999,-999.0,-999.0,69,-99.99,,,-99.99,1.0,HOBO +U30 +Weather +,2013-04-06 05:43:00,
2013-04-06 01:44:00,38.2,29.2,-100.00,North,-999,-999.0,-999.0,69,-99.99,,,-99.99,1.0,HOBO +U30 +Weather +,2013-04-06 05:44:00,
2013-04-06 01:45:00,38.1,29.2,-100.00,North,-999,-999.0,-999.0,69,-99.99,,,-99.99,1.0,HOBO +U30 +Weather +,2013-04-06 05:45:00,
2013-04-06 01:46:00,38.1,29.1,-100.00,North,-999,-999.0,-999.0,69,-99.99,,,-99.99,1.0,HOBO +U30 +Weather +,2013-04-06 05:46:00,
2013-04-06 01:47:00,38.0,29.1,-100.00,North,-999,-999.0,-999.0,69,-99.99,,,-99.99,1.0,HOBO +U30 +Weather +,2013-04-06 05:47:00,
2013-04-06 01:48:00,37.8,29.0,-100.00,North,-999,-999.0,-999.0,70,-99.99,,,-99.99,1.0,HOBO +U30 +Weather +,2013-04-06 05:48:00,
2013-04-06 01:49:00,37.9,29.0,-100.00,North,-999,-999.0,-999.0,70,-99.99,,,-99.99,1.0,HOBO +U30 +Weather +,2013-04-06 05:49:00,
2013-04-06 01:50:00,37.8,28.9,-100.00,North,-999,-999.0,-999.0,69,-99.99,,,-99.99,1.0,HOBO +U30 +Weather +,2013-04-06 05:50:00,
2013-04-06 01:51:00,37.9,28.9,-100.00,North,-999,-999.0,-999.0,69,-99.99,,,-99.99,1.0,HOBO +U30 +Weather +,2013-04-06 05:51:00,
2013-04-06 01:52:00,37.8,28.9,-100.00,North,-999,-999.0,-999.0,69,-99.99,,,-99.99,1.0,HOBO +U30 +Weather +,2013-04-06 05:52:00,
2013-04-06 01:53:00,37.8,28.9,-100.00,North,-999,-999.0,-999.0,69,-99.99,,,-99.99,1.0,HOBO +U30 +Weather +,2013-04-06 05:53:00,
2013-04-06 01:54:00,37.7,28.8,-100.00,North,-999,-999.0,-999.0,69,-99.99,,,-99.99,1.0,HOBO +U30 +Weather +,2013-04-06 05:54:00,
2013-04-06 01:55:00,37.6,28.7,-100.00,North,-999,-999.0,-999.0,70,-99.99,,,-99.99,1.0,HOBO +U30 +Weather +,2013-04-06 05:55:00,
2013-04-06 01:56:00,37.6,28.7,-100.00,North,-999,-999.0,-999.0,70,-99.99,,,-99.99,1.0,HOBO +U30 +Weather +,2013-04-06 05:56:00,
2013-04-06 01:57:00,37.5,28.7,-100.00,North,-999,-999.0,-999.0,70,-99.99,,,-99.99,1.0,HOBO +U30 +Weather +,2013-04-06 05:57:00,
2013-04-06 01:58:00,37.4,28.6,-100.00,North,-999,-999.0,-999.0,70,-99.99,,,-99.99,1.0,HOBO +U30 +Weather +,2013-04-06 05:58:00,
2013-04-06 01:59:00,37.3,28.5,-100.00,North,-999,-999.0,-999.0,70,-99.99,,,-99.99,1.0,HOBO +U30 +Weather +,2013-04-06 05:59:00,
2013-04-06 02:00:00,37.2,28.5,-100.00,North,-999,-999.0,-999.0,70,-99.99,,,-99.99,1.0,HOBO +U30 +Weather +,2013-04-06 06:00:00,
2013-04-06 02:01:00,37.2,28.5,-100.00,North,-999,-999.0,-999.0,70,-99.99,,,-99.99,1.0,HOBO +U30 +Weather +,2013-04-06 06:01:00,
2013-04-06 02:02:00,37.1,28.4,-100.00,North,-999,-999.0,-999.0,70,-99.99,,,-99.99,1.0,HOBO +U30 +Weather +,2013-04-06 06:02:00,
2013-04-06 02:03:00,37.0,28.4,-100.00,North,-999,-999.0,-999.0,70,-99.99,,,-99.99,1.0,HOBO +U30 +Weather +,2013-04-06 06:03:00,
2013-04-06 02:04:00,36.8,28.3,-100.00,North,-999,-999.0,-999.0,70,-99.99,,,-99.99,1.0,HOBO +U30 +Weather +,2013-04-06 06:04:00,
2013-04-06 02:05:00,36.8,28.3,-100.00,North,-999,-999.0,-999.0,70,-99.99,,,-99.99,1.0,HOBO +U30 +Weather +,2013-04-06 06:05:00,
2013-04-06 02:06:00,36.7,28.2,-100.00,North,-999,-999.0,-999.0,71,-99.99,,,-99.99,1.0,HOBO +U30 +Weather +,2013-04-06 06:06:00,
2013-04-06 02:07:00,36.6,28.2,-100.00,North,-999,-999.0,-999.0,71,-99.99,,,-99.99,1.0,HOBO +U30 +Weather +,2013-04-06 06:07:00,
2013-04-06 02:08:00,36.6,28.1,-100.00,North,-999,-999.0,-999.0,71,-99.99,,,-99.99,1.0,HOBO +U30 +Weather +,2013-04-06 06:08:00,
2013-04-06 02:09:00,36.5,28.1,-100.00,North,-999,-999.0,-999.0,71,-99.99,,,-99.99,1.0,HOBO +U30 +Weather +,2013-04-06 06:09:00,
2013-04-06 02:10:00,36.4,28.1,-100.00,North,-999,-999.0,-999.0,71,-99.99,,,-99.99,1.0,HOBO +U30 +Weather +,2013-04-06 06:10:00,
2013-04-06 02:11:00,36.4,28.1,-100.00,North,-999,-999.0,-999.0,71,-99.99,,,-99.99,1.0,HOBO +U30 +Weather +,2013-04-06 06:11:00,
2013-04-06 02:12:00,36.3,28.0,-100.00,North,-999,-999.0,-999.0,71,-99.99,,,-99.99,1.0,HOBO +U30 +Weather +,2013-04-06 06:12:00,
2013-04-06 02:13:00,36.1,27.8,-100.00,North,-999,-999.0,-999.0,71,-99.99,,,-99.99,1.0,HOBO +U30 +Weather +,2013-04-06 06:13:00,
2013-04-06 02:14:00,35.9,27.8,-100.00,North,-999,-999.0,-999.0,72,-99.99,,,-99.99,1.0,HOBO +U30 +Weather +,2013-04-06 06:14:00,
2013-04-06 02:15:00,35.6,27.6,-100.00,North,-999,-999.0,-999.0,72,-99.99,,,-99.99,1.0,HOBO +U30 +Weather +,2013-04-06 06:15:00,
2013-04-06 02:16:00,35.4,27.5,-100.00,North,-999,-999.0,-999.0,72,-99.99,,,-99.99,1.0,HOBO +U30 +Weather +,2013-04-06 06:16:00,
2013-04-06 02:17:00,35.3,27.6,-100.00,North,-999,-999.0,-999.0,73,-99.99,,,-99.99,1.0,HOBO +U30 +Weather +,2013-04-06 06:17:00,
2013-04-06 02:18:00,35.3,27.6,-100.00,North,-999,-999.0,-999.0,73,-99.99,,,-99.99,1.0,HOBO +U30 +Weather +,2013-04-06 06:18:00,
2013-04-06 02:19:00,35.2,27.6,-100.00,North,-999,-999.0,-999.0,73,-99.99,,,-99.99,1.0,HOBO +U30 +Weather +,2013-04-06 06:19:00,
2013-04-06 02:20:00,35.1,27.5,-100.00,North,-999,-999.0,-999.0,73,-99.99,,,-99.99,1.0,HOBO +U30 +Weather +,2013-04-06 06:20:00,
2013-04-06 02:21:00,35.0,27.4,-100.00,North,-999,-999.0,-999.0,73,-99.99,,,-99.99,1.0,HOBO +U30 +Weather +,2013-04-06 06:21:00,
2013-04-06 02:22:00,34.8,27.3,-100.00,North,-999,-999.0,-999.0,73,-99.99,,,-99.99,1.0,HOBO +U30 +Weather +,2013-04-06 06:22:00,
2013-04-06 02:23:00,34.7,27.4,-100.00,North,-999,-999.0,-999.0,74,-99.99,,,-99.99,1.0,HOBO +U30 +Weather +,2013-04-06 06:23:00,
2013-04-06 02:24:00,34.6,27.2,-100.00,North,-999,-999.0,-999.0,74,-99.99,,,-99.99,1.0,HOBO +U30 +Weather +,2013-04-06 06:24:00,
2013-04-06 02:25:00,34.4,27.1,-100.00,North,-999,-999.0,-999.0,74,-99.99,,,-99.99,1.0,HOBO +U30 +Weather +,2013-04-06 06:25:00,
2013-04-06 02:26:00,34.2,27.2,-100.00,North,-999,-999.0,-999.0,75,-99.99,,,-99.99,1.0,HOBO +U30 +Weather +,2013-04-06 06:26:00,
2013-04-06 02:27:00,34.1,27.1,-100.00,North,-999,-999.0,-999.0,75,-99.99,,,-99.99,1.0,HOBO +U30 +Weather +,2013-04-06 06:27:00,
2013-04-06 02:28:00,33.9,27.0,-100.00,North,-999,-999.0,-999.0,75,-99.99,,,-99.99,1.0,HOBO +U30 +Weather +,2013-04-06 06:28:00,
2013-04-06 02:29:00,33.8,26.9,-100.00,North,-999,-999.0,-999.0,75,-99.99,,,-99.99,1.0,HOBO +U30 +Weather +,2013-04-06 06:29:00,
2013-04-06 02:30:00,33.6,26.8,-100.00,North,-999,-999.0,-999.0,75,-99.99,,,-99.99,1.0,HOBO +U30 +Weather +,2013-04-06 06:30:00,
2013-04-06 02:31:00,33.4,26.6,-100.00,North,-999,-999.0,-999.0,75,-99.99,,,-99.99,1.0,HOBO +U30 +Weather +,2013-04-06 06:31:00,
2013-04-06 02:32:00,33.2,26.5,-100.00,North,-999,-999.0,-999.0,76,-99.99,,,-99.99,1.0,HOBO +U30 +Weather +,2013-04-06 06:32:00,
2013-04-06 02:33:00,33.0,26.5,-100.00,North,-999,-999.0,-999.0,76,-99.99,,,-99.99,1.0,HOBO +U30 +Weather +,2013-04-06 06:33:00,
2013-04-06 02:34:00,32.8,26.4,-100.00,North,-999,-999.0,-999.0,76,-99.99,,,-99.99,1.0,HOBO +U30 +Weather +,2013-04-06 06:34:00,
2013-04-06 02:35:00,32.6,26.3,-100.00,North,-999,-999.0,-999.0,77,-99.99,,,-99.99,1.0,HOBO +U30 +Weather +,2013-04-06 06:35:00,
2013-04-06 02:36:00,32.4,26.1,-100.00,North,-999,-999.0,-999.0,77,-99.99,,,-99.99,1.0,HOBO +U30 +Weather +,2013-04-06 06:36:00,
2013-04-06 02:37:00,32.2,26.0,-100.00,North,-999,-999.0,-999.0,77,-99.99,,,-99.99,1.0,HOBO +U30 +Weather +,2013-04-06 06:37:00,
2013-04-06 02:38:00,32.0,26.0,-100.00,North,-999,-999.0,-999.0,78,-99.99,,,-99.99,1.0,HOBO +U30 +Weather +,2013-04-06 06:38:00,
2013-04-06 02:39:00,31.9,25.9,-100.00,North,-999,-999.0,-999.0,78,-99.99,,,-99.99,1.0,HOBO +U30 +Weather +,2013-04-06 06:39:00,
2013-04-06 02:40:00,31.7,25.8,-100.00,North,-999,-999.0,-999.0,78,-99.99,,,-99.99,1.0,HOBO +U30 +Weather +,2013-04-06 06:40:00,
2013-04-06 02:41:00,31.5,25.7,-100.00,North,-999,-999.0,-999.0,78,-99.99,,,-99.99,1.0,HOBO +U30 +Weather +,2013-04-06 06:41:00,
2013-04-06 02:42:00,31.4,25.7,-100.00,North,-999,-999.0,-999.0,79,-99.99,,,-99.99,1.0,HOBO +U30 +Weather +,2013-04-06 06:42:00,
2013-04-06 02:43:00,31.3,25.6,-100.00,North,-999,-999.0,-999.0,79,-99.99,,,-99.99,1.0,HOBO +U30 +Weather +,2013-04-06 06:43:00,
2013-04-06 02:44:00,31.2,25.6,-100.00,North,-999,-999.0,-999.0,79,-99.99,,,-99.99,1.0,HOBO +U30 +Weather +,2013-04-06 06:44:00,
2013-04-06 02:45:00,31.1,25.5,-100.00,North,-999,-999.0,-999.0,79,-99.99,,,-99.99,1.0,HOBO +U30 +Weather +,2013-04-06 06:45:00,
2013-04-06 02:46:00,31.0,25.5,-100.00,North,-999,-999.0,-999.0,79,-99.99,,,-99.99,1.0,HOBO +U30 +Weather +,2013-04-06 06:46:00,
2013-04-06 02:47:00,30.9,25.5,-100.00,North,-999,-999.0,-999.0,80,-99.99,,,-99.99,1.0,HOBO +U30 +Weather +,2013-04-06 06:47:00,
2013-04-06 02:48:00,30.8,25.5,-100.00,North,-999,-999.0,-999.0,80,-99.99,,,-99.99,1.0,HOBO +U30 +Weather +,2013-04-06 06:48:00,
2013-04-06 02:49:00,30.8,25.8,-100.00,North,-999,-999.0,-999.0,81,-99.99,,,-99.99,1.0,HOBO +U30 +Weather +,2013-04-06 06:49:00,
2013-04-06 02:50:00,31.9,26.8,-100.00,North,-999,-999.0,-999.0,81,-99.99,,,-99.99,1.0,HOBO +U30 +Weather +,2013-04-06 06:50:00,
2013-04-06 02:51:00,32.3,26.9,-100.00,North,-999,-999.0,-999.0,80,-99.99,,,-99.99,1.0,HOBO +U30 +Weather +,2013-04-06 06:51:00,
2013-04-06 02:52:00,32.9,27.2,-100.00,North,-999,-999.0,-999.0,79,-99.99,,,-99.99,1.0,HOBO +U30 +Weather +,2013-04-06 06:52:00,
2013-04-06 02:53:00,33.3,27.4,-100.00,North,-999,-999.0,-999.0,78,-99.99,,,-99.99,1.0,HOBO +U30 +Weather +,2013-04-06 06:53:00,
2013-04-06 02:54:00,33.7,27.6,-100.00,North,-999,-999.0,-999.0,78,-99.99,,,-99.99,1.0,HOBO +U30 +Weather +,2013-04-06 06:54:00,
2013-04-06 02:55:00,34.4,28.0,-100.00,North,-999,-999.0,-999.0,77,-99.99,,,-99.99,1.0,HOBO +U30 +Weather +,2013-04-06 06:55:00,
2013-04-06 02:56:00,35.2,28.2,-100.00,North,-999,-999.0,-999.0,75,-99.99,,,-99.99,1.0,HOBO +U30 +Weather +,2013-04-06 06:56:00,
2013-04-06 02:57:00,35.5,28.3,-100.00,North,-999,-999.0,-999.0,74,-99.99,,,-99.99,1.0,HOBO +U30 +Weather +,2013-04-06 06:57:00,
2013-04-06 02:58:00,35.6,28.3,-100.00,North,-999,-999.0,-999.0,74,-99.99,,,-99.99,1.0,HOBO +U30 +Weather +,2013-04-06 06:58:00,
2013-04-06 02:59:00,35.6,28.2,-100.00,North,-999,-999.0,-999.0,74,-99.99,,,-99.99,1.0,HOBO +U30 +Weather +,2013-04-06 06:59:00,
2013-04-06 03:00:00,35.8,28.3,-100.00,North,-999,-999.0,-999.0,73,-99.99,,,-99.99,1.0,HOBO +U30 +Weather +,2013-04-06 07:00:00,
2013-04-06 03:01:00,35.9,28.3,-100.00,North,-999,-999.0,-999.0,73,-99.99,,,-99.99,1.0,HOBO +U30 +Weather +,2013-04-06 07:01:00,
2013-04-06 03:02:00,35.9,28.3,-100.00,North,-999,-999.0,-999.0,73,-99.99,,,-99.99,1.0,HOBO +U30 +Weather +,2013-04-06 07:02:00,
2013-04-06 03:03:00,35.9,28.2,-100.00,North,-999,-999.0,-999.0,73,-99.99,,,-99.99,1.0,HOBO +U30 +Weather +,2013-04-06 07:03:00,
2013-04-06 03:04:00,35.7,28.1,-100.00,North,-999,-999.0,-999.0,73,-99.99,,,-99.99,1.0,HOBO +U30 +Weather +,2013-04-06 07:04:00,
2013-04-06 03:05:00,35.6,28.0,-100.00,North,-999,-999.0,-999.0,73,-99.99,,,-99.99,1.0,HOBO +U30 +Weather +,2013-04-06 07:05:00,
2013-04-06 03:06:00,35.5,27.9,-100.00,North,-999,-999.0,-999.0,73,-99.99,,,-99.99,1.0,HOBO +U30 +Weather +,2013-04-06 07:06:00,
2013-04-06 03:07:00,35.4,27.8,-100.00,North,-999,-999.0,-999.0,73,-99.99,,,-99.99,1.0,HOBO +U30 +Weather +,2013-04-06 07:07:00,
2013-04-06 03:08:00,35.3,27.8,-100.00,North,-999,-999.0,-999.0,73,-99.99,,,-99.99,1.0,HOBO +U30 +Weather +,2013-04-06 07:08:00,
2013-04-06 03:09:00,35.2,27.7,-100.00,North,-999,-999.0,-999.0,73,-99.99,,,-99.99,1.0,HOBO +U30 +Weather +,2013-04-06 07:09:00,
2013-04-06 03:10:00,35.0,27.6,-100.00,North,-999,-999.0,-999.0,74,-99.99,,,-99.99,1.0,HOBO +U30 +Weather +,2013-04-06 07:10:00,
2013-04-06 03:11:00,34.9,27.6,-100.00,North,-999,-999.0,-999.0,74,-99.99,,,-99.99,1.0,HOBO +U30 +Weather +,2013-04-06 07:11:00,
2013-04-06 03:12:00,35.1,27.7,-100.00,North,-999,-999.0,-999.0,74,-99.99,,,-99.99,1.0,HOBO +U30 +Weather +,2013-04-06 07:12:00,
2013-04-06 03:13:00,35.2,27.7,-100.00,North,-999,-999.0,-999.0,74,-99.99,,,-99.99,1.0,HOBO +U30 +Weather +,2013-04-06 07:13:00,
2013-04-06 03:14:00,35.2,27.7,-100.00,North,-999,-999.0,-999.0,73,-99.99,,,-99.99,1.0,HOBO +U30 +Weather +,2013-04-06 07:14:00,
2013-04-06 03:15:00,35.3,27.7,-100.00,North,-999,-999.0,-999.0,73,-99.99,,,-99.99,1.0,HOBO +U30 +Weather +,2013-04-06 07:15:00,
2013-04-06 03:16:00,35.2,27.6,-100.00,North,-999,-999.0,-999.0,73,-99.99,,,-99.99,1.0,HOBO +U30 +Weather +,2013-04-06 07:16:00,
2013-04-06 03:17:00,35.1,27.6,-100.00,North,-999,-999.0,-999.0,73,-99.99,,,-99.99,1.0,HOBO +U30 +Weather +,2013-04-06 07:17:00,
2013-04-06 03:18:00,34.8,27.3,-100.00,North,-999,-999.0,-999.0,73,-99.99,,,-99.99,1.0,HOBO +U30 +Weather +,2013-04-06 07:18:00,
2013-04-06 03:19:00,34.8,27.4,-100.00,North,-999,-999.0,-999.0,74,-99.99,,,-99.99,1.0,HOBO +U30 +Weather +,2013-04-06 07:19:00,
2013-04-06 03:20:00,34.7,27.4,-100.00,North,-999,-999.0,-999.0,74,-99.99,,,-99.99,1.0,HOBO +U30 +Weather +,2013-04-06 07:20:00,
2013-04-06 03:21:00,34.7,27.4,-100.00,North,-999,-999.0,-999.0,74,-99.99,,,-99.99,1.0,HOBO +U30 +Weather +,2013-04-06 07:21:00,
2013-04-06 03:22:00,34.7,27.3,-100.00,North,-999,-999.0,-999.0,74,-99.99,,,-99.99,1.0,HOBO +U30 +Weather +,2013-04-06 07:22:00,
2013-04-06 03:23:00,34.7,27.4,-100.00,North,-999,-999.0,-999.0,74,-99.99,,,-99.99,1.0,HOBO +U30 +Weather +,2013-04-06 07:23:00,
2013-04-06 03:24:00,34.6,27.2,-100.00,North,-999,-999.0,-999.0,74,-99.99,,,-99.99,1.0,HOBO +U30 +Weather +,2013-04-06 07:24:00,
2013-04-06 03:25:00,34.5,27.3,-100.00,North,-999,-999.0,-999.0,74,-99.99,,,-99.99,1.0,HOBO +U30 +Weather +,2013-04-06 07:25:00,
2013-04-06 03:26:00,34.5,27.2,-100.00,North,-999,-999.0,-999.0,74,-99.99,,,-99.99,1.0,HOBO +U30 +Weather +,2013-04-06 07:26:00,
2013-04-06 03:27:00,34.5,27.2,-100.00,North,-999,-999.0,-999.0,74,-99.99,,,-99.99,1.0,HOBO +U30 +Weather +,2013-04-06 07:27:00,
2013-04-06 03:28:00,34.5,27.2,-100.00,North,-999,-999.0,-999.0,74,-99.99,,,-99.99,1.0,HOBO +U30 +Weather +,2013-04-06 07:28:00,
2013-04-06 03:29:00,34.4,27.1,-100.00,North,-999,-999.0,-999.0,74,-99.99,,,-99.99,1.0,HOBO +U30 +Weather +,2013-04-06 07:29:00,
2013-04-06 03:30:00,34.5,27.1,-100.00,North,-999,-999.0,-999.0,74,-99.99,,,-99.99,1.0,HOBO +U30 +Weather +,2013-04-06 07:30:00,
2013-04-06 03:31:00,34.4,27.1,-100.00,North,-999,-999.0,-999.0,74,-99.99,,,-99.99,1.0,HOBO +U30 +Weather +,2013-04-06 07:31:00,
2013-04-06 03:32:00,34.2,27.0,-100.00,North,-999,-999.0,-999.0,74,-99.99,,,-99.99,1.0,HOBO +U30 +Weather +,2013-04-06 07:32:00,
2013-04-06 03:33:00,34.1,27.0,-100.00,North,-999,-999.0,-999.0,74,-99.99,,,-99.99,1.0,HOBO +U30 +Weather +,2013-04-06 07:33:00,
2013-04-06 03:34:00,34.1,27.1,-100.00,North,-999,-999.0,-999.0,75,-99.99,,,-99.99,1.0,HOBO +U30 +Weather +,2013-04-06 07:34:00,
2013-04-06 03:35:00,34.2,27.0,-100.00,North,-999,-999.0,-999.0,74,-99.99,,,-99.99,1.0,HOBO +U30 +Weather +,2013-04-06 07:35:00,
2013-04-06 03:36:00,34.1,26.9,-100.00,North,-999,-999.0,-999.0,74,-99.99,,,-99.99,1.0,HOBO +U30 +Weather +,2013-04-06 07:36:00,
2013-04-06 03:37:00,34.0,26.8,-100.00,North,-999,-999.0,-999.0,74,-99.99,,,-99.99,1.0,HOBO +U30 +Weather +,2013-04-06 07:37:00,
2013-04-06 03:38:00,33.8,26.7,-100.00,North,-999,-999.0,-999.0,74,-99.99,,,-99.99,1.0,HOBO +U30 +Weather +,2013-04-06 07:38:00,
2013-04-06 03:39:00,33.6,26.7,-100.00,North,-999,-999.0,-999.0,75,-99.99,,,-99.99,1.0,HOBO +U30 +Weather +,2013-04-06 07:39:00,
2013-04-06 03:40:00,33.6,26.7,-100.00,North,-999,-999.0,-999.0,75,-99.99,,,-99.99,1.0,HOBO +U30 +Weather +,2013-04-06 07:40:00,
2013-04-06 03:41:00,33.6,26.7,-100.00,North,-999,-999.0,-999.0,75,-99.99,,,-99.99,1.0,HOBO +U30 +Weather +,2013-04-06 07:41:00,
2013-04-06 03:42:00,34.1,27.0,-100.00,North,-999,-999.0,-999.0,74,-99.99,,,-99.99,1.0,HOBO +U30 +Weather +,2013-04-06 07:42:00,
2013-04-06 03:43:00,34.6,27.0,-100.00,North,-999,-999.0,-999.0,73,-99.99,,,-99.99,1.0,HOBO +U30 +Weather +,2013-04-06 07:43:00,
2013-04-06 03:44:00,34.8,27.1,-100.00,North,-999,-999.0,-999.0,73,-99.99,,,-99.99,1.0,HOBO +U30 +Weather +,2013-04-06 07:44:00,
2013-04-06 03:45:00,34.9,27.1,-100.00,North,-999,-999.0,-999.0,72,-99.99,,,-99.99,1.0,HOBO +U30 +Weather +,2013-04-06 07:45:00,
2013-04-06 03:46:00,34.7,26.9,-100.00,North,-999,-999.0,-999.0,73,-99.99,,,-99.99,1.0,HOBO +U30 +Weather +,2013-04-06 07:46:00,
2013-04-06 03:47:00,34.8,26.9,-100.00,North,-999,-999.0,-999.0,72,-99.99,,,-99.99,1.0,HOBO +U30 +Weather +,2013-04-06 07:47:00,
2013-04-06 03:48:00,34.9,26.9,-100.00,North,-999,-999.0,-999.0,72,-99.99,,,-99.99,1.0,HOBO +U30 +Weather +,2013-04-06 07:48:00,
2013-04-06 03:49:00,35.1,26.9,-100.00,North,-999,-999.0,-999.0,71,-99.99,,,-99.99,1.0,HOBO +U30 +Weather +,2013-04-06 07:49:00,
2013-04-06 03:50:00,35.2,26.9,-100.00,North,-999,-999.0,-999.0,71,-99.99,,,-99.99,1.0,HOBO +U30 +Weather +,2013-04-06 07:50:00,
2013-04-06 03:51:00,35.2,26.8,-100.00,North,-999,-999.0,-999.0,71,-99.99,,,-99.99,1.0,HOBO +U30 +Weather +,2013-04-06 07:51:00,
2013-04-06 03:52:00,35.3,26.8,-100.00,North,-999,-999.0,-999.0,70,-99.99,,,-99.99,1.0,HOBO +U30 +Weather +,2013-04-06 07:52:00,
2013-04-06 03:53:00,35.3,26.8,-100.00,North,-999,-999.0,-999.0,70,-99.99,,,-99.99,1.0,HOBO +U30 +Weather +,2013-04-06 07:53:00,
2013-04-06 03:54:00,35.3,26.7,-100.00,North,-999,-999.0,-999.0,70,-99.99,,,-99.99,1.0,HOBO +U30 +Weather +,2013-04-06 07:54:00,
2013-04-06 03:55:00,35.2,26.6,-100.00,North,-999,-999.0,-999.0,70,-99.99,,,-99.99,1.0,HOBO +U30 +Weather +,2013-04-06 07:55:00,
2013-04-06 03:56:00,35.2,26.5,-100.00,North,-999,-999.0,-999.0,70,-99.99,,,-99.99,1.0,HOBO +U30 +Weather +,2013-04-06 07:56:00,
2013-04-06 03:57:00,35.2,26.5,-100.00,North,-999,-999.0,-999.0,70,-99.99,,,-99.99,1.0,HOBO +U30 +Weather +,2013-04-06 07:57:00,
2013-04-06 03:58:00,35.2,26.4,-100.00,North,-999,-999.0,-999.0,70,-99.99,,,-99.99,1.0,HOBO +U30 +Weather +,2013-04-06 07:58:00,
2013-04-06 03:59:00,35.2,26.3,-100.00,North,-999,-999.0,-999.0,69,-99.99,,,-99.99,1.0,HOBO +U30 +Weather +,2013-04-06 07:59:00,
2013-04-06 04:00:00,35.2,26.3,-100.00,North,-999,-999.0,-999.0,69,-99.99,,,-99.99,1.0,HOBO +U30 +Weather +,2013-04-06 08:00:00,
2013-04-06 04:01:00,35.3,26.3,-100.00,North,-999,-999.0,-999.0,69,-99.99,,,-99.99,1.0,HOBO +U30 +Weather +,2013-04-06 08:01:00,
2013-04-06 04:02:00,35.2,26.2,-100.00,North,-999,-999.0,-999.0,69,-99.99,,,-99.99,1.0,HOBO +U30 +Weather +,2013-04-06 08:02:00,
2013-04-06 04:03:00,35.2,26.2,-100.00,North,-999,-999.0,-999.0,69,-99.99,,,-99.99,1.0,HOBO +U30 +Weather +,2013-04-06 08:03:00,
2013-04-06 04:04:00,35.1,26.1,-100.00,North,-999,-999.0,-999.0,69,-99.99,,,-99.99,1.0,HOBO +U30 +Weather +,2013-04-06 08:04:00,
2013-04-06 04:05:00,35.0,26.0,-100.00,North,-999,-999.0,-999.0,69,-99.99,,,-99.99,1.0,HOBO +U30 +Weather +,2013-04-06 08:05:00,
2013-04-06 04:06:00,35.0,26.0,-100.00,North,-999,-999.0,-999.0,69,-99.99,,,-99.99,1.0,HOBO +U30 +Weather +,2013-04-06 08:06:00,
2013-04-06 04:07:00,35.0,26.0,-100.00,North,-999,-999.0,-999.0,69,-99.99,,,-99.99,1.0,HOBO +U30 +Weather +,2013-04-06 08:07:00,
2013-04-06 04:08:00,34.9,25.9,-100.00,North,-999,-999.0,-999.0,69,-99.99,,,-99.99,1.0,HOBO +U30 +Weather +,2013-04-06 08:08:00,
2013-04-06 04:09:00,35.0,25.9,-100.00,North,-999,-999.0,-999.0,69,-99.99,,,-99.99,1.0,HOBO +U30 +Weather +,2013-04-06 08:09:00,
2013-04-06 04:10:00,35.0,25.8,-100.00,North,-999,-999.0,-999.0,69,-99.99,,,-99.99,1.0,HOBO +U30 +Weather +,2013-04-06 08:10:00,
2013-04-06 04:11:00,35.0,25.8,-100.00,North,-999,-999.0,-999.0,69,-99.99,,,-99.99,1.0,HOBO +U30 +Weather +,2013-04-06 08:11:00,
2013-04-06 04:12:00,34.9,25.8,-100.00,North,-999,-999.0,-999.0,69,-99.99,,,-99.99,1.0,HOBO +U30 +Weather +,2013-04-06 08:12:00,
2013-04-06 04:13:00,34.9,25.8,-100.00,North,-999,-999.0,-999.0,68,-99.99,,,-99.99,1.0,HOBO +U30 +Weather +,2013-04-06 08:13:00,
2013-04-06 04:14:00,35.0,25.7,-100.00,North,-999,-999.0,-999.0,68,-99.99,,,-99.99,1.0,HOBO +U30 +Weather +,2013-04-06 08:14:00,
2013-04-06 04:15:00,34.9,25.7,-100.00,North,-999,-999.0,-999.0,68,-99.99,,,-99.99,1.0,HOBO +U30 +Weather +,2013-04-06 08:15:00,
2013-04-06 04:16:00,34.9,25.7,-100.00,North,-999,-999.0,-999.0,68,-99.99,,,-99.99,1.0,HOBO +U30 +Weather +,2013-04-06 08:16:00,
2013-04-06 04:17:00,34.9,25.6,-100.00,North,-999,-999.0,-999.0,68,-99.99,,,-99.99,1.0,HOBO +U30 +Weather +,2013-04-06 08:17:00,
2013-04-06 04:18:00,34.8,25.6,-100.00,North,-999,-999.0,-999.0,68,-99.99,,,-99.99,1.0,HOBO +U30 +Weather +,2013-04-06 08:18:00,
2013-04-06 04:19:00,34.7,25.6,-100.00,North,-999,-999.0,-999.0,68,-99.99,,,-99.99,1.0,HOBO +U30 +Weather +,2013-04-06 08:19:00,
2013-04-06 04:20:00,34.6,25.5,-100.00,North,-999,-999.0,-999.0,69,-99.99,,,-99.99,1.0,HOBO +U30 +Weather +,2013-04-06 08:20:00,
2013-04-06 04:21:00,34.5,25.4,-100.00,North,-999,-999.0,-999.0,69,-99.99,,,-99.99,1.0,HOBO +U30 +Weather +,2013-04-06 08:21:00,
2013-04-06 04:22:00,34.4,25.4,-100.00,North,-999,-999.0,-999.0,69,-99.99,,,-99.99,1.0,HOBO +U30 +Weather +,2013-04-06 08:22:00,
2013-04-06 04:23:00,34.3,25.4,-100.00,North,-999,-999.0,-999.0,69,-99.99,,,-99.99,1.0,HOBO +U30 +Weather +,2013-04-06 08:23:00,
2013-04-06 04:24:00,34.2,25.3,-100.00,North,-999,-999.0,-999.0,69,-99.99,,,-99.99,1.0,HOBO +U30 +Weather +,2013-04-06 08:24:00,
2013-04-06 04:25:00,34.2,25.3,-100.00,North,-999,-999.0,-999.0,69,-99.99,,,-99.99,1.0,HOBO +U30 +Weather +,2013-04-06 08:25:00,
2013-04-06 04:26:00,34.2,25.2,-100.00,North,-999,-999.0,-999.0,69,-99.99,,,-99.99,1.0,HOBO +U30 +Weather +,2013-04-06 08:26:00,
2013-04-06 04:27:00,34.1,25.2,-100.00,North,-999,-999.0,-999.0,69,-99.99,,,-99.99,1.0,HOBO +U30 +Weather +,2013-04-06 08:27:00,
2013-04-06 04:28:00,34.0,25.2,-100.00,North,-999,-999.0,-999.0,69,-99.99,,,-99.99,1.0,HOBO +U30 +Weather +,2013-04-06 08:28:00,
2013-04-06 04:29:00,34.1,25.2,-100.00,North,-999,-999.0,-999.0,69,-99.99,,,-99.99,1.0,HOBO +U30 +Weather +,2013-04-06 08:29:00,
2013-04-06 04:30:00,34.1,25.2,-100.00,North,-999,-999.0,-999.0,69,-99.99,,,-99.99,1.0,HOBO +U30 +Weather +,2013-04-06 08:30:00,
2013-04-06 04:31:00,34.0,25.1,-100.00,North,-999,-999.0,-999.0,69,-99.99,,,-99.99,1.0,HOBO +U30 +Weather +,2013-04-06 08:31:00,
2013-04-06 04:32:00,34.0,25.1,-100.00,North,-999,-999.0,-999.0,69,-99.99,,,-99.99,1.0,HOBO +U30 +Weather +,2013-04-06 08:32:00,
2013-04-06 04:33:00,34.0,25.1,-100.00,North,-999,-999.0,-999.0,69,-99.99,,,-99.99,1.0,HOBO +U30 +Weather +,2013-04-06 08:33:00,
2013-04-06 04:34:00,34.0,25.1,-100.00,North,-999,-999.0,-999.0,69,-99.99,,,-99.99,1.0,HOBO +U30 +Weather +,2013-04-06 08:34:00,
2013-04-06 04:35:00,34.0,25.0,-100.00,North,-999,-999.0,-999.0,69,-99.99,,,-99.99,1.0,HOBO +U30 +Weather +,2013-04-06 08:35:00,
2013-04-06 04:36:00,34.0,25.0,-100.00,North,-999,-999.0,-999.0,69,-99.99,,,-99.99,1.0,HOBO +U30 +Weather +,2013-04-06 08:36:00,
2013-04-06 04:37:00,33.9,24.9,-100.00,North,-999,-999.0,-999.0,69,-99.99,,,-99.99,1.0,HOBO +U30 +Weather +,2013-04-06 08:37:00,
2013-04-06 04:38:00,33.8,24.9,-100.00,North,-999,-999.0,-999.0,69,-99.99,,,-99.99,1.0,HOBO +U30 +Weather +,2013-04-06 08:38:00,
2013-04-06 04:39:00,33.8,24.9,-100.00,North,-999,-999.0,-999.0,69,-99.99,,,-99.99,1.0,HOBO +U30 +Weather +,2013-04-06 08:39:00,
2013-04-06 04:40:00,33.7,24.8,-100.00,North,-999,-999.0,-999.0,69,-99.99,,,-99.99,1.0,HOBO +U30 +Weather +,2013-04-06 08:40:00,
2013-04-06 04:41:00,33.6,24.7,-100.00,North,-999,-999.0,-999.0,69,-99.99,,,-99.99,1.0,HOBO +U30 +Weather +,2013-04-06 08:41:00,
2013-04-06 04:42:00,33.6,24.7,-100.00,North,-999,-999.0,-999.0,69,-99.99,,,-99.99,1.0,HOBO +U30 +Weather +,2013-04-06 08:42:00,
2013-04-06 04:43:00,33.5,24.7,-100.00,North,-999,-999.0,-999.0,69,-99.99,,,-99.99,1.0,HOBO +U30 +Weather +,2013-04-06 08:43:00,
2013-04-06 04:44:00,33.5,24.7,-100.00,North,-999,-999.0,-999.0,69,-99.99,,,-99.99,1.0,HOBO +U30 +Weather +,2013-04-06 08:44:00,
2013-04-06 04:45:00,33.4,24.7,-100.00,North,-999,-999.0,-999.0,69,-99.99,,,-99.99,1.0,HOBO +U30 +Weather +,2013-04-06 08:45:00,
2013-04-06 04:46:00,33.4,24.6,-100.00,North,-999,-999.0,-999.0,69,-99.99,,,-99.99,1.0,HOBO +U30 +Weather +,2013-04-06 08:46:00,
2013-04-06 04:47:00,33.4,24.6,-100.00,North,-999,-999.0,-999.0,69,-99.99,,,-99.99,1.0,HOBO +U30 +Weather +,2013-04-06 08:47:00,
2013-04-06 04:48:00,33.5,24.6,-100.00,North,-999,-999.0,-999.0,69,-99.99,,,-99.99,1.0,HOBO +U30 +Weather +,2013-04-06 08:48:00,
2013-04-06 04:49:00,33.6,24.6,-100.00,North,-999,-999.0,-999.0,69,-99.99,,,-99.99,1.0,HOBO +U30 +Weather +,2013-04-06 08:49:00,
2013-04-06 04:50:00,33.6,24.6,-100.00,North,-999,-999.0,-999.0,69,-99.99,,,-99.99,1.0,HOBO +U30 +Weather +,2013-04-06 08:50:00,
2013-04-06 04:51:00,33.6,24.5,-100.00,North,-999,-999.0,-999.0,69,-99.99,,,-99.99,1.0,HOBO +U30 +Weather +,2013-04-06 08:51:00,
2013-04-06 04:52:00,33.6,24.4,-100.00,North,-999,-999.0,-999.0,68,-99.99,,,-99.99,1.0,HOBO +U30 +Weather +,2013-04-06 08:52:00,
2013-04-06 04:53:00,33.7,24.3,-100.00,North,-999,-999.0,-999.0,68,-99.99,,,-99.99,1.0,HOBO +U30 +Weather +,2013-04-06 08:53:00,
2013-04-06 04:54:00,33.9,24.2,-100.00,North,-999,-999.0,-999.0,67,-99.99,,,-99.99,1.0,HOBO +U30 +Weather +,2013-04-06 08:54:00,
2013-04-06 04:55:00,33.9,24.1,-100.00,North,-999,-999.0,-999.0,66,-99.99,,,-99.99,1.0,HOBO +U30 +Weather +,2013-04-06 08:55:00,
2013-04-06 04:56:00,34.0,24.1,-100.00,North,-999,-999.0,-999.0,66,-99.99,,,-99.99,1.0,HOBO +U30 +Weather +,2013-04-06 08:56:00,
2013-04-06 04:57:00,34.1,23.9,-100.00,North,-999,-999.0,-999.0,65,-99.99,,,-99.99,1.0,HOBO +U30 +Weather +,2013-04-06 08:57:00,
2013-04-06 04:58:00,34.4,23.8,-100.00,North,-999,-999.0,-999.0,64,-99.99,,,-99.99,1.0,HOBO +U30 +Weather +,2013-04-06 08:58:00,
2013-04-06 04:59:00,34.4,23.7,-100.00,North,-999,-999.0,-999.0,64,-99.99,,,-99.99,1.0,HOBO +U30 +Weather +,2013-04-06 08:59:00,
2013-04-06 05:00:00,34.4,23.7,-100.00,North,-999,-999.0,-999.0,64,-99.99,,,-99.99,1.0,HOBO +U30 +Weather +,2013-04-06 09:00:00,
2013-04-06 05:01:00,34.4,23.7,-100.00,North,-999,-999.0,-999.0,64,-99.99,,,-99.99,1.0,HOBO +U30 +Weather +,2013-04-06 09:01:00,
2013-04-06 05:02:00,34.4,23.5,-100.00,North,-999,-999.0,-999.0,63,-99.99,,,-99.99,1.0,HOBO +U30 +Weather +,2013-04-06 09:02:00,
2013-04-06 05:03:00,34.5,23.5,-100.00,North,-999,-999.0,-999.0,63,-99.99,,,-99.99,1.0,HOBO +U30 +Weather +,2013-04-06 09:03:00,
2013-04-06 05:04:00,34.6,23.5,-100.00,North,-999,-999.0,-999.0,63,-99.99,,,-99.99,1.0,HOBO +U30 +Weather +,2013-04-06 09:04:00,
2013-04-06 05:05:00,34.6,23.4,-100.00,North,-999,-999.0,-999.0,63,-99.99,,,-99.99,1.0,HOBO +U30 +Weather +,2013-04-06 09:05:00,
2013-04-06 05:06:00,34.5,23.3,-100.00,North,-999,-999.0,-999.0,63,-99.99,,,-99.99,1.0,HOBO +U30 +Weather +,2013-04-06 09:06:00,
2013-04-06 05:07:00,34.4,23.2,-100.00,North,-999,-999.0,-999.0,63,-99.99,,,-99.99,1.0,HOBO +U30 +Weather +,2013-04-06 09:07:00,
2013-04-06 05:08:00,34.4,23.1,-100.00,North,-999,-999.0,-999.0,62,-99.99,,,-99.99,1.0,HOBO +U30 +Weather +,2013-04-06 09:08:00,
2013-04-06 05:09:00,34.4,23.0,-100.00,North,-999,-999.0,-999.0,62,-99.99,,,-99.99,1.0,HOBO +U30 +Weather +,2013-04-06 09:09:00,
2013-04-06 05:10:00,34.6,22.9,-100.00,North,-999,-999.0,-999.0,61,-99.99,,,-99.99,1.0,HOBO +U30 +Weather +,2013-04-06 09:10:00,
2013-04-06 05:11:00,34.6,22.7,-100.00,North,-999,-999.0,-999.0,61,-99.99,,,-99.99,1.0,HOBO +U30 +Weather +,2013-04-06 09:11:00,
2013-04-06 05:12:00,34.6,22.5,-100.00,North,-999,-999.0,-999.0,61,-99.99,,,-99.99,1.0,HOBO +U30 +Weather +,2013-04-06 09:12:00,
2013-04-06 05:13:00,34.6,22.5,-100.00,North,-999,-999.0,-999.0,60,-99.99,,,-99.99,1.0,HOBO +U30 +Weather +,2013-04-06 09:13:00,
2013-04-06 05:14:00,34.6,22.4,-100.00,North,-999,-999.0,-999.0,60,-99.99,,,-99.99,1.0,HOBO +U30 +Weather +,2013-04-06 09:14:00,
2013-04-06 05:15:00,34.6,22.4,-100.00,North,-999,-999.0,-999.0,60,-99.99,,,-99.99,1.0,HOBO +U30 +Weather +,2013-04-06 09:15:00,
2013-04-06 05:16:00,34.6,22.3,-100.00,North,-999,-999.0,-999.0,60,-99.99,,,-99.99,1.0,HOBO +U30 +Weather +,2013-04-06 09:16:00,
2013-04-06 05:17:00,34.6,22.2,-100.00,North,-999,-999.0,-999.0,60,-99.99,,,-99.99,1.0,HOBO +U30 +Weather +,2013-04-06 09:17:00,
2013-04-06 05:18:00,34.7,22.2,-100.00,North,-999,-999.0,-999.0,59,-99.99,,,-99.99,1.0,HOBO +U30 +Weather +,2013-04-06 09:18:00,
2013-04-06 05:19:00,34.6,22.0,-100.00,North,-999,-999.0,-999.0,59,-99.99,,,-99.99,1.0,HOBO +U30 +Weather +,2013-04-06 09:19:00,
2013-04-06 05:20:00,34.6,22.0,-100.00,North,-999,-999.0,-999.0,59,-99.99,,,-99.99,1.0,HOBO +U30 +Weather +,2013-04-06 09:20:00,
2013-04-06 05:21:00,34.7,21.9,-100.00,North,-999,-999.0,-999.0,59,-99.99,,,-99.99,1.0,HOBO +U30 +Weather +,2013-04-06 09:21:00,
2013-04-06 05:22:00,34.8,21.9,-100.00,North,-999,-999.0,-999.0,58,-99.99,,,-99.99,1.0,HOBO +U30 +Weather +,2013-04-06 09:22:00,
2013-04-06 05:23:00,34.8,21.9,-100.00,North,-999,-999.0,-999.0,58,-99.99,,,-99.99,1.0,HOBO +U30 +Weather +,2013-04-06 09:23:00,
2013-04-06 05:24:00,34.6,21.9,-100.00,North,-999,-999.0,-999.0,59,-99.99,,,-99.99,1.0,HOBO +U30 +Weather +,2013-04-06 09:24:00,
2013-04-06 05:25:00,34.5,21.8,-100.00,North,-999,-999.0,-999.0,59,-99.99,,,-99.99,1.0,HOBO +U30 +Weather +,2013-04-06 09:25:00,
2013-04-06 05:26:00,34.6,21.8,-100.00,North,-999,-999.0,-999.0,59,-99.99,,,-99.99,1.0,HOBO +U30 +Weather +,2013-04-06 09:26:00,
2013-04-06 05:27:00,34.7,21.8,-100.00,North,-999,-999.0,-999.0,58,-99.99,,,-99.99,1.0,HOBO +U30 +Weather +,2013-04-06 09:27:00,
2013-04-06 05:28:00,34.6,21.8,-100.00,North,-999,-999.0,-999.0,59,-99.99,,,-99.99,1.0,HOBO +U30 +Weather +,2013-04-06 09:28:00,
2013-04-06 05:29:00,34.6,21.7,-100.00,North,-999,-999.0,-999.0,59,-99.99,,,-99.99,1.0,HOBO +U30 +Weather +,2013-04-06 09:29:00,
2013-04-06 05:30:00,34.4,21.7,-100.00,North,-999,-999.0,-999.0,59,-99.99,,,-99.99,1.0,HOBO +U30 +Weather +,2013-04-06 09:30:00,
2013-04-06 05:31:00,34.5,21.7,-100.00,North,-999,-999.0,-999.0,59,-99.99,,,-99.99,1.0,HOBO +U30 +Weather +,2013-04-06 09:31:00,
2013-04-06 05:32:00,34.6,21.7,-100.00,North,-999,-999.0,-999.0,58,-99.99,,,-99.99,1.0,HOBO +U30 +Weather +,2013-04-06 09:32:00,
2013-04-06 05:33:00,34.6,21.7,-100.00,North,-999,-999.0,-999.0,58,-99.99,,,-99.99,1.0,HOBO +U30 +Weather +,2013-04-06 09:33:00,
2013-04-06 05:34:00,34.4,21.6,-100.00,North,-999,-999.0,-999.0,59,-99.99,,,-99.99,1.0,HOBO +U30 +Weather +,2013-04-06 09:34:00,
2013-04-06 05:35:00,34.3,21.7,-100.00,North,-999,-999.0,-999.0,59,-99.99,,,-99.99,1.0,HOBO +U30 +Weather +,2013-04-06 09:35:00,
2013-04-06 05:36:00,34.2,21.6,-100.00,North,-999,-999.0,-999.0,59,-99.99,,,-99.99,1.0,HOBO +U30 +Weather +,2013-04-06 09:36:00,
2013-04-06 05:37:00,34.1,21.5,-100.00,North,-999,-999.0,-999.0,59,-99.99,,,-99.99,1.0,HOBO +U30 +Weather +,2013-04-06 09:37:00,
2013-04-06 05:38:00,34.0,21.5,-100.00,North,-999,-999.0,-999.0,59,-99.99,,,-99.99,1.0,HOBO +U30 +Weather +,2013-04-06 09:38:00,
2013-04-06 05:39:00,34.1,21.5,-100.00,North,-999,-999.0,-999.0,59,-99.99,,,-99.99,1.0,HOBO +U30 +Weather +,2013-04-06 09:39:00,
2013-04-06 05:40:00,34.1,21.5,-100.00,North,-999,-999.0,-999.0,59,-99.99,,,-99.99,1.0,HOBO +U30 +Weather +,2013-04-06 09:40:00,
2013-04-06 05:41:00,34.1,21.4,-100.00,North,-999,-999.0,-999.0,59,-99.99,,,-99.99,1.0,HOBO +U30 +Weather +,2013-04-06 09:41:00,
2013-04-06 05:42:00,34.1,21.4,-100.00,North,-999,-999.0,-999.0,59,-99.99,,,-99.99,2.0,HOBO +U30 +Weather +,2013-04-06 09:42:00,
2013-04-06 05:43:00,34.0,21.5,-100.00,North,-999,-999.0,-999.0,59,-99.99,,,-99.99,2.0,HOBO +U30 +Weather +,2013-04-06 09:43:00,
2013-04-06 05:44:00,33.9,21.4,-100.00,North,-999,-999.0,-999.0,59,-99.99,,,-99.99,2.0,HOBO +U30 +Weather +,2013-04-06 09:44:00,
2013-04-06 05:45:00,33.8,21.3,-100.00,North,-999,-999.0,-999.0,59,-99.99,,,-99.99,2.0,HOBO +U30 +Weather +,2013-04-06 09:45:00,
2013-04-06 05:46:00,33.8,21.3,-100.00,North,-999,-999.0,-999.0,59,-99.99,,,-99.99,3.0,HOBO +U30 +Weather +,2013-04-06 09:46:00,
2013-04-06 05:47:00,33.9,21.3,-100.00,North,-999,-999.0,-999.0,59,-99.99,,,-99.99,3.0,HOBO +U30 +Weather +,2013-04-06 09:47:00,
2013-04-06 05:48:00,33.9,21.3,-100.00,North,-999,-999.0,-999.0,59,-99.99,,,-99.99,3.0,HOBO +U30 +Weather +,2013-04-06 09:48:00,
2013-04-06 05:49:00,34.0,21.3,-100.00,North,-999,-999.0,-999.0,59,-99.99,,,-99.99,4.0,HOBO +U30 +Weather +,2013-04-06 09:49:00,
2013-04-06 05:50:00,34.1,21.2,-100.00,North,-999,-999.0,-999.0,58,-99.99,,,-99.99,4.0,HOBO +U30 +Weather +,2013-04-06 09:50:00,
2013-04-06 05:51:00,34.0,21.3,-100.00,North,-999,-999.0,-999.0,59,-99.99,,,-99.99,4.0,HOBO +U30 +Weather +,2013-04-06 09:51:00,
2013-04-06 05:52:00,33.8,21.2,-100.00,North,-999,-999.0,-999.0,59,-99.99,,,-99.99,6.0,HOBO +U30 +Weather +,2013-04-06 09:52:00,
2013-04-06 05:53:00,33.8,21.2,-100.00,North,-999,-999.0,-999.0,59,-99.99,,,-99.99,6.0,HOBO +U30 +Weather +,2013-04-06 09:53:00,
2013-04-06 05:54:00,33.9,21.3,-100.00,North,-999,-999.0,-999.0,59,-99.99,,,-99.99,7.0,HOBO +U30 +Weather +,2013-04-06 09:54:00,
2013-04-06 05:55:00,33.9,21.3,-100.00,North,-999,-999.0,-999.0,59,-99.99,,,-99.99,7.0,HOBO +U30 +Weather +,2013-04-06 09:55:00,
2013-04-06 05:56:00,33.9,21.3,-100.00,North,-999,-999.0,-999.0,59,-99.99,,,-99.99,8.0,HOBO +U30 +Weather +,2013-04-06 09:56:00,
2013-04-06 05:57:00,33.9,21.3,-100.00,North,-999,-999.0,-999.0,59,-99.99,,,-99.99,8.0,HOBO +U30 +Weather +,2013-04-06 09:57:00,
2013-04-06 05:58:00,33.9,21.3,-100.00,North,-999,-999.0,-999.0,59,-99.99,,,-99.99,9.0,HOBO +U30 +Weather +,2013-04-06 09:58:00,
2013-04-06 05:59:00,33.9,21.4,-100.00,North,-999,-999.0,-999.0,59,-99.99,,,-99.99,9.0,HOBO +U30 +Weather +,2013-04-06 09:59:00,
2013-04-06 06:00:00,33.9,21.4,-100.00,North,-999,-999.0,-999.0,59,-99.99,,,-99.99,11.0,HOBO +U30 +Weather +,2013-04-06 10:00:00,
2013-04-06 06:01:00,34.0,21.3,-100.00,North,-999,-999.0,-999.0,59,-99.99,,,-99.99,11.0,HOBO +U30 +Weather +,2013-04-06 10:01:00,
2013-04-06 06:03:00,34.1,21.4,-100.00,North,-999,-999.0,-999.0,59,-99.99,,,-99.99,12.0,HOBO +U30 +Weather +,2013-04-06 10:03:00,
2013-04-06 06:04:00,34.1,21.3,-100.00,North,-999,-999.0,-999.0,59,-99.99,,,-99.99,12.0,HOBO +U30 +Weather +,2013-04-06 10:04:00,
2013-04-06 06:05:00,34.2,21.4,-100.00,North,-999,-999.0,-999.0,59,-99.99,,,-99.99,13.0,HOBO +U30 +Weather +,2013-04-06 10:05:00,
2013-04-06 06:06:00,34.2,21.4,-100.00,North,-999,-999.0,-999.0,59,-99.99,,,-99.99,13.0,HOBO +U30 +Weather +,2013-04-06 10:06:00,
2013-04-06 06:07:00,34.2,21.4,-100.00,North,-999,-999.0,-999.0,59,-99.99,,,-99.99,14.0,HOBO +U30 +Weather +,2013-04-06 10:07:00,
2013-04-06 06:08:00,34.3,21.4,-100.00,North,-999,-999.0,-999.0,58,-99.99,,,-99.99,14.0,HOBO +U30 +Weather +,2013-04-06 10:08:00,
2013-04-06 06:09:00,34.3,21.4,-100.00,North,-999,-999.0,-999.0,58,-99.99,,,-99.99,16.0,HOBO +U30 +Weather +,2013-04-06 10:09:00,
2013-04-06 06:10:00,34.3,21.5,-100.00,North,-999,-999.0,-999.0,59,-99.99,,,-99.99,17.0,HOBO +U30 +Weather +,2013-04-06 10:10:00,
2013-04-06 06:11:00,34.3,21.5,-100.00,North,-999,-999.0,-999.0,59,-99.99,,,-99.99,17.0,HOBO +U30 +Weather +,2013-04-06 10:11:00,
2013-04-06 06:12:00,34.3,21.5,-100.00,North,-999,-999.0,-999.0,59,-99.99,,,-99.99,17.0,HOBO +U30 +Weather +,2013-04-06 10:12:00,
2013-04-06 06:13:00,34.4,21.6,-100.00,North,-999,-999.0,-999.0,59,-99.99,,,-99.99,18.0,HOBO +U30 +Weather +,2013-04-06 10:13:00,
2013-04-06 06:14:00,34.5,21.8,-100.00,North,-999,-999.0,-999.0,59,-99.99,,,-99.99,18.0,HOBO +U30 +Weather +,2013-04-06 10:14:00,
2013-04-06 06:15:00,34.5,21.7,-100.00,North,-999,-999.0,-999.0,59,-99.99,,,-99.99,19.0,HOBO +U30 +Weather +,2013-04-06 10:15:00,
2013-04-06 06:16:00,34.6,21.8,-100.00,North,-999,-999.0,-999.0,59,-99.99,,,-99.99,19.0,HOBO +U30 +Weather +,2013-04-06 10:16:00,
2013-04-06 06:17:00,34.6,21.8,-100.00,North,-999,-999.0,-999.0,59,-99.99,,,-99.99,21.0,HOBO +U30 +Weather +,2013-04-06 10:17:00,
2013-04-06 06:18:00,34.6,21.8,-100.00,North,-999,-999.0,-999.0,59,-99.99,,,-99.99,21.0,HOBO +U30 +Weather +,2013-04-06 10:18:00,
2013-04-06 06:19:00,34.6,21.8,-100.00,North,-999,-999.0,-999.0,59,-99.99,,,-99.99,21.0,HOBO +U30 +Weather +,2013-04-06 10:19:00,
2013-04-06 06:20:00,34.6,21.8,-100.00,North,-999,-999.0,-999.0,59,-99.99,,,-99.99,22.0,HOBO +U30 +Weather +,2013-04-06 10:20:00,
2013-04-06 06:21:00,34.6,21.8,-100.00,North,-999,-999.0,-999.0,59,-99.99,,,-99.99,22.0,HOBO +U30 +Weather +,2013-04-06 10:21:00,
2013-04-06 06:22:00,34.6,21.9,-100.00,North,-999,-999.0,-999.0,59,-99.99,,,-99.99,23.0,HOBO +U30 +Weather +,2013-04-06 10:22:00,
2013-04-06 06:23:00,34.6,21.8,-100.00,North,-999,-999.0,-999.0,59,-99.99,,,-99.99,23.0,HOBO +U30 +Weather +,2013-04-06 10:23:00,
2013-04-06 06:24:00,34.6,21.8,-100.00,North,-999,-999.0,-999.0,59,-99.99,,,-99.99,23.0,HOBO +U30 +Weather +,2013-04-06 10:24:00,
2013-04-06 06:25:00,34.6,21.9,-100.00,North,-999,-999.0,-999.0,59,-99.99,,,-99.99,24.0,HOBO +U30 +Weather +,2013-04-06 10:25:00,
2013-04-06 06:26:00,34.6,21.8,-100.00,North,-999,-999.0,-999.0,59,-99.99,,,-99.99,24.0,HOBO +U30 +Weather +,2013-04-06 10:26:00,
2013-04-06 06:27:00,34.6,21.8,-100.00,North,-999,-999.0,-999.0,59,-99.99,,,-99.99,24.0,HOBO +U30 +Weather +,2013-04-06 10:27:00,
2013-04-06 06:28:00,34.7,21.6,-100.00,North,-999,-999.0,-999.0,58,-99.99,,,-99.99,26.0,HOBO +U30 +Weather +,2013-04-06 10:28:00,
2013-04-06 06:29:00,34.7,21.6,-100.00,North,-999,-999.0,-999.0,58,-99.99,,,-99.99,26.0,HOBO +U30 +Weather +,2013-04-06 10:29:00,
2013-04-06 06:30:00,34.8,21.7,-100.00,North,-999,-999.0,-999.0,58,-99.99,,,-99.99,27.0,HOBO +U30 +Weather +,2013-04-06 10:30:00,
2013-04-06 06:31:00,34.8,21.4,-100.00,North,-999,-999.0,-999.0,57,-99.99,,,-99.99,27.0,HOBO +U30 +Weather +,2013-04-06 10:31:00,
2013-04-06 06:32:00,34.9,21.4,-100.00,North,-999,-999.0,-999.0,57,-99.99,,,-99.99,28.0,HOBO +U30 +Weather +,2013-04-06 10:32:00,
2013-04-06 06:33:00,34.9,21.5,-100.00,North,-999,-999.0,-999.0,57,-99.99,,,-99.99,28.0,HOBO +U30 +Weather +,2013-04-06 10:33:00,
2013-04-06 06:34:00,35.0,21.6,-100.00,North,-999,-999.0,-999.0,57,-99.99,,,-99.99,28.0,HOBO +U30 +Weather +,2013-04-06 10:34:00,
2013-04-06 06:35:00,35.0,21.4,-100.00,North,-999,-999.0,-999.0,57,-99.99,,,-99.99,29.0,HOBO +U30 +Weather +,2013-04-06 10:35:00,
2013-04-06 06:36:00,35.0,21.3,-100.00,North,-999,-999.0,-999.0,57,-99.99,,,-99.99,31.0,HOBO +U30 +Weather +,2013-04-06 10:36:00,
2013-04-06 06:37:00,35.0,21.3,-100.00,North,-999,-999.0,-999.0,56,-99.99,,,-99.99,31.0,HOBO +U30 +Weather +,2013-04-06 10:37:00,
2013-04-06 06:38:00,35.0,21.3,-100.00,North,-999,-999.0,-999.0,57,-99.99,,,-99.99,31.0,HOBO +U30 +Weather +,2013-04-06 10:38:00,
2013-04-06 06:39:00,35.1,21.4,-100.00,North,-999,-999.0,-999.0,57,-99.99,,,-99.99,31.0,HOBO +U30 +Weather +,2013-04-06 10:39:00,
2013-04-06 06:40:00,35.2,21.5,-100.00,North,-999,-999.0,-999.0,57,-99.99,,,-99.99,31.0,HOBO +U30 +Weather +,2013-04-06 10:40:00,
2013-04-06 06:41:00,35.2,21.5,-100.00,North,-999,-999.0,-999.0,56,-99.99,,,-99.99,31.0,HOBO +U30 +Weather +,2013-04-06 10:41:00,
2013-04-06 06:42:00,35.2,21.5,-100.00,North,-999,-999.0,-999.0,56,-99.99,,,-99.99,32.0,HOBO +U30 +Weather +,2013-04-06 10:42:00,
2013-04-06 06:43:00,35.2,21.5,-100.00,North,-999,-999.0,-999.0,56,-99.99,,,-99.99,32.0,HOBO +U30 +Weather +,2013-04-06 10:43:00,
2013-04-06 06:44:00,35.3,21.6,-100.00,North,-999,-999.0,-999.0,56,-99.99,,,-99.99,32.0,HOBO +U30 +Weather +,2013-04-06 10:44:00,
2013-04-06 06:45:00,35.3,21.6,-100.00,North,-999,-999.0,-999.0,56,-99.99,,,-99.99,32.0,HOBO +U30 +Weather +,2013-04-06 10:45:00,
2013-04-06 06:46:00,35.4,21.5,-100.00,North,-999,-999.0,-999.0,56,-99.99,,,-99.99,33.0,HOBO +U30 +Weather +,2013-04-06 10:46:00,
2013-04-06 06:47:00,35.4,21.7,-100.00,North,-999,-999.0,-999.0,57,-99.99,,,-99.99,33.0,HOBO +U30 +Weather +,2013-04-06 10:47:00,
2013-04-06 06:48:00,35.4,21.4,-100.00,North,-999,-999.0,-999.0,56,-99.99,,,-99.99,34.0,HOBO +U30 +Weather +,2013-04-06 10:48:00,
2013-04-06 06:49:00,35.4,21.2,-100.00,North,-999,-999.0,-999.0,55,-99.99,,,-99.99,34.0,HOBO +U30 +Weather +,2013-04-06 10:49:00,
2013-04-06 06:50:00,35.4,21.2,-100.00,North,-999,-999.0,-999.0,55,-99.99,,,-99.99,36.0,HOBO +U30 +Weather +,2013-04-06 10:50:00,
2013-04-06 06:51:00,35.4,21.1,-100.00,North,-999,-999.0,-999.0,55,-99.99,,,-99.99,36.0,HOBO +U30 +Weather +,2013-04-06 10:51:00,
2013-04-06 06:52:00,35.5,21.1,-100.00,North,-999,-999.0,-999.0,55,-99.99,,,-99.99,36.0,HOBO +U30 +Weather +,2013-04-06 10:52:00,
2013-04-06 06:53:00,35.5,21.1,-100.00,North,-999,-999.0,-999.0,55,-99.99,,,-99.99,37.0,HOBO +U30 +Weather +,2013-04-06 10:53:00,
2013-04-06 06:54:00,35.6,21.2,-100.00,North,-999,-999.0,-999.0,55,-99.99,,,-99.99,43.0,HOBO +U30 +Weather +,2013-04-06 10:54:00,
2013-04-06 06:55:00,35.6,21.2,-100.00,North,-999,-999.0,-999.0,55,-99.99,,,-99.99,53.0,HOBO +U30 +Weather +,2013-04-06 10:55:00,
2013-04-06 06:56:00,35.7,21.2,-100.00,North,-999,-999.0,-999.0,55,-99.99,,,-99.99,76.0,HOBO +U30 +Weather +,2013-04-06 10:56:00,
2013-04-06 06:57:00,35.8,21.2,-100.00,North,-999,-999.0,-999.0,55,-99.99,,,-99.99,114.0,HOBO +U30 +Weather +,2013-04-06 10:57:00,
2013-04-06 06:58:00,35.9,21.2,-100.00,North,-999,-999.0,-999.0,54,-99.99,,,-99.99,134.0,HOBO +U30 +Weather +,2013-04-06 10:58:00,
2013-04-06 06:59:00,35.9,21.2,-100.00,North,-999,-999.0,-999.0,54,-99.99,,,-99.99,143.0,HOBO +U30 +Weather +,2013-04-06 10:59:00,
2013-04-06 07:00:00,35.9,21.1,-100.00,North,-999,-999.0,-999.0,54,-99.99,,,-99.99,158.0,HOBO +U30 +Weather +,2013-04-06 11:00:00,
2013-04-06 07:02:00,36.1,21.3,-100.00,North,-999,-999.0,-999.0,54,-99.99,,,-99.99,162.0,HOBO +U30 +Weather +,2013-04-06 11:02:00,
2013-04-06 07:03:00,36.2,21.5,-100.00,North,-999,-999.0,-999.0,54,-99.99,,,-99.99,161.0,HOBO +U30 +Weather +,2013-04-06 11:03:00,
2013-04-06 07:04:00,36.4,21.6,-100.00,North,-999,-999.0,-999.0,54,-99.99,,,-99.99,159.0,HOBO +U30 +Weather +,2013-04-06 11:04:00,
2013-04-06 07:05:00,36.4,21.2,-100.00,North,-999,-999.0,-999.0,53,-99.99,,,-99.99,157.0,HOBO +U30 +Weather +,2013-04-06 11:05:00,
2013-04-06 07:06:00,36.3,21.1,-100.00,North,-999,-999.0,-999.0,53,-99.99,,,-99.99,158.0,HOBO +U30 +Weather +,2013-04-06 11:06:00,
2013-04-06 07:07:00,36.2,21.0,-100.00,North,-999,-999.0,-999.0,53,-99.99,,,-99.99,132.0,HOBO +U30 +Weather +,2013-04-06 11:07:00,
2013-04-06 07:08:00,36.3,21.2,-100.00,North,-999,-999.0,-999.0,53,-99.99,,,-99.99,88.0,HOBO +U30 +Weather +,2013-04-06 11:08:00,
2013-04-06 07:09:00,36.3,21.2,-100.00,North,-999,-999.0,-999.0,53,-99.99,,,-99.99,51.0,HOBO +U30 +Weather +,2013-04-06 11:09:00,
2013-04-06 07:10:00,36.3,21.1,-100.00,North,-999,-999.0,-999.0,53,-99.99,,,-99.99,46.0,HOBO +U30 +Weather +,2013-04-06 11:10:00,
2013-04-06 07:11:00,36.2,21.1,-100.00,North,-999,-999.0,-999.0,53,-99.99,,,-99.99,73.0,HOBO +U30 +Weather +,2013-04-06 11:11:00,
2013-04-06 07:12:00,36.0,21.1,-100.00,North,-999,-999.0,-999.0,54,-99.99,,,-99.99,108.0,HOBO +U30 +Weather +,2013-04-06 11:12:00,
2013-04-06 07:13:00,36.0,21.0,-100.00,North,-999,-999.0,-999.0,54,-99.99,,,-99.99,149.0,HOBO +U30 +Weather +,2013-04-06 11:13:00,
2013-04-06 07:14:00,36.0,20.9,-100.00,North,-999,-999.0,-999.0,53,-99.99,,,-99.99,174.0,HOBO +U30 +Weather +,2013-04-06 11:14:00,
2013-04-06 07:15:00,36.0,20.8,-100.00,North,-999,-999.0,-999.0,53,-99.99,,,-99.99,178.0,HOBO +U30 +Weather +,2013-04-06 11:15:00,
2013-04-06 07:16:00,36.0,21.0,-100.00,North,-999,-999.0,-999.0,54,-99.99,,,-99.99,181.0,HOBO +U30 +Weather +,2013-04-06 11:16:00,
2013-04-06 07:17:00,36.1,20.9,-100.00,North,-999,-999.0,-999.0,53,-99.99,,,-99.99,183.0,HOBO +U30 +Weather +,2013-04-06 11:17:00,
2013-04-06 07:18:00,36.3,21.1,-100.00,North,-999,-999.0,-999.0,53,-99.99,,,-99.99,186.0,HOBO +U30 +Weather +,2013-04-06 11:18:00,
2013-04-06 07:19:00,36.5,21.2,-100.00,North,-999,-999.0,-999.0,53,-99.99,,,-99.99,189.0,HOBO +U30 +Weather +,2013-04-06 11:19:00,
2013-04-06 07:20:00,36.6,21.6,-100.00,North,-999,-999.0,-999.0,54,-99.99,,,-99.99,187.0,HOBO +U30 +Weather +,2013-04-06 11:20:00,
2013-04-06 07:21:00,36.4,20.8,-100.00,North,-999,-999.0,-999.0,52,-99.99,,,-99.99,144.0,HOBO +U30 +Weather +,2013-04-06 11:21:00,
2013-04-06 07:22:00,36.4,20.7,-100.00,North,-999,-999.0,-999.0,52,-99.99,,,-99.99,82.0,HOBO +U30 +Weather +,2013-04-06 11:22:00,
2013-04-06 07:23:00,36.4,20.8,-100.00,North,-999,-999.0,-999.0,52,-99.99,,,-99.99,106.0,HOBO +U30 +Weather +,2013-04-06 11:23:00,
2013-04-06 07:24:00,36.4,20.8,-100.00,North,-999,-999.0,-999.0,52,-99.99,,,-99.99,181.0,HOBO +U30 +Weather +,2013-04-06 11:24:00,
2013-04-06 07:25:00,36.5,21.0,-100.00,North,-999,-999.0,-999.0,53,-99.99,,,-99.99,202.0,HOBO +U30 +Weather +,2013-04-06 11:25:00,
2013-04-06 07:26:00,36.6,21.1,-100.00,North,-999,-999.0,-999.0,53,-99.99,,,-99.99,202.0,HOBO +U30 +Weather +,2013-04-06 11:26:00,
2013-04-06 07:27:00,36.6,20.8,-100.00,North,-999,-999.0,-999.0,52,-99.99,,,-99.99,184.0,HOBO +U30 +Weather +,2013-04-06 11:27:00,
2013-04-06 07:28:00,36.5,20.7,-100.00,North,-999,-999.0,-999.0,52,-99.99,,,-99.99,146.0,HOBO +U30 +Weather +,2013-04-06 11:28:00,
2013-04-06 07:29:00,36.4,20.6,-100.00,North,-999,-999.0,-999.0,52,-99.99,,,-99.99,147.0,HOBO +U30 +Weather +,2013-04-06 11:29:00,
2013-04-06 07:30:00,36.1,20.4,-100.00,North,-999,-999.0,-999.0,52,-99.99,,,-99.99,183.0,HOBO +U30 +Weather +,2013-04-06 11:30:00,
2013-04-06 07:31:00,36.2,20.8,-100.00,North,-999,-999.0,-999.0,53,-99.99,,,-99.99,208.0,HOBO +U30 +Weather +,2013-04-06 11:31:00,
2013-04-06 07:32:00,36.4,21.0,-100.00,North,-999,-999.0,-999.0,53,-99.99,,,-99.99,234.0,HOBO +U30 +Weather +,2013-04-06 11:32:00,
2013-04-06 07:33:00,36.5,20.9,-100.00,North,-999,-999.0,-999.0,52,-99.99,,,-99.99,237.0,HOBO +U30 +Weather +,2013-04-06 11:33:00,
2013-04-06 07:34:00,36.6,20.8,-100.00,North,-999,-999.0,-999.0,52,-99.99,,,-99.99,237.0,HOBO +U30 +Weather +,2013-04-06 11:34:00,
2013-04-06 07:35:00,36.6,20.7,-100.00,North,-999,-999.0,-999.0,51,-99.99,,,-99.99,239.0,HOBO +U30 +Weather +,2013-04-06 11:35:00,
2013-04-06 07:36:00,36.8,20.8,-100.00,North,-999,-999.0,-999.0,51,-99.99,,,-99.99,244.0,HOBO +U30 +Weather +,2013-04-06 11:36:00,
2013-04-06 07:37:00,36.8,20.8,-100.00,North,-999,-999.0,-999.0,51,-99.99,,,-99.99,248.0,HOBO +U30 +Weather +,2013-04-06 11:37:00,
2013-04-06 07:38:00,36.9,20.9,-100.00,North,-999,-999.0,-999.0,51,-99.99,,,-99.99,248.0,HOBO +U30 +Weather +,2013-04-06 11:38:00,
2013-04-06 07:39:00,37.1,21.0,-100.00,North,-999,-999.0,-999.0,51,-99.99,,,-99.99,253.0,HOBO +U30 +Weather +,2013-04-06 11:39:00,
2013-04-06 07:40:00,36.9,20.8,-100.00,North,-999,-999.0,-999.0,51,-99.99,,,-99.99,257.0,HOBO +U30 +Weather +,2013-04-06 11:40:00,
2013-04-06 07:41:00,36.8,20.7,-100.00,North,-999,-999.0,-999.0,51,-99.99,,,-99.99,261.0,HOBO +U30 +Weather +,2013-04-06 11:41:00,
2013-04-06 07:42:00,37.0,21.0,-100.00,North,-999,-999.0,-999.0,52,-99.99,,,-99.99,262.0,HOBO +U30 +Weather +,2013-04-06 11:42:00,
2013-04-06 07:43:00,36.9,20.6,-100.00,North,-999,-999.0,-999.0,51,-99.99,,,-99.99,266.0,HOBO +U30 +Weather +,2013-04-06 11:43:00,
2013-04-06 07:44:00,37.0,20.8,-100.00,North,-999,-999.0,-999.0,51,-99.99,,,-99.99,267.0,HOBO +U30 +Weather +,2013-04-06 11:44:00,
2013-04-06 07:45:00,37.0,20.8,-100.00,North,-999,-999.0,-999.0,51,-99.99,,,-99.99,272.0,HOBO +U30 +Weather +,2013-04-06 11:45:00,
2013-04-06 07:46:00,36.8,20.5,-100.00,North,-999,-999.0,-999.0,51,-99.99,,,-99.99,278.0,HOBO +U30 +Weather +,2013-04-06 11:46:00,
2013-04-06 07:47:00,37.1,20.9,-100.00,North,-999,-999.0,-999.0,51,-99.99,,,-99.99,281.0,HOBO +U30 +Weather +,2013-04-06 11:47:00,
2013-04-06 07:48:00,37.3,21.0,-100.00,North,-999,-999.0,-999.0,51,-99.99,,,-99.99,282.0,HOBO +U30 +Weather +,2013-04-06 11:48:00,
2013-04-06 07:49:00,37.4,21.1,-100.00,North,-999,-999.0,-999.0,51,-99.99,,,-99.99,286.0,HOBO +U30 +Weather +,2013-04-06 11:49:00,
2013-04-06 07:50:00,37.4,21.1,-100.00,North,-999,-999.0,-999.0,51,-99.99,,,-99.99,257.0,HOBO +U30 +Weather +,2013-04-06 11:50:00,
2013-04-06 07:51:00,37.2,20.7,-100.00,North,-999,-999.0,-999.0,50,-99.99,,,-99.99,296.0,HOBO +U30 +Weather +,2013-04-06 11:51:00,
2013-04-06 07:52:00,37.2,20.8,-100.00,North,-999,-999.0,-999.0,51,-99.99,,,-99.99,298.0,HOBO +U30 +Weather +,2013-04-06 11:52:00,
2013-04-06 07:53:00,37.3,20.9,-100.00,North,-999,-999.0,-999.0,51,-99.99,,,-99.99,299.0,HOBO +U30 +Weather +,2013-04-06 11:53:00,
2013-04-06 07:54:00,37.3,20.7,-100.00,North,-999,-999.0,-999.0,50,-99.99,,,-99.99,309.0,HOBO +U30 +Weather +,2013-04-06 11:54:00,
2013-04-06 07:55:00,37.2,20.6,-100.00,North,-999,-999.0,-999.0,50,-99.99,,,-99.99,316.0,HOBO +U30 +Weather +,2013-04-06 11:55:00,
2013-04-06 07:56:00,36.9,20.1,-100.00,North,-999,-999.0,-999.0,50,-99.99,,,-99.99,324.0,HOBO +U30 +Weather +,2013-04-06 11:56:00,
2013-04-06 07:57:00,37.1,20.9,-100.00,North,-999,-999.0,-999.0,51,-99.99,,,-99.99,322.0,HOBO +U30 +Weather +,2013-04-06 11:57:00,
2013-04-06 07:58:00,37.3,20.6,-100.00,North,-999,-999.0,-999.0,50,-99.99,,,-99.99,319.0,HOBO +U30 +Weather +,2013-04-06 11:58:00,
2013-04-06 07:59:00,37.4,20.6,-100.00,North,-999,-999.0,-999.0,50,-99.99,,,-99.99,322.0,HOBO +U30 +Weather +,2013-04-06 11:59:00,
2013-04-06 08:00:00,37.4,20.5,-100.00,North,-999,-999.0,-999.0,50,-99.99,,,-99.99,329.0,HOBO +U30 +Weather +,2013-04-06 12:00:00,
2013-04-06 08:01:00,37.6,20.9,-100.00,North,-999,-999.0,-999.0,50,-99.99,,,-99.99,336.0,HOBO +U30 +Weather +,2013-04-06 12:01:00,
2013-04-06 08:02:00,37.8,21.0,-100.00,North,-999,-999.0,-999.0,50,-99.99,,,-99.99,341.0,HOBO +U30 +Weather +,2013-04-06 12:02:00,
2013-04-06 08:03:00,37.7,20.5,-100.00,North,-999,-999.0,-999.0,49,-99.99,,,-99.99,342.0,HOBO +U30 +Weather +,2013-04-06 12:03:00,
2013-04-06 08:04:00,37.7,20.6,-100.00,North,-999,-999.0,-999.0,49,-99.99,,,-99.99,348.0,HOBO +U30 +Weather +,2013-04-06 12:04:00,
2013-04-06 08:05:00,37.6,20.5,-100.00,North,-999,-999.0,-999.0,49,-99.99,,,-99.99,361.0,HOBO +U30 +Weather +,2013-04-06 12:05:00,
2013-04-06 08:06:00,37.8,20.8,-100.00,North,-999,-999.0,-999.0,49,-99.99,,,-99.99,306.0,HOBO +U30 +Weather +,2013-04-06 12:06:00,
2013-04-06 08:07:00,38.0,21.1,-100.00,North,-999,-999.0,-999.0,50,-99.99,,,-99.99,383.0,HOBO +U30 +Weather +,2013-04-06 12:07:00,
2013-04-06 08:08:00,38.2,20.8,-100.00,North,-999,-999.0,-999.0,49,-99.99,,,-99.99,376.0,HOBO +U30 +Weather +,2013-04-06 12:08:00,
2013-04-06 08:09:00,38.0,19.8,-100.00,North,-999,-999.0,-999.0,47,-99.99,,,-99.99,369.0,HOBO +U30 +Weather +,2013-04-06 12:09:00,
2013-04-06 08:10:00,37.6,18.7,-100.00,North,-999,-999.0,-999.0,45,-99.99,,,-99.99,369.0,HOBO +U30 +Weather +,2013-04-06 12:10:00,
2013-04-06 08:11:00,37.4,18.8,-100.00,North,-999,-999.0,-999.0,46,-99.99,,,-99.99,369.0,HOBO +U30 +Weather +,2013-04-06 12:11:00,
2013-04-06 08:12:00,37.8,19.4,-100.00,North,-999,-999.0,-999.0,47,-99.99,,,-99.99,379.0,HOBO +U30 +Weather +,2013-04-06 12:12:00,
2013-04-06 08:13:00,37.8,18.9,-100.00,North,-999,-999.0,-999.0,46,-99.99,,,-99.99,373.0,HOBO +U30 +Weather +,2013-04-06 12:13:00,
2013-04-06 08:14:00,37.7,18.8,-100.00,North,-999,-999.0,-999.0,45,-99.99,,,-99.99,382.0,HOBO +U30 +Weather +,2013-04-06 12:14:00,
2013-04-06 08:15:00,37.9,19.0,-100.00,North,-999,-999.0,-999.0,45,-99.99,,,-99.99,376.0,HOBO +U30 +Weather +,2013-04-06 12:15:00,
2013-04-06 08:16:00,38.0,19.3,-100.00,North,-999,-999.0,-999.0,46,-99.99,,,-99.99,163.0,HOBO +U30 +Weather +,2013-04-06 12:16:00,
2013-04-06 08:17:00,37.7,19.0,-100.00,North,-999,-999.0,-999.0,46,-99.99,,,-99.99,259.0,HOBO +U30 +Weather +,2013-04-06 12:17:00,
2013-04-06 08:18:00,37.6,18.6,-100.00,North,-999,-999.0,-999.0,45,-99.99,,,-99.99,384.0,HOBO +U30 +Weather +,2013-04-06 12:18:00,
2013-04-06 08:19:00,37.4,18.8,-100.00,North,-999,-999.0,-999.0,46,-99.99,,,-99.99,118.0,HOBO +U30 +Weather +,2013-04-06 12:19:00,
2013-04-06 08:20:00,37.0,18.3,-100.00,North,-999,-999.0,-999.0,46,-99.99,,,-99.99,396.0,HOBO +U30 +Weather +,2013-04-06 12:20:00,
2013-04-06 08:21:00,36.9,18.6,-100.00,North,-999,-999.0,-999.0,47,-99.99,,,-99.99,393.0,HOBO +U30 +Weather +,2013-04-06 12:21:00,
2013-04-06 08:22:00,37.1,18.6,-100.00,North,-999,-999.0,-999.0,46,-99.99,,,-99.99,396.0,HOBO +U30 +Weather +,2013-04-06 12:22:00,
2013-04-06 08:23:00,37.3,18.8,-100.00,North,-999,-999.0,-999.0,46,-99.99,,,-99.99,404.0,HOBO +U30 +Weather +,2013-04-06 12:23:00,
2013-04-06 08:24:00,37.6,19.2,-100.00,North,-999,-999.0,-999.0,46,-99.99,,,-99.99,304.0,HOBO +U30 +Weather +,2013-04-06 12:24:00,
2013-04-06 08:25:00,37.7,19.0,-100.00,North,-999,-999.0,-999.0,46,-99.99,,,-99.99,404.0,HOBO +U30 +Weather +,2013-04-06 12:25:00,
2013-04-06 08:26:00,37.7,18.8,-100.00,North,-999,-999.0,-999.0,45,-99.99,,,-99.99,412.0,HOBO +U30 +Weather +,2013-04-06 12:26:00,
2013-04-06 08:27:00,37.7,19.1,-100.00,North,-999,-999.0,-999.0,46,-99.99,,,-99.99,396.0,HOBO +U30 +Weather +,2013-04-06 12:27:00,
2013-04-06 08:28:00,37.8,18.8,-100.00,North,-999,-999.0,-999.0,45,-99.99,,,-99.99,423.0,HOBO +U30 +Weather +,2013-04-06 12:28:00,
2013-04-06 08:29:00,38.1,19.2,-100.00,North,-999,-999.0,-999.0,46,-99.99,,,-99.99,423.0,HOBO +U30 +Weather +,2013-04-06 12:29:00,
2013-04-06 08:30:00,38.3,19.2,-100.00,North,-999,-999.0,-999.0,45,-99.99,,,-99.99,429.0,HOBO +U30 +Weather +,2013-04-06 12:30:00,
2013-04-06 08:31:00,38.1,19.0,-100.00,North,-999,-999.0,-999.0,45,-99.99,,,-99.99,421.0,HOBO +U30 +Weather +,2013-04-06 12:31:00,
2013-04-06 08:32:00,38.0,18.9,-100.00,North,-999,-999.0,-999.0,45,-99.99,,,-99.99,421.0,HOBO +U30 +Weather +,2013-04-06 12:32:00,
2013-04-06 08:33:00,38.1,19.1,-100.00,North,-999,-999.0,-999.0,45,-99.99,,,-99.99,443.0,HOBO +U30 +Weather +,2013-04-06 12:33:00,
2013-04-06 08:34:00,38.3,19.1,-100.00,North,-999,-999.0,-999.0,45,-99.99,,,-99.99,426.0,HOBO +U30 +Weather +,2013-04-06 12:34:00,
2013-04-06 08:35:00,38.2,18.9,-100.00,North,-999,-999.0,-999.0,45,-99.99,,,-99.99,457.0,HOBO +U30 +Weather +,2013-04-06 12:35:00,
2013-04-06 08:36:00,38.4,19.6,-100.00,North,-999,-999.0,-999.0,46,-99.99,,,-99.99,462.0,HOBO +U30 +Weather +,2013-04-06 12:36:00,
2013-04-06 08:37:00,38.6,19.5,-100.00,North,-999,-999.0,-999.0,45,-99.99,,,-99.99,461.0,HOBO +U30 +Weather +,2013-04-06 12:37:00,
2013-04-06 08:38:00,38.8,19.4,-100.00,North,-999,-999.0,-999.0,45,-99.99,,,-99.99,163.0,HOBO +U30 +Weather +,2013-04-06 12:38:00,
2013-04-06 08:39:00,38.5,18.9,-100.00,North,-999,-999.0,-999.0,44,-99.99,,,-99.99,452.0,HOBO +U30 +Weather +,2013-04-06 12:39:00,
2013-04-06 08:40:00,38.0,18.3,-100.00,North,-999,-999.0,-999.0,44,-99.99,,,-99.99,162.0,HOBO +U30 +Weather +,2013-04-06 12:40:00,
2013-04-06 08:41:00,37.5,18.0,-100.00,North,-999,-999.0,-999.0,44,-99.99,,,-99.99,449.0,HOBO +U30 +Weather +,2013-04-06 12:41:00,
2013-04-06 08:42:00,37.2,17.8,-100.00,North,-999,-999.0,-999.0,44,-99.99,,,-99.99,438.0,HOBO +U30 +Weather +,2013-04-06 12:42:00,
2013-04-06 08:43:00,37.3,18.1,-100.00,North,-999,-999.0,-999.0,45,-99.99,,,-99.99,447.0,HOBO +U30 +Weather +,2013-04-06 12:43:00,
2013-04-06 08:44:00,37.7,18.5,-100.00,North,-999,-999.0,-999.0,45,-99.99,,,-99.99,449.0,HOBO +U30 +Weather +,2013-04-06 12:44:00,
2013-04-06 08:45:00,38.0,18.7,-100.00,North,-999,-999.0,-999.0,45,-99.99,,,-99.99,454.0,HOBO +U30 +Weather +,2013-04-06 12:45:00,
2013-04-06 08:46:00,38.0,18.2,-100.00,North,-999,-999.0,-999.0,44,-99.99,,,-99.99,457.0,HOBO +U30 +Weather +,2013-04-06 12:46:00,
2013-04-06 08:47:00,38.0,18.4,-100.00,North,-999,-999.0,-999.0,44,-99.99,,,-99.99,461.0,HOBO +U30 +Weather +,2013-04-06 12:47:00,
2013-04-06 08:48:00,37.9,18.4,-100.00,North,-999,-999.0,-999.0,44,-99.99,,,-99.99,468.0,HOBO +U30 +Weather +,2013-04-06 12:48:00,
2013-04-06 08:49:00,38.0,18.4,-100.00,North,-999,-999.0,-999.0,44,-99.99,,,-99.99,471.0,HOBO +U30 +Weather +,2013-04-06 12:49:00,
2013-04-06 08:50:00,38.1,18.3,-100.00,North,-999,-999.0,-999.0,44,-99.99,,,-99.99,472.0,HOBO +U30 +Weather +,2013-04-06 12:50:00,
2013-04-06 08:51:00,37.9,17.8,-100.00,North,-999,-999.0,-999.0,43,-99.99,,,-99.99,474.0,HOBO +U30 +Weather +,2013-04-06 12:51:00,
2013-04-06 08:52:00,37.7,18.0,-100.00,North,-999,-999.0,-999.0,44,-99.99,,,-99.99,477.0,HOBO +U30 +Weather +,2013-04-06 12:52:00,
2013-04-06 08:53:00,37.8,18.0,-100.00,North,-999,-999.0,-999.0,44,-99.99,,,-99.99,479.0,HOBO +U30 +Weather +,2013-04-06 12:53:00,
2013-04-06 08:54:00,38.0,17.8,-100.00,North,-999,-999.0,-999.0,43,-99.99,,,-99.99,482.0,HOBO +U30 +Weather +,2013-04-06 12:54:00,
2013-04-06 08:55:00,37.7,17.4,-100.00,North,-999,-999.0,-999.0,43,-99.99,,,-99.99,486.0,HOBO +U30 +Weather +,2013-04-06 12:55:00,
2013-04-06 08:56:00,37.8,17.6,-100.00,North,-999,-999.0,-999.0,43,-99.99,,,-99.99,488.0,HOBO +U30 +Weather +,2013-04-06 12:56:00,
2013-04-06 08:57:00,37.8,17.2,-100.00,North,-999,-999.0,-999.0,42,-99.99,,,-99.99,494.0,HOBO +U30 +Weather +,2013-04-06 12:57:00,
2013-04-06 08:58:00,37.6,16.8,-100.00,North,-999,-999.0,-999.0,42,-99.99,,,-99.99,494.0,HOBO +U30 +Weather +,2013-04-06 12:58:00,
2013-04-06 08:59:00,38.0,17.7,-100.00,North,-999,-999.0,-999.0,43,-99.99,,,-99.99,498.0,HOBO +U30 +Weather +,2013-04-06 12:59:00,
2013-04-06 09:00:00,38.2,17.0,-100.00,North,-999,-999.0,-999.0,41,-99.99,,,-99.99,502.0,HOBO +U30 +Weather +,2013-04-06 13:00:00,
2013-04-06 09:01:00,38.1,16.8,-100.00,North,-999,-999.0,-999.0,41,-99.99,,,-99.99,504.0,HOBO +U30 +Weather +,2013-04-06 13:01:00,
2013-04-06 09:02:00,38.6,17.4,-100.00,North,-999,-999.0,-999.0,41,-99.99,,,-99.99,508.0,HOBO +U30 +Weather +,2013-04-06 13:02:00,
2013-04-06 09:03:00,38.6,17.0,-100.00,North,-999,-999.0,-999.0,41,-99.99,,,-99.99,511.0,HOBO +U30 +Weather +,2013-04-06 13:03:00,
2013-04-06 09:04:00,38.2,16.6,-100.00,North,-999,-999.0,-999.0,41,-99.99,,,-99.99,514.0,HOBO +U30 +Weather +,2013-04-06 13:04:00,
2013-04-06 09:05:00,38.0,16.5,-100.00,North,-999,-999.0,-999.0,41,-99.99,,,-99.99,518.0,HOBO +U30 +Weather +,2013-04-06 13:05:00,
2013-04-06 09:06:00,38.2,17.1,-100.00,North,-999,-999.0,-999.0,41,-99.99,,,-99.99,519.0,HOBO +U30 +Weather +,2013-04-06 13:06:00,
2013-04-06 09:07:00,38.4,17.3,-100.00,North,-999,-999.0,-999.0,42,-99.99,,,-99.99,522.0,HOBO +U30 +Weather +,2013-04-06 13:07:00,
2013-04-06 09:08:00,38.6,17.2,-100.00,North,-999,-999.0,-999.0,41,-99.99,,,-99.99,524.0,HOBO +U30 +Weather +,2013-04-06 13:08:00,
2013-04-06 09:09:00,38.8,17.2,-100.00,North,-999,-999.0,-999.0,41,-99.99,,,-99.99,528.0,HOBO +U30 +Weather +,2013-04-06 13:09:00,
2013-04-06 09:10:00,38.7,17.1,-100.00,North,-999,-999.0,-999.0,41,-99.99,,,-99.99,531.0,HOBO +U30 +Weather +,2013-04-06 13:10:00,
2013-04-06 09:11:00,38.4,16.6,-100.00,North,-999,-999.0,-999.0,40,-99.99,,,-99.99,533.0,HOBO +U30 +Weather +,2013-04-06 13:11:00,
2013-04-06 09:12:00,38.4,16.8,-100.00,North,-999,-999.0,-999.0,41,-99.99,,,-99.99,536.0,HOBO +U30 +Weather +,2013-04-06 13:12:00,
2013-04-06 09:13:00,38.3,16.6,-100.00,North,-999,-999.0,-999.0,40,-99.99,,,-99.99,538.0,HOBO +U30 +Weather +,2013-04-06 13:13:00,
2013-04-06 09:14:00,38.4,16.5,-100.00,North,-999,-999.0,-999.0,40,-99.99,,,-99.99,539.0,HOBO +U30 +Weather +,2013-04-06 13:14:00,
2013-04-06 09:15:00,38.3,16.4,-100.00,North,-999,-999.0,-999.0,40,-99.99,,,-99.99,546.0,HOBO +U30 +Weather +,2013-04-06 13:15:00,
2013-04-06 09:16:00,38.4,16.5,-100.00,North,-999,-999.0,-999.0,40,-99.99,,,-99.99,547.0,HOBO +U30 +Weather +,2013-04-06 13:16:00,
2013-04-06 09:17:00,38.6,16.4,-100.00,North,-999,-999.0,-999.0,40,-99.99,,,-99.99,549.0,HOBO +U30 +Weather +,2013-04-06 13:17:00,
2013-04-06 09:18:00,38.5,15.8,-100.00,North,-999,-999.0,-999.0,39,-99.99,,,-99.99,551.0,HOBO +U30 +Weather +,2013-04-06 13:18:00,
2013-04-06 09:19:00,38.5,16.4,-100.00,North,-999,-999.0,-999.0,40,-99.99,,,-99.99,554.0,HOBO +U30 +Weather +,2013-04-06 13:19:00,
2013-04-06 09:20:00,39.0,16.5,-100.00,North,-999,-999.0,-999.0,39,-99.99,,,-99.99,558.0,HOBO +U30 +Weather +,2013-04-06 13:20:00,
2013-04-06 09:21:00,39.0,16.2,-100.00,North,-999,-999.0,-999.0,39,-99.99,,,-99.99,562.0,HOBO +U30 +Weather +,2013-04-06 13:21:00,
2013-04-06 09:22:00,38.6,15.0,-100.00,North,-999,-999.0,-999.0,37,-99.99,,,-99.99,567.0,HOBO +U30 +Weather +,2013-04-06 13:22:00,
2013-04-06 09:23:00,38.3,14.9,-100.00,North,-999,-999.0,-999.0,37,-99.99,,,-99.99,567.0,HOBO +U30 +Weather +,2013-04-06 13:23:00,
2013-04-06 09:24:00,38.1,14.6,-100.00,North,-999,-999.0,-999.0,37,-99.99,,,-99.99,571.0,HOBO +U30 +Weather +,2013-04-06 13:24:00,
2013-04-06 09:25:00,38.1,14.6,-100.00,North,-999,-999.0,-999.0,37,-99.99,,,-99.99,572.0,HOBO +U30 +Weather +,2013-04-06 13:25:00,
2013-04-06 09:26:00,38.2,15.0,-100.00,North,-999,-999.0,-999.0,38,-99.99,,,-99.99,576.0,HOBO +U30 +Weather +,2013-04-06 13:26:00,
2013-04-06 09:27:00,38.5,15.3,-100.00,North,-999,-999.0,-999.0,38,-99.99,,,-99.99,576.0,HOBO +U30 +Weather +,2013-04-06 13:27:00,
2013-04-06 09:28:00,38.3,15.0,-100.00,North,-999,-999.0,-999.0,38,-99.99,,,-99.99,581.0,HOBO +U30 +Weather +,2013-04-06 13:28:00,
2013-04-06 09:29:00,38.5,15.5,-100.00,North,-999,-999.0,-999.0,38,-99.99,,,-99.99,583.0,HOBO +U30 +Weather +,2013-04-06 13:29:00,
2013-04-06 09:30:00,38.5,15.0,-100.00,North,-999,-999.0,-999.0,37,-99.99,,,-99.99,584.0,HOBO +U30 +Weather +,2013-04-06 13:30:00,
2013-04-06 09:31:00,38.9,15.6,-100.00,North,-999,-999.0,-999.0,38,-99.99,,,-99.99,589.0,HOBO +U30 +Weather +,2013-04-06 13:31:00,
2013-04-06 09:32:00,39.0,15.5,-100.00,North,-999,-999.0,-999.0,37,-99.99,,,-99.99,592.0,HOBO +U30 +Weather +,2013-04-06 13:32:00,
2013-04-06 09:33:00,39.0,15.5,-100.00,North,-999,-999.0,-999.0,37,-99.99,,,-99.99,594.0,HOBO +U30 +Weather +,2013-04-06 13:33:00,
2013-04-06 09:34:00,39.0,15.6,-100.00,North,-999,-999.0,-999.0,38,-99.99,,,-99.99,597.0,HOBO +U30 +Weather +,2013-04-06 13:34:00,
2013-04-06 09:35:00,38.9,15.3,-100.00,North,-999,-999.0,-999.0,37,-99.99,,,-99.99,599.0,HOBO +U30 +Weather +,2013-04-06 13:35:00,
2013-04-06 09:36:00,38.7,15.2,-100.00,North,-999,-999.0,-999.0,37,-99.99,,,-99.99,602.0,HOBO +U30 +Weather +,2013-04-06 13:36:00,
2013-04-06 09:37:00,38.6,15.1,-100.00,North,-999,-999.0,-999.0,37,-99.99,,,-99.99,603.0,HOBO +U30 +Weather +,2013-04-06 13:37:00,
2013-04-06 09:38:00,38.6,15.5,-100.00,North,-999,-999.0,-999.0,38,-99.99,,,-99.99,606.0,HOBO +U30 +Weather +,2013-04-06 13:38:00,
2013-04-06 09:39:00,38.8,15.5,-100.00,North,-999,-999.0,-999.0,38,-99.99,,,-99.99,608.0,HOBO +U30 +Weather +,2013-04-06 13:39:00,
2013-04-06 09:40:00,38.7,15.3,-100.00,North,-999,-999.0,-999.0,38,-99.99,,,-99.99,611.0,HOBO +U30 +Weather +,2013-04-06 13:40:00,
2013-04-06 09:41:00,38.7,15.5,-100.00,North,-999,-999.0,-999.0,38,-99.99,,,-99.99,613.0,HOBO +U30 +Weather +,2013-04-06 13:41:00,
2013-04-06 09:42:00,38.8,15.7,-100.00,North,-999,-999.0,-999.0,38,-99.99,,,-99.99,616.0,HOBO +U30 +Weather +,2013-04-06 13:42:00,
2013-04-06 09:43:00,38.8,15.7,-100.00,North,-999,-999.0,-999.0,38,-99.99,,,-99.99,618.0,HOBO +U30 +Weather +,2013-04-06 13:43:00,
2013-04-06 09:44:00,39.2,16.2,-100.00,North,-999,-999.0,-999.0,38,-99.99,,,-99.99,618.0,HOBO +U30 +Weather +,2013-04-06 13:44:00,
2013-04-06 09:45:00,39.2,15.7,-100.00,North,-999,-999.0,-999.0,37,-99.99,,,-99.99,622.0,HOBO +U30 +Weather +,2013-04-06 13:45:00,
2013-04-06 09:46:00,39.2,16.3,-100.00,North,-999,-999.0,-999.0,38,-99.99,,,-99.99,624.0,HOBO +U30 +Weather +,2013-04-06 13:46:00,
2013-04-06 09:47:00,39.2,16.0,-100.00,North,-999,-999.0,-999.0,38,-99.99,,,-99.99,626.0,HOBO +U30 +Weather +,2013-04-06 13:47:00,
2013-04-06 09:48:00,39.4,16.3,-100.00,North,-999,-999.0,-999.0,38,-99.99,,,-99.99,631.0,HOBO +U30 +Weather +,2013-04-06 13:48:00,
2013-04-06 09:49:00,39.5,16.0,-100.00,North,-999,-999.0,-999.0,38,-99.99,,,-99.99,632.0,HOBO +U30 +Weather +,2013-04-06 13:49:00,
2013-04-06 09:50:00,39.3,15.7,-100.00,North,-999,-999.0,-999.0,37,-99.99,,,-99.99,634.0,HOBO +U30 +Weather +,2013-04-06 13:50:00,
2013-04-06 09:51:00,39.3,15.2,-100.00,North,-999,-999.0,-999.0,37,-99.99,,,-99.99,637.0,HOBO +U30 +Weather +,2013-04-06 13:51:00,
2013-04-06 09:52:00,39.5,15.5,-100.00,North,-999,-999.0,-999.0,37,-99.99,,,-99.99,637.0,HOBO +U30 +Weather +,2013-04-06 13:52:00,
2013-04-06 09:53:00,39.5,15.1,-100.00,North,-999,-999.0,-999.0,36,-99.99,,,-99.99,643.0,HOBO +U30 +Weather +,2013-04-06 13:53:00,
2013-04-06 09:54:00,39.0,14.1,-100.00,North,-999,-999.0,-999.0,35,-99.99,,,-99.99,647.0,HOBO +U30 +Weather +,2013-04-06 13:54:00,
2013-04-06 09:55:00,38.7,14.4,-100.00,North,-999,-999.0,-999.0,36,-99.99,,,-99.99,648.0,HOBO +U30 +Weather +,2013-04-06 13:55:00,
2013-04-06 09:56:00,38.6,14.0,-100.00,North,-999,-999.0,-999.0,36,-99.99,,,-99.99,651.0,HOBO +U30 +Weather +,2013-04-06 13:56:00,
2013-04-06 09:57:00,38.3,13.6,-100.00,North,-999,-999.0,-999.0,35,-99.99,,,-99.99,652.0,HOBO +U30 +Weather +,2013-04-06 13:57:00,
2013-04-06 09:58:00,38.7,14.5,-100.00,North,-999,-999.0,-999.0,36,-99.99,,,-99.99,653.0,HOBO +U30 +Weather +,2013-04-06 13:58:00,
2013-04-06 09:59:00,38.8,14.0,-100.00,North,-999,-999.0,-999.0,35,-99.99,,,-99.99,656.0,HOBO +U30 +Weather +,2013-04-06 13:59:00,
2013-04-06 10:00:00,38.8,14.3,-100.00,North,-999,-999.0,-999.0,36,-99.99,,,-99.99,658.0,HOBO +U30 +Weather +,2013-04-06 14:00:00,
2013-04-06 10:01:00,38.9,14.4,-100.00,North,-999,-999.0,-999.0,36,-99.99,,,-99.99,661.0,HOBO +U30 +Weather +,2013-04-06 14:01:00,
2013-04-06 10:02:00,39.0,14.6,-100.00,North,-999,-999.0,-999.0,36,-99.99,,,-99.99,662.0,HOBO +U30 +Weather +,2013-04-06 14:02:00,
2013-04-06 10:03:00,39.0,14.4,-100.00,North,-999,-999.0,-999.0,36,-99.99,,,-99.99,666.0,HOBO +U30 +Weather +,2013-04-06 14:03:00,
2013-04-06 10:04:00,39.0,14.6,-100.00,North,-999,-999.0,-999.0,36,-99.99,,,-99.99,668.0,HOBO +U30 +Weather +,2013-04-06 14:04:00,
2013-04-06 10:05:00,38.8,14.3,-100.00,North,-999,-999.0,-999.0,36,-99.99,,,-99.99,669.0,HOBO +U30 +Weather +,2013-04-06 14:05:00,
2013-04-06 10:06:00,39.2,15.0,-100.00,North,-999,-999.0,-999.0,36,-99.99,,,-99.99,672.0,HOBO +U30 +Weather +,2013-04-06 14:06:00,
2013-04-06 10:07:00,39.5,15.1,-100.00,North,-999,-999.0,-999.0,36,-99.99,,,-99.99,673.0,HOBO +U30 +Weather +,2013-04-06 14:07:00,
2013-04-06 10:08:00,39.5,15.0,-100.00,North,-999,-999.0,-999.0,36,-99.99,,,-99.99,677.0,HOBO +U30 +Weather +,2013-04-06 14:08:00,
2013-04-06 10:09:00,39.5,15.2,-100.00,North,-999,-999.0,-999.0,36,-99.99,,,-99.99,678.0,HOBO +U30 +Weather +,2013-04-06 14:09:00,
2013-04-06 10:10:00,39.8,15.8,-100.00,North,-999,-999.0,-999.0,37,-99.99,,,-99.99,679.0,HOBO +U30 +Weather +,2013-04-06 14:10:00,
2013-04-06 10:11:00,39.3,14.7,-100.00,North,-999,-999.0,-999.0,36,-99.99,,,-99.99,682.0,HOBO +U30 +Weather +,2013-04-06 14:11:00,
2013-04-06 10:12:00,39.4,14.7,-100.00,North,-999,-999.0,-999.0,36,-99.99,,,-99.99,686.0,HOBO +U30 +Weather +,2013-04-06 14:12:00,
2013-04-06 10:13:00,39.1,14.2,-100.00,North,-999,-999.0,-999.0,35,-99.99,,,-99.99,688.0,HOBO +U30 +Weather +,2013-04-06 14:13:00,
2013-04-06 10:14:00,38.9,14.4,-100.00,North,-999,-999.0,-999.0,36,-99.99,,,-99.99,689.0,HOBO +U30 +Weather +,2013-04-06 14:14:00,
2013-04-06 10:15:00,38.8,14.4,-100.00,North,-999,-999.0,-999.0,36,-99.99,,,-99.99,689.0,HOBO +U30 +Weather +,2013-04-06 14:15:00,
2013-04-06 10:16:00,38.8,14.5,-100.00,North,-999,-999.0,-999.0,36,-99.99,,,-99.99,692.0,HOBO +U30 +Weather +,2013-04-06 14:16:00,
2013-04-06 10:17:00,38.1,13.9,-100.00,North,-999,-999.0,-999.0,36,-99.99,,,-99.99,696.0,HOBO +U30 +Weather +,2013-04-06 14:17:00,
2013-04-06 10:18:00,38.5,14.8,-100.00,North,-999,-999.0,-999.0,37,-99.99,,,-99.99,697.0,HOBO +U30 +Weather +,2013-04-06 14:18:00,
2013-04-06 10:19:00,39.0,15.1,-100.00,North,-999,-999.0,-999.0,37,-99.99,,,-99.99,699.0,HOBO +U30 +Weather +,2013-04-06 14:19:00,
2013-04-06 10:20:00,39.0,14.4,-100.00,North,-999,-999.0,-999.0,36,-99.99,,,-99.99,701.0,HOBO +U30 +Weather +,2013-04-06 14:20:00,
2013-04-06 10:21:00,39.1,14.8,-100.00,North,-999,-999.0,-999.0,36,-99.99,,,-99.99,702.0,HOBO +U30 +Weather +,2013-04-06 14:21:00,
2013-04-06 10:22:00,39.5,15.5,-100.00,North,-999,-999.0,-999.0,37,-99.99,,,-99.99,702.0,HOBO +U30 +Weather +,2013-04-06 14:22:00,
2013-04-06 10:23:00,40.5,16.6,-100.00,North,-999,-999.0,-999.0,37,-99.99,,,-99.99,704.0,HOBO +U30 +Weather +,2013-04-06 14:23:00,
2013-04-06 10:24:00,40.4,15.8,-100.00,North,-999,-999.0,-999.0,36,-99.99,,,-99.99,707.0,HOBO +U30 +Weather +,2013-04-06 14:24:00,
2013-04-06 10:25:00,39.7,15.0,-100.00,North,-999,-999.0,-999.0,36,-99.99,,,-99.99,712.0,HOBO +U30 +Weather +,2013-04-06 14:25:00,
2013-04-06 10:26:00,39.8,15.6,-100.00,North,-999,-999.0,-999.0,36,-99.99,,,-99.99,713.0,HOBO +U30 +Weather +,2013-04-06 14:26:00,
2013-04-06 10:27:00,39.9,15.4,-100.00,North,-999,-999.0,-999.0,36,-99.99,,,-99.99,714.0,HOBO +U30 +Weather +,2013-04-06 14:27:00,
2013-04-06 10:28:00,39.9,15.5,-100.00,North,-999,-999.0,-999.0,36,-99.99,,,-99.99,716.0,HOBO +U30 +Weather +,2013-04-06 14:28:00,
2013-04-06 10:29:00,40.1,15.7,-100.00,North,-999,-999.0,-999.0,36,-99.99,,,-99.99,718.0,HOBO +U30 +Weather +,2013-04-06 14:29:00,
2013-04-06 10:30:00,40.3,15.7,-100.00,North,-999,-999.0,-999.0,36,-99.99,,,-99.99,719.0,HOBO +U30 +Weather +,2013-04-06 14:30:00,
2013-04-06 10:31:00,40.1,15.2,-100.00,North,-999,-999.0,-999.0,35,-99.99,,,-99.99,721.0,HOBO +U30 +Weather +,2013-04-06 14:31:00,
2013-04-06 10:32:00,39.9,14.9,-100.00,North,-999,-999.0,-999.0,35,-99.99,,,-99.99,722.0,HOBO +U30 +Weather +,2013-04-06 14:32:00,
2013-04-06 10:33:00,39.9,15.4,-100.00,North,-999,-999.0,-999.0,36,-99.99,,,-99.99,724.0,HOBO +U30 +Weather +,2013-04-06 14:33:00,
2013-04-06 10:34:00,40.1,15.0,-100.00,North,-999,-999.0,-999.0,35,-99.99,,,-99.99,726.0,HOBO +U30 +Weather +,2013-04-06 14:34:00,
2013-04-06 10:35:00,40.1,15.3,-100.00,North,-999,-999.0,-999.0,36,-99.99,,,-99.99,728.0,HOBO +U30 +Weather +,2013-04-06 14:35:00,
2013-04-06 10:36:00,40.3,15.4,-100.00,North,-999,-999.0,-999.0,35,-99.99,,,-99.99,731.0,HOBO +U30 +Weather +,2013-04-06 14:36:00,
2013-04-06 10:37:00,40.4,15.6,-100.00,North,-999,-999.0,-999.0,36,-99.99,,,-99.99,732.0,HOBO +U30 +Weather +,2013-04-06 14:37:00,
2013-04-06 10:38:00,40.4,15.4,-100.00,North,-999,-999.0,-999.0,35,-99.99,,,-99.99,734.0,HOBO +U30 +Weather +,2013-04-06 14:38:00,
2013-04-06 10:39:00,41.4,17.2,-100.00,North,-999,-999.0,-999.0,37,-99.99,,,-99.99,741.0,HOBO +U30 +Weather +,2013-04-06 14:39:00,
2013-04-06 10:40:00,41.5,16.0,-100.00,North,-999,-999.0,-999.0,35,-99.99,,,-99.99,738.0,HOBO +U30 +Weather +,2013-04-06 14:40:00,
2013-04-06 10:41:00,40.7,15.3,-100.00,North,-999,-999.0,-999.0,35,-99.99,,,-99.99,739.0,HOBO +U30 +Weather +,2013-04-06 14:41:00,
2013-04-06 10:42:00,40.6,15.7,-100.00,North,-999,-999.0,-999.0,35,-99.99,,,-99.99,739.0,HOBO +U30 +Weather +,2013-04-06 14:42:00,
2013-04-06 10:43:00,40.7,15.5,-100.00,North,-999,-999.0,-999.0,35,-99.99,,,-99.99,746.0,HOBO +U30 +Weather +,2013-04-06 14:43:00,
2013-04-06 10:44:00,40.6,15.5,-100.00,North,-999,-999.0,-999.0,35,-99.99,,,-99.99,748.0,HOBO +U30 +Weather +,2013-04-06 14:44:00,
2013-04-06 10:45:00,40.3,15.5,-100.00,North,-999,-999.0,-999.0,36,-99.99,,,-99.99,746.0,HOBO +U30 +Weather +,2013-04-06 14:45:00,
2013-04-06 10:46:00,40.4,15.0,-100.00,North,-999,-999.0,-999.0,35,-99.99,,,-99.99,747.0,HOBO +U30 +Weather +,2013-04-06 14:46:00,
2013-04-06 10:47:00,40.5,15.3,-100.00,North,-999,-999.0,-999.0,35,-99.99,,,-99.99,747.0,HOBO +U30 +Weather +,2013-04-06 14:47:00,
2013-04-06 10:48:00,39.9,14.8,-100.00,North,-999,-999.0,-999.0,35,-99.99,,,-99.99,749.0,HOBO +U30 +Weather +,2013-04-06 14:48:00,
2013-04-06 10:49:00,40.2,15.4,-100.00,North,-999,-999.0,-999.0,35,-99.99,,,-99.99,752.0,HOBO +U30 +Weather +,2013-04-06 14:49:00,
2013-04-06 10:50:00,40.2,14.8,-100.00,North,-999,-999.0,-999.0,35,-99.99,,,-99.99,752.0,HOBO +U30 +Weather +,2013-04-06 14:50:00,
2013-04-06 10:51:00,40.4,15.6,-100.00,North,-999,-999.0,-999.0,35,-99.99,,,-99.99,754.0,HOBO +U30 +Weather +,2013-04-06 14:51:00,
2013-04-06 10:52:00,40.8,15.8,-100.00,North,-999,-999.0,-999.0,35,-99.99,,,-99.99,756.0,HOBO +U30 +Weather +,2013-04-06 14:52:00,
2013-04-06 10:53:00,41.2,16.1,-100.00,North,-999,-999.0,-999.0,35,-99.99,,,-99.99,754.0,HOBO +U30 +Weather +,2013-04-06 14:53:00,
2013-04-06 10:54:00,41.6,16.5,-100.00,North,-999,-999.0,-999.0,35,-99.99,,,-99.99,758.0,HOBO +U30 +Weather +,2013-04-06 14:54:00,
2013-04-06 10:55:00,41.2,15.9,-100.00,North,-999,-999.0,-999.0,35,-99.99,,,-99.99,761.0,HOBO +U30 +Weather +,2013-04-06 14:55:00,
2013-04-06 10:56:00,41.1,15.9,-100.00,North,-999,-999.0,-999.0,35,-99.99,,,-99.99,759.0,HOBO +U30 +Weather +,2013-04-06 14:56:00,
2013-04-06 10:57:00,41.2,16.3,-100.00,North,-999,-999.0,-999.0,35,-99.99,,,-99.99,763.0,HOBO +U30 +Weather +,2013-04-06 14:57:00,
2013-04-06 11:00:00,41.1,16.4,-100.00,North,-999,-999.0,-999.0,36,-99.99,,,-99.99,767.0,HOBO +U30 +Weather +,2013-04-06 15:00:00,
2013-04-06 11:01:00,40.9,15.9,-100.00,North,-999,-999.0,-999.0,35,-99.99,,,-99.99,769.0,HOBO +U30 +Weather +,2013-04-06 15:01:00,
2013-04-06 11:02:00,41.0,17.0,-100.00,North,-999,-999.0,-999.0,37,-99.99,,,-99.99,768.0,HOBO +U30 +Weather +,2013-04-06 15:02:00,
2013-04-06 11:03:00,41.2,16.8,-100.00,North,-999,-999.0,-999.0,36,-99.99,,,-99.99,773.0,HOBO +U30 +Weather +,2013-04-06 15:03:00,
2013-04-06 11:04:00,40.7,15.4,-100.00,North,-999,-999.0,-999.0,35,-99.99,,,-99.99,772.0,HOBO +U30 +Weather +,2013-04-06 15:04:00,
2013-04-06 11:05:00,40.4,15.6,-100.00,North,-999,-999.0,-999.0,36,-99.99,,,-99.99,774.0,HOBO +U30 +Weather +,2013-04-06 15:05:00,
2013-04-06 11:06:00,40.6,16.2,-100.00,North,-999,-999.0,-999.0,36,-99.99,,,-99.99,779.0,HOBO +U30 +Weather +,2013-04-06 15:06:00,
2013-04-06 11:07:00,41.0,16.2,-100.00,North,-999,-999.0,-999.0,36,-99.99,,,-99.99,776.0,HOBO +U30 +Weather +,2013-04-06 15:07:00,
2013-04-06 11:08:00,40.9,15.8,-100.00,North,-999,-999.0,-999.0,35,-99.99,,,-99.99,779.0,HOBO +U30 +Weather +,2013-04-06 15:08:00,
2013-04-06 11:09:00,40.7,15.6,-100.00,North,-999,-999.0,-999.0,35,-99.99,,,-99.99,779.0,HOBO +U30 +Weather +,2013-04-06 15:09:00,
2013-04-06 11:10:00,41.4,16.6,-100.00,North,-999,-999.0,-999.0,36,-99.99,,,-99.99,782.0,HOBO +U30 +Weather +,2013-04-06 15:10:00,
2013-04-06 11:11:00,41.3,15.8,-100.00,North,-999,-999.0,-999.0,35,-99.99,,,-99.99,784.0,HOBO +U30 +Weather +,2013-04-06 15:11:00,
2013-04-06 11:12:00,40.5,15.0,-100.00,North,-999,-999.0,-999.0,34,-99.99,,,-99.99,787.0,HOBO +U30 +Weather +,2013-04-06 15:12:00,
2013-04-06 11:13:00,41.1,16.1,-100.00,North,-999,-999.0,-999.0,35,-99.99,,,-99.99,787.0,HOBO +U30 +Weather +,2013-04-06 15:13:00,
2013-04-06 11:14:00,40.9,14.9,-100.00,North,-999,-999.0,-999.0,34,-99.99,,,-99.99,788.0,HOBO +U30 +Weather +,2013-04-06 15:14:00,
2013-04-06 11:15:00,40.7,15.1,-100.00,North,-999,-999.0,-999.0,34,-99.99,,,-99.99,789.0,HOBO +U30 +Weather +,2013-04-06 15:15:00,
2013-04-06 11:16:00,40.7,15.1,-100.00,North,-999,-999.0,-999.0,34,-99.99,,,-99.99,791.0,HOBO +U30 +Weather +,2013-04-06 15:16:00,
2013-04-06 11:17:00,41.2,16.0,-100.00,North,-999,-999.0,-999.0,35,-99.99,,,-99.99,792.0,HOBO +U30 +Weather +,2013-04-06 15:17:00,
2013-04-06 11:18:00,41.9,16.8,-100.00,North,-999,-999.0,-999.0,35,-99.99,,,-99.99,794.0,HOBO +U30 +Weather +,2013-04-06 15:18:00,
2013-04-06 11:19:00,42.2,16.6,-100.00,North,-999,-999.0,-999.0,35,-99.99,,,-99.99,794.0,HOBO +U30 +Weather +,2013-04-06 15:19:00,
2013-04-06 11:21:00,41.5,15.6,-100.00,North,-999,-999.0,-999.0,34,-99.99,,,-99.99,796.0,HOBO +U30 +Weather +,2013-04-06 15:21:00,
2013-04-06 11:22:00,41.6,16.5,-100.00,North,-999,-999.0,-999.0,35,-99.99,,,-99.99,798.0,HOBO +U30 +Weather +,2013-04-06 15:22:00,
2013-04-06 11:23:00,42.2,16.5,-100.00,North,-999,-999.0,-999.0,35,-99.99,,,-99.99,797.0,HOBO +U30 +Weather +,2013-04-06 15:23:00,
2013-04-06 11:24:00,43.0,18.1,-100.00,North,-999,-999.0,-999.0,36,-99.99,,,-99.99,804.0,HOBO +U30 +Weather +,2013-04-06 15:24:00,
2013-04-06 11:25:00,43.1,16.6,-100.00,North,-999,-999.0,-999.0,34,-99.99,,,-99.99,799.0,HOBO +U30 +Weather +,2013-04-06 15:25:00,
2013-04-06 11:26:00,42.2,16.2,-100.00,North,-999,-999.0,-999.0,34,-99.99,,,-99.99,799.0,HOBO +U30 +Weather +,2013-04-06 15:26:00,
2013-04-06 11:27:00,41.9,15.5,-100.00,North,-999,-999.0,-999.0,33,-99.99,,,-99.99,803.0,HOBO +U30 +Weather +,2013-04-06 15:27:00,
2013-04-06 11:28:00,41.6,15.3,-100.00,North,-999,-999.0,-999.0,34,-99.99,,,-99.99,803.0,HOBO +U30 +Weather +,2013-04-06 15:28:00,
2013-04-06 11:29:00,41.5,15.6,-100.00,North,-999,-999.0,-999.0,34,-99.99,,,-99.99,803.0,HOBO +U30 +Weather +,2013-04-06 15:29:00,
2013-04-06 11:30:00,42.0,16.1,-100.00,North,-999,-999.0,-999.0,34,-99.99,,,-99.99,804.0,HOBO +U30 +Weather +,2013-04-06 15:30:00,
2013-04-06 11:31:00,42.3,16.2,-100.00,North,-999,-999.0,-999.0,34,-99.99,,,-99.99,808.0,HOBO +U30 +Weather +,2013-04-06 15:31:00,
2013-04-06 11:32:00,42.7,16.7,-100.00,North,-999,-999.0,-999.0,34,-99.99,,,-99.99,809.0,HOBO +U30 +Weather +,2013-04-06 15:32:00,
2013-04-06 11:33:00,43.0,17.1,-100.00,North,-999,-999.0,-999.0,34,-99.99,,,-99.99,814.0,HOBO +U30 +Weather +,2013-04-06 15:33:00,
2013-04-06 11:34:00,43.3,16.9,-100.00,North,-999,-999.0,-999.0,34,-99.99,,,-99.99,808.0,HOBO +U30 +Weather +,2013-04-06 15:34:00,
2013-04-06 11:35:00,43.5,17.9,-100.00,North,-999,-999.0,-999.0,35,-99.99,,,-99.99,812.0,HOBO +U30 +Weather +,2013-04-06 15:35:00,
2013-04-06 11:36:00,43.4,16.9,-100.00,North,-999,-999.0,-999.0,34,-99.99,,,-99.99,809.0,HOBO +U30 +Weather +,2013-04-06 15:36:00,
2013-04-06 11:37:00,42.7,16.0,-100.00,North,-999,-999.0,-999.0,33,-99.99,,,-99.99,813.0,HOBO +U30 +Weather +,2013-04-06 15:37:00,
2013-04-06 11:38:00,42.9,16.4,-100.00,North,-999,-999.0,-999.0,34,-99.99,,,-99.99,817.0,HOBO +U30 +Weather +,2013-04-06 15:38:00,
2013-04-06 11:39:00,42.5,15.6,-100.00,North,-999,-999.0,-999.0,33,-99.99,,,-99.99,818.0,HOBO +U30 +Weather +,2013-04-06 15:39:00,
2013-04-06 11:40:00,42.2,15.5,-100.00,North,-999,-999.0,-999.0,33,-99.99,,,-99.99,819.0,HOBO +U30 +Weather +,2013-04-06 15:40:00,
2013-04-06 11:41:00,42.7,16.6,-100.00,North,-999,-999.0,-999.0,34,-99.99,,,-99.99,819.0,HOBO +U30 +Weather +,2013-04-06 15:41:00,
2013-04-06 11:42:00,42.2,15.1,-100.00,North,-999,-999.0,-999.0,32,-99.99,,,-99.99,816.0,HOBO +U30 +Weather +,2013-04-06 15:42:00,
2013-04-06 11:43:00,42.0,15.3,-100.00,North,-999,-999.0,-999.0,33,-99.99,,,-99.99,817.0,HOBO +U30 +Weather +,2013-04-06 15:43:00,
2013-04-06 11:44:00,41.9,15.5,-100.00,North,-999,-999.0,-999.0,33,-99.99,,,-99.99,817.0,HOBO +U30 +Weather +,2013-04-06 15:44:00,
2013-04-06 11:45:00,42.2,15.8,-100.00,North,-999,-999.0,-999.0,33,-99.99,,,-99.99,819.0,HOBO +U30 +Weather +,2013-04-06 15:45:00,
2013-04-06 11:46:00,42.8,16.6,-100.00,North,-999,-999.0,-999.0,34,-99.99,,,-99.99,821.0,HOBO +U30 +Weather +,2013-04-06 15:46:00,
2013-04-06 11:47:00,42.3,15.5,-100.00,North,-999,-999.0,-999.0,33,-99.99,,,-99.99,823.0,HOBO +U30 +Weather +,2013-04-06 15:47:00,
2013-04-06 11:48:00,41.7,15.2,-100.00,North,-999,-999.0,-999.0,33,-99.99,,,-99.99,821.0,HOBO +U30 +Weather +,2013-04-06 15:48:00,
2013-04-06 11:49:00,42.1,16.0,-100.00,North,-999,-999.0,-999.0,34,-99.99,,,-99.99,821.0,HOBO +U30 +Weather +,2013-04-06 15:49:00,
2013-04-06 11:50:00,42.3,16.0,-100.00,North,-999,-999.0,-999.0,34,-99.99,,,-99.99,821.0,HOBO +U30 +Weather +,2013-04-06 15:50:00,
2013-04-06 11:51:00,42.3,16.1,-100.00,North,-999,-999.0,-999.0,34,-99.99,,,-99.99,828.0,HOBO +U30 +Weather +,2013-04-06 15:51:00,
2013-04-06 11:52:00,43.0,16.6,-100.00,North,-999,-999.0,-999.0,34,-99.99,,,-99.99,827.0,HOBO +U30 +Weather +,2013-04-06 15:52:00,
2013-04-06 11:53:00,43.6,16.9,-100.00,North,-999,-999.0,-999.0,33,-99.99,,,-99.99,828.0,HOBO +U30 +Weather +,2013-04-06 15:53:00,
2013-04-06 11:54:00,43.4,15.5,-100.00,North,-999,-999.0,-999.0,32,-99.99,,,-99.99,831.0,HOBO +U30 +Weather +,2013-04-06 15:54:00,
2013-04-06 11:55:00,43.0,15.5,-100.00,North,-999,-999.0,-999.0,32,-99.99,,,-99.99,828.0,HOBO +U30 +Weather +,2013-04-06 15:55:00,
2013-04-06 11:56:00,43.1,15.6,-100.00,North,-999,-999.0,-999.0,32,-99.99,,,-99.99,832.0,HOBO +U30 +Weather +,2013-04-06 15:56:00,
2013-04-06 11:57:00,43.0,15.6,-100.00,North,-999,-999.0,-999.0,32,-99.99,,,-99.99,829.0,HOBO +U30 +Weather +,2013-04-06 15:57:00,
2013-04-06 11:58:00,42.9,16.0,-100.00,North,-999,-999.0,-999.0,33,-99.99,,,-99.99,828.0,HOBO +U30 +Weather +,2013-04-06 15:58:00,
2013-04-06 11:59:00,43.1,15.6,-100.00,North,-999,-999.0,-999.0,32,-99.99,,,-99.99,832.0,HOBO +U30 +Weather +,2013-04-06 15:59:00,
2013-04-06 12:00:00,42.8,15.8,-100.00,North,-999,-999.0,-999.0,33,-99.99,,,-99.99,833.0,HOBO +U30 +Weather +,2013-04-06 16:00:00,
2013-04-06 12:01:00,42.9,15.6,-100.00,North,-999,-999.0,-999.0,32,-99.99,,,-99.99,832.0,HOBO +U30 +Weather +,2013-04-06 16:01:00,
2013-04-06 12:02:00,43.0,16.0,-100.00,North,-999,-999.0,-999.0,33,-99.99,,,-99.99,832.0,HOBO +U30 +Weather +,2013-04-06 16:02:00,
2013-04-06 12:03:00,43.0,15.8,-100.00,North,-999,-999.0,-999.0,32,-99.99,,,-99.99,834.0,HOBO +U30 +Weather +,2013-04-06 16:03:00,
2013-04-06 12:04:00,43.4,15.7,-100.00,North,-999,-999.0,-999.0,32,-99.99,,,-99.99,834.0,HOBO +U30 +Weather +,2013-04-06 16:04:00,
2013-04-06 12:05:00,42.9,15.6,-100.00,North,-999,-999.0,-999.0,32,-99.99,,,-99.99,834.0,HOBO +U30 +Weather +,2013-04-06 16:05:00,
2013-04-06 12:06:00,43.4,16.1,-100.00,North,-999,-999.0,-999.0,32,-99.99,,,-99.99,834.0,HOBO +U30 +Weather +,2013-04-06 16:06:00,
2013-04-06 12:07:00,43.9,16.2,-100.00,North,-999,-999.0,-999.0,32,-99.99,,,-99.99,833.0,HOBO +U30 +Weather +,2013-04-06 16:07:00,
2013-04-06 12:08:00,43.2,15.2,-100.00,North,-999,-999.0,-999.0,31,-99.99,,,-99.99,836.0,HOBO +U30 +Weather +,2013-04-06 16:08:00,
2013-04-06 12:09:00,42.7,14.8,-100.00,North,-999,-999.0,-999.0,31,-99.99,,,-99.99,837.0,HOBO +U30 +Weather +,2013-04-06 16:09:00,
2013-04-06 12:10:00,42.5,14.6,-100.00,North,-999,-999.0,-999.0,31,-99.99,,,-99.99,838.0,HOBO +U30 +Weather +,2013-04-06 16:10:00,
2013-04-06 12:11:00,42.4,14.8,-100.00,North,-999,-999.0,-999.0,32,-99.99,,,-99.99,837.0,HOBO +U30 +Weather +,2013-04-06 16:11:00,
2013-04-06 12:12:00,43.0,15.6,-100.00,North,-999,-999.0,-999.0,32,-99.99,,,-99.99,838.0,HOBO +U30 +Weather +,2013-04-06 16:12:00,
2013-04-06 12:13:00,43.4,15.8,-100.00,North,-999,-999.0,-999.0,32,-99.99,,,-99.99,838.0,HOBO +U30 +Weather +,2013-04-06 16:13:00,
2013-04-06 12:14:00,43.4,15.7,-100.00,North,-999,-999.0,-999.0,32,-99.99,,,-99.99,839.0,HOBO +U30 +Weather +,2013-04-06 16:14:00,
2013-04-06 12:15:00,43.4,16.0,-100.00,North,-999,-999.0,-999.0,32,-99.99,,,-99.99,839.0,HOBO +U30 +Weather +,2013-04-06 16:15:00,
2013-04-06 12:16:00,43.0,15.0,-100.00,North,-999,-999.0,-999.0,31,-99.99,,,-99.99,839.0,HOBO +U30 +Weather +,2013-04-06 16:16:00,
2013-04-06 12:17:00,42.9,15.0,-100.00,North,-999,-999.0,-999.0,31,-99.99,,,-99.99,839.0,HOBO +U30 +Weather +,2013-04-06 16:17:00,
2013-04-06 12:18:00,43.2,15.6,-100.00,North,-999,-999.0,-999.0,32,-99.99,,,-99.99,838.0,HOBO +U30 +Weather +,2013-04-06 16:18:00,
2013-04-06 12:19:00,43.3,15.6,-100.00,North,-999,-999.0,-999.0,32,-99.99,,,-99.99,841.0,HOBO +U30 +Weather +,2013-04-06 16:19:00,
2013-04-06 12:20:00,43.9,16.4,-100.00,North,-999,-999.0,-999.0,32,-99.99,,,-99.99,838.0,HOBO +U30 +Weather +,2013-04-06 16:20:00,
2013-04-06 12:21:00,44.3,16.6,-100.00,North,-999,-999.0,-999.0,32,-99.99,,,-99.99,841.0,HOBO +U30 +Weather +,2013-04-06 16:21:00,
2013-04-06 12:22:00,45.1,17.2,-100.00,North,-999,-999.0,-999.0,32,-99.99,,,-99.99,841.0,HOBO +U30 +Weather +,2013-04-06 16:22:00,
2013-04-06 12:23:00,44.9,16.2,-100.00,North,-999,-999.0,-999.0,31,-99.99,,,-99.99,842.0,HOBO +U30 +Weather +,2013-04-06 16:23:00,
2013-04-06 12:24:00,44.8,16.9,-100.00,North,-999,-999.0,-999.0,32,-99.99,,,-99.99,839.0,HOBO +U30 +Weather +,2013-04-06 16:24:00,
2013-04-06 12:25:00,44.8,16.9,-100.00,North,-999,-999.0,-999.0,32,-99.99,,,-99.99,843.0,HOBO +U30 +Weather +,2013-04-06 16:25:00,
2013-04-06 12:26:00,45.0,16.8,-100.00,North,-999,-999.0,-999.0,31,-99.99,,,-99.99,841.0,HOBO +U30 +Weather +,2013-04-06 16:26:00,
2013-04-06 12:27:00,45.3,17.5,-100.00,North,-999,-999.0,-999.0,32,-99.99,,,-99.99,841.0,HOBO +U30 +Weather +,2013-04-06 16:27:00,
2013-04-06 12:28:00,45.1,16.4,-100.00,North,-999,-999.0,-999.0,31,-99.99,,,-99.99,844.0,HOBO +U30 +Weather +,2013-04-06 16:28:00,
2013-04-06 12:29:00,44.4,16.2,-100.00,North,-999,-999.0,-999.0,31,-99.99,,,-99.99,842.0,HOBO +U30 +Weather +,2013-04-06 16:29:00,
2013-04-06 12:30:00,44.2,16.1,-100.00,North,-999,-999.0,-999.0,31,-99.99,,,-99.99,841.0,HOBO +U30 +Weather +,2013-04-06 16:30:00,
2013-04-06 12:31:00,44.4,16.9,-100.00,North,-999,-999.0,-999.0,32,-99.99,,,-99.99,841.0,HOBO +U30 +Weather +,2013-04-06 16:31:00,
2013-04-06 12:32:00,45.0,17.0,-100.00,North,-999,-999.0,-999.0,32,-99.99,,,-99.99,841.0,HOBO +U30 +Weather +,2013-04-06 16:32:00,
2013-04-06 12:33:00,45.3,17.4,-100.00,North,-999,-999.0,-999.0,32,-99.99,,,-99.99,839.0,HOBO +U30 +Weather +,2013-04-06 16:33:00,
2013-04-06 12:34:00,45.0,16.5,-100.00,North,-999,-999.0,-999.0,31,-99.99,,,-99.99,841.0,HOBO +U30 +Weather +,2013-04-06 16:34:00,
2013-04-06 12:35:00,44.8,16.2,-100.00,North,-999,-999.0,-999.0,31,-99.99,,,-99.99,839.0,HOBO +U30 +Weather +,2013-04-06 16:35:00,
2013-04-06 12:36:00,44.9,16.2,-100.00,North,-999,-999.0,-999.0,31,-99.99,,,-99.99,838.0,HOBO +U30 +Weather +,2013-04-06 16:36:00,
2013-04-06 12:37:00,44.7,16.4,-100.00,North,-999,-999.0,-999.0,31,-99.99,,,-99.99,842.0,HOBO +U30 +Weather +,2013-04-06 16:37:00,
2013-04-06 12:38:00,45.0,17.3,-100.00,North,-999,-999.0,-999.0,32,-99.99,,,-99.99,841.0,HOBO +U30 +Weather +,2013-04-06 16:38:00,
2013-04-06 12:39:00,45.3,17.6,-100.00,North,-999,-999.0,-999.0,32,-99.99,,,-99.99,839.0,HOBO +U30 +Weather +,2013-04-06 16:39:00,
2013-04-06 12:40:00,44.4,16.2,-100.00,North,-999,-999.0,-999.0,31,-99.99,,,-99.99,843.0,HOBO +U30 +Weather +,2013-04-06 16:40:00,
2013-04-06 12:41:00,44.0,16.5,-100.00,North,-999,-999.0,-999.0,32,-99.99,,,-99.99,842.0,HOBO +U30 +Weather +,2013-04-06 16:41:00,
2013-04-06 12:42:00,44.7,17.4,-100.00,North,-999,-999.0,-999.0,33,-99.99,,,-99.99,841.0,HOBO +U30 +Weather +,2013-04-06 16:42:00,
2013-04-06 12:43:00,45.3,17.7,-100.00,North,-999,-999.0,-999.0,32,-99.99,,,-99.99,844.0,HOBO +U30 +Weather +,2013-04-06 16:43:00,
2013-04-06 12:44:00,45.8,18.2,-100.00,North,-999,-999.0,-999.0,32,-99.99,,,-99.99,842.0,HOBO +U30 +Weather +,2013-04-06 16:44:00,
2013-04-06 12:45:00,46.1,18.6,-100.00,North,-999,-999.0,-999.0,33,-99.99,,,-99.99,842.0,HOBO +U30 +Weather +,2013-04-06 16:45:00,
2013-04-06 12:46:00,45.8,17.9,-100.00,North,-999,-999.0,-999.0,32,-99.99,,,-99.99,841.0,HOBO +U30 +Weather +,2013-04-06 16:46:00,
2013-04-06 12:47:00,46.5,19.0,-100.00,North,-999,-999.0,-999.0,33,-99.99,,,-99.99,842.0,HOBO +U30 +Weather +,2013-04-06 16:47:00,
2013-04-06 12:48:00,46.4,18.1,-100.00,North,-999,-999.0,-999.0,31,-99.99,,,-99.99,844.0,HOBO +U30 +Weather +,2013-04-06 16:48:00,
2013-04-06 12:49:00,46.4,18.4,-100.00,North,-999,-999.0,-999.0,32,-99.99,,,-99.99,843.0,HOBO +U30 +Weather +,2013-04-06 16:49:00,
2013-04-06 12:50:00,45.5,16.8,-100.00,North,-999,-999.0,-999.0,31,-99.99,,,-99.99,842.0,HOBO +U30 +Weather +,2013-04-06 16:50:00,
2013-04-06 12:51:00,44.9,16.4,-100.00,North,-999,-999.0,-999.0,31,-99.99,,,-99.99,842.0,HOBO +U30 +Weather +,2013-04-06 16:51:00,
2013-04-06 12:52:00,44.8,17.0,-100.00,North,-999,-999.0,-999.0,32,-99.99,,,-99.99,837.0,HOBO +U30 +Weather +,2013-04-06 16:52:00,
2013-04-06 12:53:00,44.7,16.5,-100.00,North,-999,-999.0,-999.0,31,-99.99,,,-99.99,837.0,HOBO +U30 +Weather +,2013-04-06 16:53:00,
2013-04-06 12:54:00,45.1,17.1,-100.00,North,-999,-999.0,-999.0,32,-99.99,,,-99.99,837.0,HOBO +U30 +Weather +,2013-04-06 16:54:00,
2013-04-06 12:55:00,44.9,16.1,-100.00,North,-999,-999.0,-999.0,31,-99.99,,,-99.99,837.0,HOBO +U30 +Weather +,2013-04-06 16:55:00,
2013-04-06 12:56:00,45.0,17.1,-100.00,North,-999,-999.0,-999.0,32,-99.99,,,-99.99,837.0,HOBO +U30 +Weather +,2013-04-06 16:56:00,
2013-04-06 12:57:00,45.6,17.0,-100.00,North,-999,-999.0,-999.0,31,-99.99,,,-99.99,834.0,HOBO +U30 +Weather +,2013-04-06 16:57:00,
2013-04-06 12:58:00,45.5,16.2,-100.00,North,-999,-999.0,-999.0,30,-99.99,,,-99.99,836.0,HOBO +U30 +Weather +,2013-04-06 16:58:00,
2013-04-06 12:59:00,45.3,15.9,-100.00,North,-999,-999.0,-999.0,30,-99.99,,,-99.99,837.0,HOBO +U30 +Weather +,2013-04-06 16:59:00,
2013-04-06 13:00:00,44.6,15.0,-100.00,North,-999,-999.0,-999.0,29,-99.99,,,-99.99,834.0,HOBO +U30 +Weather +,2013-04-06 17:00:00,
2013-04-06 13:01:00,44.8,15.3,-100.00,North,-999,-999.0,-999.0,30,-99.99,,,-99.99,841.0,HOBO +U30 +Weather +,2013-04-06 17:01:00,
2013-04-06 13:02:00,44.6,15.5,-100.00,North,-999,-999.0,-999.0,30,-99.99,,,-99.99,837.0,HOBO +U30 +Weather +,2013-04-06 17:02:00,
2013-04-06 13:03:00,45.3,16.1,-100.00,North,-999,-999.0,-999.0,30,-99.99,,,-99.99,837.0,HOBO +U30 +Weather +,2013-04-06 17:03:00,
2013-04-06 13:04:00,45.4,16.0,-100.00,North,-999,-999.0,-999.0,30,-99.99,,,-99.99,838.0,HOBO +U30 +Weather +,2013-04-06 17:04:00,
2013-04-06 13:05:00,45.4,15.8,-100.00,North,-999,-999.0,-999.0,30,-99.99,,,-99.99,836.0,HOBO +U30 +Weather +,2013-04-06 17:05:00,
2013-04-06 13:06:00,44.7,14.8,-100.00,North,-999,-999.0,-999.0,29,-99.99,,,-99.99,837.0,HOBO +U30 +Weather +,2013-04-06 17:06:00,
2013-04-06 13:07:00,44.4,15.1,-100.00,North,-999,-999.0,-999.0,30,-99.99,,,-99.99,837.0,HOBO +U30 +Weather +,2013-04-06 17:07:00,
2013-04-06 13:08:00,44.5,15.2,-100.00,North,-999,-999.0,-999.0,30,-99.99,,,-99.99,834.0,HOBO +U30 +Weather +,2013-04-06 17:08:00,
2013-04-06 13:09:00,44.1,14.4,-100.00,North,-999,-999.0,-999.0,29,-99.99,,,-99.99,833.0,HOBO +U30 +Weather +,2013-04-06 17:09:00,
2013-04-06 13:10:00,44.0,14.9,-100.00,North,-999,-999.0,-999.0,30,-99.99,,,-99.99,833.0,HOBO +U30 +Weather +,2013-04-06 17:10:00,
2013-04-06 13:11:00,44.6,15.3,-100.00,North,-999,-999.0,-999.0,30,-99.99,,,-99.99,831.0,HOBO +U30 +Weather +,2013-04-06 17:11:00,
2013-04-06 13:12:00,44.7,15.1,-100.00,North,-999,-999.0,-999.0,29,-99.99,,,-99.99,828.0,HOBO +U30 +Weather +,2013-04-06 17:12:00,
2013-04-06 13:13:00,44.5,15.0,-100.00,North,-999,-999.0,-999.0,29,-99.99,,,-99.99,828.0,HOBO +U30 +Weather +,2013-04-06 17:13:00,
2013-04-06 13:14:00,45.1,16.2,-100.00,North,-999,-999.0,-999.0,30,-99.99,,,-99.99,831.0,HOBO +U30 +Weather +,2013-04-06 17:14:00,
2013-04-06 13:15:00,45.8,16.1,-100.00,North,-999,-999.0,-999.0,29,-99.99,,,-99.99,831.0,HOBO +U30 +Weather +,2013-04-06 17:15:00,
2013-04-06 13:16:00,46.0,15.7,-100.00,North,-999,-999.0,-999.0,29,-99.99,,,-99.99,826.0,HOBO +U30 +Weather +,2013-04-06 17:16:00,
2013-04-06 13:17:00,45.8,15.8,-100.00,North,-999,-999.0,-999.0,29,-99.99,,,-99.99,826.0,HOBO +U30 +Weather +,2013-04-06 17:17:00,
2013-04-06 13:18:00,45.5,15.2,-100.00,North,-999,-999.0,-999.0,29,-99.99,,,-99.99,826.0,HOBO +U30 +Weather +,2013-04-06 17:18:00,
2013-04-06 13:19:00,45.5,15.6,-100.00,North,-999,-999.0,-999.0,29,-99.99,,,-99.99,823.0,HOBO +U30 +Weather +,2013-04-06 17:19:00,
2013-04-06 13:20:00,45.7,15.6,-100.00,North,-999,-999.0,-999.0,29,-99.99,,,-99.99,831.0,HOBO +U30 +Weather +,2013-04-06 17:20:00,
2013-04-06 13:21:00,46.0,16.0,-100.00,North,-999,-999.0,-999.0,29,-99.99,,,-99.99,823.0,HOBO +U30 +Weather +,2013-04-06 17:21:00,
2013-04-06 13:22:00,46.1,15.8,-100.00,North,-999,-999.0,-999.0,29,-99.99,,,-99.99,822.0,HOBO +U30 +Weather +,2013-04-06 17:22:00,
2013-04-06 13:23:00,46.0,15.7,-100.00,North,-999,-999.0,-999.0,29,-99.99,,,-99.99,821.0,HOBO +U30 +Weather +,2013-04-06 17:23:00,
2013-04-06 13:24:00,46.1,16.1,-100.00,North,-999,-999.0,-999.0,29,-99.99,,,-99.99,822.0,HOBO +U30 +Weather +,2013-04-06 17:24:00,
2013-04-06 13:25:00,46.2,16.4,-100.00,North,-999,-999.0,-999.0,29,-99.99,,,-99.99,823.0,HOBO +U30 +Weather +,2013-04-06 17:25:00,
2013-04-06 13:26:00,45.8,16.0,-100.00,North,-999,-999.0,-999.0,29,-99.99,,,-99.99,819.0,HOBO +U30 +Weather +,2013-04-06 17:26:00,
2013-04-06 13:27:00,45.9,15.8,-100.00,North,-999,-999.0,-999.0,29,-99.99,,,-99.99,823.0,HOBO +U30 +Weather +,2013-04-06 17:27:00,
2013-04-06 13:28:00,45.4,15.5,-100.00,North,-999,-999.0,-999.0,29,-99.99,,,-99.99,819.0,HOBO +U30 +Weather +,2013-04-06 17:28:00,
2013-04-06 13:29:00,45.6,15.9,-100.00,North,-999,-999.0,-999.0,29,-99.99,,,-99.99,817.0,HOBO +U30 +Weather +,2013-04-06 17:29:00,
2013-04-06 13:30:00,45.0,14.6,-100.00,North,-999,-999.0,-999.0,28,-99.99,,,-99.99,816.0,HOBO +U30 +Weather +,2013-04-06 17:30:00,
2013-04-06 13:31:00,45.7,16.9,-100.00,North,-999,-999.0,-999.0,31,-99.99,,,-99.99,819.0,HOBO +U30 +Weather +,2013-04-06 17:31:00,
2013-04-06 13:32:00,46.3,16.3,-100.00,North,-999,-999.0,-999.0,29,-99.99,,,-99.99,816.0,HOBO +U30 +Weather +,2013-04-06 17:32:00,
2013-04-06 13:33:00,46.0,15.8,-100.00,North,-999,-999.0,-999.0,29,-99.99,,,-99.99,814.0,HOBO +U30 +Weather +,2013-04-06 17:33:00,
2013-04-06 13:34:00,45.8,15.7,-100.00,North,-999,-999.0,-999.0,29,-99.99,,,-99.99,814.0,HOBO +U30 +Weather +,2013-04-06 17:34:00,
2013-04-06 13:35:00,45.6,15.9,-100.00,North,-999,-999.0,-999.0,29,-99.99,,,-99.99,809.0,HOBO +U30 +Weather +,2013-04-06 17:35:00,
2013-04-06 13:36:00,45.4,15.4,-100.00,North,-999,-999.0,-999.0,29,-99.99,,,-99.99,812.0,HOBO +U30 +Weather +,2013-04-06 17:36:00,
2013-04-06 13:37:00,44.9,14.8,-100.00,North,-999,-999.0,-999.0,29,-99.99,,,-99.99,807.0,HOBO +U30 +Weather +,2013-04-06 17:37:00,
2013-04-06 13:38:00,45.0,15.9,-100.00,North,-999,-999.0,-999.0,30,-99.99,,,-99.99,809.0,HOBO +U30 +Weather +,2013-04-06 17:38:00,
2013-04-06 13:39:00,45.6,15.7,-100.00,North,-999,-999.0,-999.0,29,-99.99,,,-99.99,811.0,HOBO +U30 +Weather +,2013-04-06 17:39:00,
2013-04-06 13:40:00,46.0,15.8,-100.00,North,-999,-999.0,-999.0,29,-99.99,,,-99.99,807.0,HOBO +U30 +Weather +,2013-04-06 17:40:00,
2013-04-06 13:41:00,45.8,16.1,-100.00,North,-999,-999.0,-999.0,29,-99.99,,,-99.99,804.0,HOBO +U30 +Weather +,2013-04-06 17:41:00,
2013-04-06 13:42:00,46.5,16.3,-100.00,North,-999,-999.0,-999.0,29,-99.99,,,-99.99,808.0,HOBO +U30 +Weather +,2013-04-06 17:42:00,
2013-04-06 13:43:00,47.1,17.7,-100.00,North,-999,-999.0,-999.0,30,-99.99,,,-99.99,804.0,HOBO +U30 +Weather +,2013-04-06 17:43:00,
2013-04-06 13:44:00,47.6,17.3,-100.00,North,-999,-999.0,-999.0,29,-99.99,,,-99.99,807.0,HOBO +U30 +Weather +,2013-04-06 17:44:00,
2013-04-06 13:45:00,47.7,16.9,-100.00,North,-999,-999.0,-999.0,28,-99.99,,,-99.99,803.0,HOBO +U30 +Weather +,2013-04-06 17:45:00,
2013-04-06 13:46:00,47.3,17.0,-100.00,North,-999,-999.0,-999.0,29,-99.99,,,-99.99,801.0,HOBO +U30 +Weather +,2013-04-06 17:46:00,
2013-04-06 13:47:00,46.8,16.4,-100.00,North,-999,-999.0,-999.0,29,-99.99,,,-99.99,798.0,HOBO +U30 +Weather +,2013-04-06 17:47:00,
2013-04-06 13:48:00,47.0,16.8,-100.00,North,-999,-999.0,-999.0,29,-99.99,,,-99.99,793.0,HOBO +U30 +Weather +,2013-04-06 17:48:00,
2013-04-06 13:49:00,47.0,16.6,-100.00,North,-999,-999.0,-999.0,29,-99.99,,,-99.99,794.0,HOBO +U30 +Weather +,2013-04-06 17:49:00,
2013-04-06 13:50:00,47.0,16.6,-100.00,North,-999,-999.0,-999.0,29,-99.99,,,-99.99,796.0,HOBO +U30 +Weather +,2013-04-06 17:50:00,
2013-04-06 13:51:00,47.1,16.8,-100.00,North,-999,-999.0,-999.0,29,-99.99,,,-99.99,792.0,HOBO +U30 +Weather +,2013-04-06 17:51:00,
2013-04-06 13:52:00,47.3,17.1,-100.00,North,-999,-999.0,-999.0,29,-99.99,,,-99.99,793.0,HOBO +U30 +Weather +,2013-04-06 17:52:00,
2013-04-06 13:53:00,46.9,15.9,-100.00,North,-999,-999.0,-999.0,28,-99.99,,,-99.99,791.0,HOBO +U30 +Weather +,2013-04-06 17:53:00,
2013-04-06 13:54:00,46.7,16.0,-100.00,North,-999,-999.0,-999.0,28,-99.99,,,-99.99,791.0,HOBO +U30 +Weather +,2013-04-06 17:54:00,
2013-04-06 13:55:00,47.2,16.7,-100.00,North,-999,-999.0,-999.0,29,-99.99,,,-99.99,791.0,HOBO +U30 +Weather +,2013-04-06 17:55:00,
2013-04-06 13:56:00,46.4,15.6,-100.00,North,-999,-999.0,-999.0,28,-99.99,,,-99.99,788.0,HOBO +U30 +Weather +,2013-04-06 17:56:00,
2013-04-06 13:57:00,45.9,15.2,-100.00,North,-999,-999.0,-999.0,28,-99.99,,,-99.99,788.0,HOBO +U30 +Weather +,2013-04-06 17:57:00,
2013-04-06 13:58:00,45.1,14.4,-100.00,North,-999,-999.0,-999.0,28,-99.99,,,-99.99,786.0,HOBO +U30 +Weather +,2013-04-06 17:58:00,
2013-04-06 13:59:00,45.0,14.6,-100.00,North,-999,-999.0,-999.0,28,-99.99,,,-99.99,786.0,HOBO +U30 +Weather +,2013-04-06 17:59:00,
2013-04-06 14:00:00,45.4,14.8,-100.00,North,-999,-999.0,-999.0,28,-99.99,,,-99.99,782.0,HOBO +U30 +Weather +,2013-04-06 18:00:00,
2013-04-06 14:01:00,45.6,15.8,-100.00,North,-999,-999.0,-999.0,29,-99.99,,,-99.99,779.0,HOBO +U30 +Weather +,2013-04-06 18:01:00,
2013-04-06 14:02:00,46.1,15.4,-100.00,North,-999,-999.0,-999.0,28,-99.99,,,-99.99,777.0,HOBO +U30 +Weather +,2013-04-06 18:02:00,
2013-04-06 14:03:00,46.4,16.1,-100.00,North,-999,-999.0,-999.0,29,-99.99,,,-99.99,779.0,HOBO +U30 +Weather +,2013-04-06 18:03:00,
2013-04-06 14:04:00,46.7,16.4,-100.00,North,-999,-999.0,-999.0,29,-99.99,,,-99.99,774.0,HOBO +U30 +Weather +,2013-04-06 18:04:00,
2013-04-06 14:05:00,47.2,16.8,-100.00,North,-999,-999.0,-999.0,29,-99.99,,,-99.99,772.0,HOBO +U30 +Weather +,2013-04-06 18:05:00,
2013-04-06 14:06:00,46.7,15.4,-100.00,North,-999,-999.0,-999.0,28,-99.99,,,-99.99,772.0,HOBO +U30 +Weather +,2013-04-06 18:06:00,
2013-04-06 14:07:00,46.8,16.1,-100.00,North,-999,-999.0,-999.0,28,-99.99,,,-99.99,767.0,HOBO +U30 +Weather +,2013-04-06 18:07:00,
2013-04-06 14:08:00,47.7,16.7,-100.00,North,-999,-999.0,-999.0,28,-99.99,,,-99.99,773.0,HOBO +U30 +Weather +,2013-04-06 18:08:00,
2013-04-06 14:09:00,47.6,16.1,-100.00,North,-999,-999.0,-999.0,27,-99.99,,,-99.99,769.0,HOBO +U30 +Weather +,2013-04-06 18:09:00,
2013-04-06 14:10:00,47.4,16.6,-100.00,North,-999,-999.0,-999.0,28,-99.99,,,-99.99,766.0,HOBO +U30 +Weather +,2013-04-06 18:10:00,
2013-04-06 14:11:00,47.3,15.6,-100.00,North,-999,-999.0,-999.0,27,-99.99,,,-99.99,763.0,HOBO +U30 +Weather +,2013-04-06 18:11:00,
2013-04-06 14:12:00,46.9,14.8,-100.00,North,-999,-999.0,-999.0,27,-99.99,,,-99.99,763.0,HOBO +U30 +Weather +,2013-04-06 18:12:00,
2013-04-06 14:13:00,45.8,14.6,-100.00,North,-999,-999.0,-999.0,28,-99.99,,,-99.99,761.0,HOBO +U30 +Weather +,2013-04-06 18:13:00,
2013-04-06 14:14:00,46.1,14.8,-100.00,North,-999,-999.0,-999.0,28,-99.99,,,-99.99,761.0,HOBO +U30 +Weather +,2013-04-06 18:14:00,
2013-04-06 14:15:00,46.5,15.1,-100.00,North,-999,-999.0,-999.0,27,-99.99,,,-99.99,759.0,HOBO +U30 +Weather +,2013-04-06 18:15:00,
2013-04-06 14:16:00,46.7,15.7,-100.00,North,-999,-999.0,-999.0,28,-99.99,,,-99.99,759.0,HOBO +U30 +Weather +,2013-04-06 18:16:00,
2013-04-06 14:17:00,47.4,16.1,-100.00,North,-999,-999.0,-999.0,28,-99.99,,,-99.99,759.0,HOBO +U30 +Weather +,2013-04-06 18:17:00,
2013-04-06 14:18:00,48.2,16.1,-100.00,North,-999,-999.0,-999.0,27,-99.99,,,-99.99,756.0,HOBO +U30 +Weather +,2013-04-06 18:18:00,
2013-04-06 14:19:00,47.8,15.7,-100.00,North,-999,-999.0,-999.0,27,-99.99,,,-99.99,754.0,HOBO +U30 +Weather +,2013-04-06 18:19:00,
2013-04-06 14:20:00,47.3,14.7,-100.00,North,-999,-999.0,-999.0,26,-99.99,,,-99.99,753.0,HOBO +U30 +Weather +,2013-04-06 18:20:00,
2013-04-06 14:21:00,46.1,13.6,-100.00,North,-999,-999.0,-999.0,26,-99.99,,,-99.99,752.0,HOBO +U30 +Weather +,2013-04-06 18:21:00,
2013-04-06 14:22:00,45.6,13.2,-100.00,North,-999,-999.0,-999.0,26,-99.99,,,-99.99,749.0,HOBO +U30 +Weather +,2013-04-06 18:22:00,
2013-04-06 14:23:00,45.4,13.0,-100.00,North,-999,-999.0,-999.0,26,-99.99,,,-99.99,747.0,HOBO +U30 +Weather +,2013-04-06 18:23:00,
2013-04-06 14:24:00,45.5,13.9,-100.00,North,-999,-999.0,-999.0,27,-99.99,,,-99.99,744.0,HOBO +U30 +Weather +,2013-04-06 18:24:00,
2013-04-06 14:25:00,45.5,13.1,-100.00,North,-999,-999.0,-999.0,26,-99.99,,,-99.99,744.0,HOBO +U30 +Weather +,2013-04-06 18:25:00,
2013-04-06 14:26:00,45.6,13.1,-100.00,North,-999,-999.0,-999.0,26,-99.99,,,-99.99,742.0,HOBO +U30 +Weather +,2013-04-06 18:26:00,
2013-04-06 14:27:00,45.8,13.5,-100.00,North,-999,-999.0,-999.0,26,-99.99,,,-99.99,742.0,HOBO +U30 +Weather +,2013-04-06 18:27:00,
2013-04-06 14:28:00,46.1,13.8,-100.00,North,-999,-999.0,-999.0,26,-99.99,,,-99.99,737.0,HOBO +U30 +Weather +,2013-04-06 18:28:00,
2013-04-06 14:29:00,46.3,14.1,-100.00,North,-999,-999.0,-999.0,26,-99.99,,,-99.99,737.0,HOBO +U30 +Weather +,2013-04-06 18:29:00,
2013-04-06 14:30:00,46.7,14.1,-100.00,North,-999,-999.0,-999.0,26,-99.99,,,-99.99,733.0,HOBO +U30 +Weather +,2013-04-06 18:30:00,
2013-04-06 14:31:00,46.9,14.7,-100.00,North,-999,-999.0,-999.0,27,-99.99,,,-99.99,732.0,HOBO +U30 +Weather +,2013-04-06 18:31:00,
2013-04-06 14:32:00,47.0,14.5,-100.00,North,-999,-999.0,-999.0,26,-99.99,,,-99.99,729.0,HOBO +U30 +Weather +,2013-04-06 18:32:00,
2013-04-06 14:33:00,46.8,14.1,-100.00,North,-999,-999.0,-999.0,26,-99.99,,,-99.99,729.0,HOBO +U30 +Weather +,2013-04-06 18:33:00,
2013-04-06 14:34:00,46.9,14.3,-100.00,North,-999,-999.0,-999.0,26,-99.99,,,-99.99,727.0,HOBO +U30 +Weather +,2013-04-06 18:34:00,
2013-04-06 14:35:00,46.9,14.3,-100.00,North,-999,-999.0,-999.0,26,-99.99,,,-99.99,727.0,HOBO +U30 +Weather +,2013-04-06 18:35:00,
2013-04-06 14:36:00,47.1,14.8,-100.00,North,-999,-999.0,-999.0,26,-99.99,,,-99.99,723.0,HOBO +U30 +Weather +,2013-04-06 18:36:00,
2013-04-06 14:37:00,47.5,14.9,-100.00,North,-999,-999.0,-999.0,26,-99.99,,,-99.99,722.0,HOBO +U30 +Weather +,2013-04-06 18:37:00,
2013-04-06 14:38:00,47.8,15.2,-100.00,North,-999,-999.0,-999.0,26,-99.99,,,-99.99,721.0,HOBO +U30 +Weather +,2013-04-06 18:38:00,
2013-04-06 14:39:00,48.1,16.3,-100.00,North,-999,-999.0,-999.0,27,-99.99,,,-99.99,717.0,HOBO +U30 +Weather +,2013-04-06 18:39:00,
2013-04-06 14:40:00,48.6,16.2,-100.00,North,-999,-999.0,-999.0,27,-99.99,,,-99.99,717.0,HOBO +U30 +Weather +,2013-04-06 18:40:00,
2013-04-06 14:41:00,49.0,15.8,-100.00,North,-999,-999.0,-999.0,26,-99.99,,,-99.99,712.0,HOBO +U30 +Weather +,2013-04-06 18:41:00,
2013-04-06 14:42:00,48.4,15.1,-100.00,North,-999,-999.0,-999.0,26,-99.99,,,-99.99,712.0,HOBO +U30 +Weather +,2013-04-06 18:42:00,
2013-04-06 14:43:00,48.3,15.6,-100.00,North,-999,-999.0,-999.0,26,-99.99,,,-99.99,711.0,HOBO +U30 +Weather +,2013-04-06 18:43:00,
2013-04-06 14:44:00,48.4,14.9,-100.00,North,-999,-999.0,-999.0,25,-99.99,,,-99.99,709.0,HOBO +U30 +Weather +,2013-04-06 18:44:00,
2013-04-06 14:45:00,47.9,15.3,-100.00,North,-999,-999.0,-999.0,26,-99.99,,,-99.99,707.0,HOBO +U30 +Weather +,2013-04-06 18:45:00,
2013-04-06 14:46:00,47.8,14.9,-100.00,North,-999,-999.0,-999.0,26,-99.99,,,-99.99,706.0,HOBO +U30 +Weather +,2013-04-06 18:46:00,
2013-04-06 14:47:00,48.3,15.5,-100.00,North,-999,-999.0,-999.0,26,-99.99,,,-99.99,703.0,HOBO +U30 +Weather +,2013-04-06 18:47:00,
2013-04-06 14:48:00,48.3,15.3,-100.00,North,-999,-999.0,-999.0,26,-99.99,,,-99.99,703.0,HOBO +U30 +Weather +,2013-04-06 18:48:00,
2013-04-06 14:49:00,47.5,14.7,-100.00,North,-999,-999.0,-999.0,26,-99.99,,,-99.99,701.0,HOBO +U30 +Weather +,2013-04-06 18:49:00,
2013-04-06 14:50:00,47.1,14.9,-100.00,North,-999,-999.0,-999.0,27,-99.99,,,-99.99,698.0,HOBO +U30 +Weather +,2013-04-06 18:50:00,
2013-04-06 14:51:00,47.2,14.7,-100.00,North,-999,-999.0,-999.0,26,-99.99,,,-99.99,697.0,HOBO +U30 +Weather +,2013-04-06 18:51:00,
2013-04-06 14:52:00,47.2,14.5,-100.00,North,-999,-999.0,-999.0,26,-99.99,,,-99.99,694.0,HOBO +U30 +Weather +,2013-04-06 18:52:00,
2013-04-06 14:53:00,47.0,14.9,-100.00,North,-999,-999.0,-999.0,27,-99.99,,,-99.99,693.0,HOBO +U30 +Weather +,2013-04-06 18:53:00,
2013-04-06 14:54:00,47.0,14.4,-100.00,North,-999,-999.0,-999.0,26,-99.99,,,-99.99,689.0,HOBO +U30 +Weather +,2013-04-06 18:54:00,
2013-04-06 14:55:00,47.2,14.9,-100.00,North,-999,-999.0,-999.0,26,-99.99,,,-99.99,688.0,HOBO +U30 +Weather +,2013-04-06 18:55:00,
2013-04-06 14:56:00,47.6,16.2,-100.00,North,-999,-999.0,-999.0,28,-99.99,,,-99.99,686.0,HOBO +U30 +Weather +,2013-04-06 18:56:00,
2013-04-06 14:57:00,47.5,14.9,-100.00,North,-999,-999.0,-999.0,26,-99.99,,,-99.99,683.0,HOBO +U30 +Weather +,2013-04-06 18:57:00,
2013-04-06 14:58:00,47.5,15.8,-100.00,North,-999,-999.0,-999.0,27,-99.99,,,-99.99,682.0,HOBO +U30 +Weather +,2013-04-06 18:58:00,
2013-04-06 14:59:00,47.8,15.2,-100.00,North,-999,-999.0,-999.0,26,-99.99,,,-99.99,678.0,HOBO +U30 +Weather +,2013-04-06 18:59:00,
2013-04-06 15:00:00,48.6,15.9,-100.00,North,-999,-999.0,-999.0,26,-99.99,,,-99.99,678.0,HOBO +U30 +Weather +,2013-04-06 19:00:00,
2013-04-06 15:01:00,48.8,16.6,-100.00,North,-999,-999.0,-999.0,27,-99.99,,,-99.99,676.0,HOBO +U30 +Weather +,2013-04-06 19:01:00,
2013-04-06 15:02:00,48.8,16.1,-100.00,North,-999,-999.0,-999.0,26,-99.99,,,-99.99,672.0,HOBO +U30 +Weather +,2013-04-06 19:02:00,
2013-04-06 15:03:00,48.1,15.4,-100.00,North,-999,-999.0,-999.0,26,-99.99,,,-99.99,671.0,HOBO +U30 +Weather +,2013-04-06 19:03:00,
2013-04-06 15:04:00,47.5,14.7,-100.00,North,-999,-999.0,-999.0,26,-99.99,,,-99.99,666.0,HOBO +U30 +Weather +,2013-04-06 19:04:00,
2013-04-06 15:05:00,47.5,14.9,-100.00,North,-999,-999.0,-999.0,26,-99.99,,,-99.99,666.0,HOBO +U30 +Weather +,2013-04-06 19:05:00,
2013-04-06 15:06:00,47.7,15.4,-100.00,North,-999,-999.0,-999.0,27,-99.99,,,-99.99,662.0,HOBO +U30 +Weather +,2013-04-06 19:06:00,
2013-04-06 15:07:00,47.6,15.7,-100.00,North,-999,-999.0,-999.0,27,-99.99,,,-99.99,661.0,HOBO +U30 +Weather +,2013-04-06 19:07:00,
2013-04-06 15:08:00,47.6,15.5,-100.00,North,-999,-999.0,-999.0,27,-99.99,,,-99.99,657.0,HOBO +U30 +Weather +,2013-04-06 19:08:00,
2013-04-06 15:09:00,48.1,16.5,-100.00,North,-999,-999.0,-999.0,28,-99.99,,,-99.99,656.0,HOBO +U30 +Weather +,2013-04-06 19:09:00,
2013-04-06 15:10:00,48.1,15.4,-100.00,North,-999,-999.0,-999.0,26,-99.99,,,-99.99,654.0,HOBO +U30 +Weather +,2013-04-06 19:10:00,
2013-04-06 15:11:00,47.9,15.3,-100.00,North,-999,-999.0,-999.0,26,-99.99,,,-99.99,654.0,HOBO +U30 +Weather +,2013-04-06 19:11:00,
2013-04-06 15:12:00,47.8,14.9,-100.00,North,-999,-999.0,-999.0,26,-99.99,,,-99.99,652.0,HOBO +U30 +Weather +,2013-04-06 19:12:00,
2013-04-06 15:13:00,47.4,14.5,-100.00,North,-999,-999.0,-999.0,26,-99.99,,,-99.99,649.0,HOBO +U30 +Weather +,2013-04-06 19:13:00,
2013-04-06 15:14:00,47.4,14.2,-100.00,North,-999,-999.0,-999.0,25,-99.99,,,-99.99,647.0,HOBO +U30 +Weather +,2013-04-06 19:14:00,
2013-04-06 15:15:00,47.8,15.5,-100.00,North,-999,-999.0,-999.0,27,-99.99,,,-99.99,648.0,HOBO +U30 +Weather +,2013-04-06 19:15:00,
2013-04-06 15:16:00,48.4,16.0,-100.00,North,-999,-999.0,-999.0,27,-99.99,,,-99.99,641.0,HOBO +U30 +Weather +,2013-04-06 19:16:00,
2013-04-06 15:17:00,48.9,15.6,-100.00,North,-999,-999.0,-999.0,26,-99.99,,,-99.99,641.0,HOBO +U30 +Weather +,2013-04-06 19:17:00,
2013-04-06 15:18:00,48.8,14.7,-100.00,North,-999,-999.0,-999.0,25,-99.99,,,-99.99,637.0,HOBO +U30 +Weather +,2013-04-06 19:18:00,
2013-04-06 15:19:00,48.7,15.8,-100.00,North,-999,-999.0,-999.0,26,-99.99,,,-99.99,634.0,HOBO +U30 +Weather +,2013-04-06 19:19:00,
2013-04-06 15:20:00,49.1,15.8,-100.00,North,-999,-999.0,-999.0,26,-99.99,,,-99.99,632.0,HOBO +U30 +Weather +,2013-04-06 19:20:00,
2013-04-06 15:21:00,49.2,15.8,-100.00,North,-999,-999.0,-999.0,25,-99.99,,,-99.99,631.0,HOBO +U30 +Weather +,2013-04-06 19:21:00,
2013-04-06 15:22:00,49.0,15.0,-100.00,North,-999,-999.0,-999.0,25,-99.99,,,-99.99,628.0,HOBO +U30 +Weather +,2013-04-06 19:22:00,
2013-04-06 15:23:00,48.5,15.0,-100.00,North,-999,-999.0,-999.0,25,-99.99,,,-99.99,626.0,HOBO +U30 +Weather +,2013-04-06 19:23:00,
2013-04-06 15:24:00,48.8,15.2,-100.00,North,-999,-999.0,-999.0,25,-99.99,,,-99.99,621.0,HOBO +U30 +Weather +,2013-04-06 19:24:00,
2013-04-06 15:25:00,48.8,15.8,-100.00,North,-999,-999.0,-999.0,26,-99.99,,,-99.99,621.0,HOBO +U30 +Weather +,2013-04-06 19:25:00,
2013-04-06 15:26:00,48.6,15.4,-100.00,North,-999,-999.0,-999.0,26,-99.99,,,-99.99,617.0,HOBO +U30 +Weather +,2013-04-06 19:26:00,
2013-04-06 15:27:00,48.6,15.4,-100.00,North,-999,-999.0,-999.0,26,-99.99,,,-99.99,614.0,HOBO +U30 +Weather +,2013-04-06 19:27:00,
2013-04-06 15:28:00,48.9,16.1,-100.00,North,-999,-999.0,-999.0,26,-99.99,,,-99.99,612.0,HOBO +U30 +Weather +,2013-04-06 19:28:00,
2013-04-06 15:29:00,48.8,15.4,-100.00,North,-999,-999.0,-999.0,26,-99.99,,,-99.99,612.0,HOBO +U30 +Weather +,2013-04-06 19:29:00,
2013-04-06 15:30:00,48.5,15.3,-100.00,North,-999,-999.0,-999.0,26,-99.99,,,-99.99,608.0,HOBO +U30 +Weather +,2013-04-06 19:30:00,
2013-04-06 15:31:00,48.1,14.8,-100.00,North,-999,-999.0,-999.0,25,-99.99,,,-99.99,607.0,HOBO +U30 +Weather +,2013-04-06 19:31:00,
2013-04-06 15:32:00,47.4,14.2,-100.00,North,-999,-999.0,-999.0,25,-99.99,,,-99.99,603.0,HOBO +U30 +Weather +,2013-04-06 19:32:00,
2013-04-06 15:33:00,47.4,14.6,-100.00,North,-999,-999.0,-999.0,26,-99.99,,,-99.99,599.0,HOBO +U30 +Weather +,2013-04-06 19:33:00,
2013-04-06 15:34:00,47.8,15.2,-100.00,North,-999,-999.0,-999.0,26,-99.99,,,-99.99,598.0,HOBO +U30 +Weather +,2013-04-06 19:34:00,
2013-04-06 15:35:00,47.9,14.7,-100.00,North,-999,-999.0,-999.0,26,-99.99,,,-99.99,593.0,HOBO +U30 +Weather +,2013-04-06 19:35:00,
2013-04-06 15:36:00,47.5,14.4,-100.00,North,-999,-999.0,-999.0,26,-99.99,,,-99.99,592.0,HOBO +U30 +Weather +,2013-04-06 19:36:00,
2013-04-06 15:37:00,47.8,15.2,-100.00,North,-999,-999.0,-999.0,26,-99.99,,,-99.99,589.0,HOBO +U30 +Weather +,2013-04-06 19:37:00,
2013-04-06 15:38:00,47.4,14.5,-100.00,North,-999,-999.0,-999.0,26,-99.99,,,-99.99,587.0,HOBO +U30 +Weather +,2013-04-06 19:38:00,
2013-04-06 15:39:00,47.6,14.6,-100.00,North,-999,-999.0,-999.0,26,-99.99,,,-99.99,584.0,HOBO +U30 +Weather +,2013-04-06 19:39:00,
2013-04-06 15:40:00,47.5,14.3,-100.00,North,-999,-999.0,-999.0,26,-99.99,,,-99.99,582.0,HOBO +U30 +Weather +,2013-04-06 19:40:00,
2013-04-06 15:41:00,47.7,14.8,-100.00,North,-999,-999.0,-999.0,26,-99.99,,,-99.99,579.0,HOBO +U30 +Weather +,2013-04-06 19:41:00,
2013-04-06 15:42:00,47.9,15.5,-100.00,North,-999,-999.0,-999.0,26,-99.99,,,-99.99,576.0,HOBO +U30 +Weather +,2013-04-06 19:42:00,
2013-04-06 15:44:00,48.4,15.1,-100.00,North,-999,-999.0,-999.0,26,-99.99,,,-99.99,571.0,HOBO +U30 +Weather +,2013-04-06 19:44:00,
2013-04-06 15:45:00,48.2,15.3,-100.00,North,-999,-999.0,-999.0,26,-99.99,,,-99.99,569.0,HOBO +U30 +Weather +,2013-04-06 19:45:00,
2013-04-06 15:46:00,48.1,15.4,-100.00,North,-999,-999.0,-999.0,26,-99.99,,,-99.99,567.0,HOBO +U30 +Weather +,2013-04-06 19:46:00,
2013-04-06 15:47:00,47.8,15.0,-100.00,North,-999,-999.0,-999.0,26,-99.99,,,-99.99,563.0,HOBO +U30 +Weather +,2013-04-06 19:47:00,
2013-04-06 15:48:00,47.7,15.6,-100.00,North,-999,-999.0,-999.0,27,-99.99,,,-99.99,561.0,HOBO +U30 +Weather +,2013-04-06 19:48:00,
2013-04-06 15:49:00,48.1,15.8,-100.00,North,-999,-999.0,-999.0,27,-99.99,,,-99.99,558.0,HOBO +U30 +Weather +,2013-04-06 19:49:00,
2013-04-06 15:50:00,48.5,16.4,-100.00,North,-999,-999.0,-999.0,27,-99.99,,,-99.99,557.0,HOBO +U30 +Weather +,2013-04-06 19:50:00,
2013-04-06 15:51:00,48.6,15.6,-100.00,North,-999,-999.0,-999.0,26,-99.99,,,-99.99,554.0,HOBO +U30 +Weather +,2013-04-06 19:51:00,
2013-04-06 15:52:00,48.4,15.2,-100.00,North,-999,-999.0,-999.0,26,-99.99,,,-99.99,551.0,HOBO +U30 +Weather +,2013-04-06 19:52:00,
2013-04-06 15:53:00,48.2,14.8,-100.00,North,-999,-999.0,-999.0,25,-99.99,,,-99.99,549.0,HOBO +U30 +Weather +,2013-04-06 19:53:00,
2013-04-06 15:54:00,47.9,15.2,-100.00,North,-999,-999.0,-999.0,26,-99.99,,,-99.99,546.0,HOBO +U30 +Weather +,2013-04-06 19:54:00,
2013-04-06 15:55:00,47.6,14.5,-100.00,North,-999,-999.0,-999.0,26,-99.99,,,-99.99,543.0,HOBO +U30 +Weather +,2013-04-06 19:55:00,
2013-04-06 15:56:00,48.0,15.5,-100.00,North,-999,-999.0,-999.0,26,-99.99,,,-99.99,541.0,HOBO +U30 +Weather +,2013-04-06 19:56:00,
2013-04-06 15:57:00,48.4,15.6,-100.00,North,-999,-999.0,-999.0,26,-99.99,,,-99.99,539.0,HOBO +U30 +Weather +,2013-04-06 19:57:00,
2013-04-06 15:58:00,48.6,16.1,-100.00,North,-999,-999.0,-999.0,26,-99.99,,,-99.99,536.0,HOBO +U30 +Weather +,2013-04-06 19:58:00,
2013-04-06 15:59:00,48.7,15.8,-100.00,North,-999,-999.0,-999.0,26,-99.99,,,-99.99,533.0,HOBO +U30 +Weather +,2013-04-06 19:59:00,
2013-04-06 16:00:00,48.0,14.4,-100.00,North,-999,-999.0,-999.0,25,-99.99,,,-99.99,531.0,HOBO +U30 +Weather +,2013-04-06 20:00:00,
2013-04-06 16:01:00,48.1,15.2,-100.00,North,-999,-999.0,-999.0,26,-99.99,,,-99.99,527.0,HOBO +U30 +Weather +,2013-04-06 20:01:00,
2013-04-06 16:02:00,48.1,14.9,-100.00,North,-999,-999.0,-999.0,26,-99.99,,,-99.99,523.0,HOBO +U30 +Weather +,2013-04-06 20:02:00,
2013-04-06 16:03:00,48.3,15.1,-100.00,North,-999,-999.0,-999.0,26,-99.99,,,-99.99,522.0,HOBO +U30 +Weather +,2013-04-06 20:03:00,
2013-04-06 16:04:00,48.4,14.7,-100.00,North,-999,-999.0,-999.0,25,-99.99,,,-99.99,518.0,HOBO +U30 +Weather +,2013-04-06 20:04:00,
2013-04-06 16:05:00,48.7,15.9,-100.00,North,-999,-999.0,-999.0,26,-99.99,,,-99.99,514.0,HOBO +U30 +Weather +,2013-04-06 20:05:00,
2013-04-06 16:06:00,48.9,15.7,-100.00,North,-999,-999.0,-999.0,26,-99.99,,,-99.99,513.0,HOBO +U30 +Weather +,2013-04-06 20:06:00,
2013-04-06 16:07:00,49.1,15.7,-100.00,North,-999,-999.0,-999.0,25,-99.99,,,-99.99,508.0,HOBO +U30 +Weather +,2013-04-06 20:07:00,
2013-04-06 16:08:00,49.1,15.4,-100.00,North,-999,-999.0,-999.0,25,-99.99,,,-99.99,508.0,HOBO +U30 +Weather +,2013-04-06 20:08:00,
2013-04-06 16:09:00,49.0,15.5,-100.00,North,-999,-999.0,-999.0,25,-99.99,,,-99.99,504.0,HOBO +U30 +Weather +,2013-04-06 20:09:00,
2013-04-06 16:10:00,48.2,16.0,-100.00,North,-999,-999.0,-999.0,27,-99.99,,,-99.99,502.0,HOBO +U30 +Weather +,2013-04-06 20:10:00,
2013-04-06 16:11:00,47.2,17.9,-100.00,North,-999,-999.0,-999.0,30,-99.99,,,-99.99,498.0,HOBO +U30 +Weather +,2013-04-06 20:11:00,
2013-04-06 16:12:00,46.9,19.3,-100.00,North,-999,-999.0,-999.0,33,-99.99,,,-99.99,497.0,HOBO +U30 +Weather +,2013-04-06 20:12:00,
2013-04-06 16:13:00,46.8,19.3,-100.00,North,-999,-999.0,-999.0,33,-99.99,,,-99.99,492.0,HOBO +U30 +Weather +,2013-04-06 20:13:00,
2013-04-06 16:14:00,47.0,19.9,-100.00,North,-999,-999.0,-999.0,33,-99.99,,,-99.99,489.0,HOBO +U30 +Weather +,2013-04-06 20:14:00,
2013-04-06 16:15:00,46.6,19.4,-100.00,North,-999,-999.0,-999.0,33,-99.99,,,-99.99,487.0,HOBO +U30 +Weather +,2013-04-06 20:15:00,
2013-04-06 16:16:00,46.1,19.2,-100.00,North,-999,-999.0,-999.0,33,-99.99,,,-99.99,484.0,HOBO +U30 +Weather +,2013-04-06 20:16:00,
2013-04-06 16:17:00,46.5,20.1,-100.00,North,-999,-999.0,-999.0,34,-99.99,,,-99.99,482.0,HOBO +U30 +Weather +,2013-04-06 20:17:00,
2013-04-06 16:18:00,47.0,20.6,-100.00,North,-999,-999.0,-999.0,34,-99.99,,,-99.99,477.0,HOBO +U30 +Weather +,2013-04-06 20:18:00,
2013-04-06 16:19:00,47.4,20.0,-100.00,North,-999,-999.0,-999.0,33,-99.99,,,-99.99,474.0,HOBO +U30 +Weather +,2013-04-06 20:19:00,
2013-04-06 16:20:00,47.6,19.8,-100.00,North,-999,-999.0,-999.0,32,-99.99,,,-99.99,471.0,HOBO +U30 +Weather +,2013-04-06 20:20:00,
2013-04-06 16:21:00,47.8,20.0,-100.00,North,-999,-999.0,-999.0,32,-99.99,,,-99.99,469.0,HOBO +U30 +Weather +,2013-04-06 20:21:00,
2013-04-06 16:22:00,47.3,19.7,-100.00,North,-999,-999.0,-999.0,33,-99.99,,,-99.99,466.0,HOBO +U30 +Weather +,2013-04-06 20:22:00,
2013-04-06 16:23:00,46.7,19.5,-100.00,North,-999,-999.0,-999.0,33,-99.99,,,-99.99,462.0,HOBO +U30 +Weather +,2013-04-06 20:23:00,
2013-04-06 16:24:00,46.5,19.0,-100.00,North,-999,-999.0,-999.0,33,-99.99,,,-99.99,458.0,HOBO +U30 +Weather +,2013-04-06 20:24:00,
2013-04-06 16:25:00,46.0,18.9,-100.00,North,-999,-999.0,-999.0,33,-99.99,,,-99.99,456.0,HOBO +U30 +Weather +,2013-04-06 20:25:00,
2013-04-06 16:26:00,45.9,19.0,-100.00,North,-999,-999.0,-999.0,33,-99.99,,,-99.99,452.0,HOBO +U30 +Weather +,2013-04-06 20:26:00,
2013-04-06 16:27:00,46.1,19.0,-100.00,North,-999,-999.0,-999.0,33,-99.99,,,-99.99,448.0,HOBO +U30 +Weather +,2013-04-06 20:27:00,
2013-04-06 16:28:00,46.4,19.7,-100.00,North,-999,-999.0,-999.0,34,-99.99,,,-99.99,444.0,HOBO +U30 +Weather +,2013-04-06 20:28:00,
2013-04-06 16:29:00,47.0,20.1,-100.00,North,-999,-999.0,-999.0,34,-99.99,,,-99.99,443.0,HOBO +U30 +Weather +,2013-04-06 20:29:00,
2013-04-06 16:30:00,47.6,19.8,-100.00,North,-999,-999.0,-999.0,32,-99.99,,,-99.99,438.0,HOBO +U30 +Weather +,2013-04-06 20:30:00,
2013-04-06 16:31:00,47.7,19.9,-100.00,North,-999,-999.0,-999.0,32,-99.99,,,-99.99,436.0,HOBO +U30 +Weather +,2013-04-06 20:31:00,
2013-04-06 16:32:00,48.0,20.5,-100.00,North,-999,-999.0,-999.0,33,-99.99,,,-99.99,433.0,HOBO +U30 +Weather +,2013-04-06 20:32:00,
2013-04-06 16:33:00,48.3,20.2,-100.00,North,-999,-999.0,-999.0,32,-99.99,,,-99.99,431.0,HOBO +U30 +Weather +,2013-04-06 20:33:00,
2013-04-06 16:34:00,48.5,20.4,-100.00,North,-999,-999.0,-999.0,32,-99.99,,,-99.99,427.0,HOBO +U30 +Weather +,2013-04-06 20:34:00,
2013-04-06 16:35:00,48.8,20.3,-100.00,North,-999,-999.0,-999.0,32,-99.99,,,-99.99,422.0,HOBO +U30 +Weather +,2013-04-06 20:35:00,
2013-04-06 16:36:00,48.8,20.4,-100.00,North,-999,-999.0,-999.0,32,-99.99,,,-99.99,419.0,HOBO +U30 +Weather +,2013-04-06 20:36:00,
2013-04-06 16:37:00,48.2,19.0,-100.00,North,-999,-999.0,-999.0,30,-99.99,,,-99.99,416.0,HOBO +U30 +Weather +,2013-04-06 20:37:00,
2013-04-06 16:38:00,47.4,19.1,-100.00,North,-999,-999.0,-999.0,32,-99.99,,,-99.99,413.0,HOBO +U30 +Weather +,2013-04-06 20:38:00,
2013-04-06 16:39:00,47.7,19.5,-100.00,North,-999,-999.0,-999.0,32,-99.99,,,-99.99,411.0,HOBO +U30 +Weather +,2013-04-06 20:39:00,
2013-04-06 16:40:00,48.0,19.3,-100.00,North,-999,-999.0,-999.0,31,-99.99,,,-99.99,408.0,HOBO +U30 +Weather +,2013-04-06 20:40:00,
2013-04-06 16:41:00,47.2,19.4,-100.00,North,-999,-999.0,-999.0,32,-99.99,,,-99.99,404.0,HOBO +U30 +Weather +,2013-04-06 20:41:00,
2013-04-06 16:42:00,46.8,19.4,-100.00,North,-999,-999.0,-999.0,33,-99.99,,,-99.99,402.0,HOBO +U30 +Weather +,2013-04-06 20:42:00,
2013-04-06 16:43:00,46.3,19.3,-100.00,North,-999,-999.0,-999.0,33,-99.99,,,-99.99,399.0,HOBO +U30 +Weather +,2013-04-06 20:43:00,
2013-04-06 16:44:00,46.7,20.1,-100.00,North,-999,-999.0,-999.0,34,-99.99,,,-99.99,397.0,HOBO +U30 +Weather +,2013-04-06 20:44:00,
2013-04-06 16:45:00,47.2,20.5,-100.00,North,-999,-999.0,-999.0,34,-99.99,,,-99.99,392.0,HOBO +U30 +Weather +,2013-04-06 20:45:00,
2013-04-06 16:46:00,47.7,20.7,-100.00,North,-999,-999.0,-999.0,33,-99.99,,,-99.99,389.0,HOBO +U30 +Weather +,2013-04-06 20:46:00,
2013-04-06 16:47:00,47.9,20.8,-100.00,North,-999,-999.0,-999.0,33,-99.99,,,-99.99,387.0,HOBO +U30 +Weather +,2013-04-06 20:47:00,
2013-04-06 16:48:00,48.1,20.8,-100.00,North,-999,-999.0,-999.0,33,-99.99,,,-99.99,382.0,HOBO +U30 +Weather +,2013-04-06 20:48:00,
2013-04-06 16:49:00,48.1,21.1,-100.00,North,-999,-999.0,-999.0,34,-99.99,,,-99.99,379.0,HOBO +U30 +Weather +,2013-04-06 20:49:00,
2013-04-06 16:50:00,48.5,21.4,-100.00,North,-999,-999.0,-999.0,34,-99.99,,,-99.99,376.0,HOBO +U30 +Weather +,2013-04-06 20:50:00,
2013-04-06 16:51:00,48.0,20.4,-100.00,North,-999,-999.0,-999.0,33,-99.99,,,-99.99,373.0,HOBO +U30 +Weather +,2013-04-06 20:51:00,
2013-04-06 16:52:00,47.3,20.8,-100.00,North,-999,-999.0,-999.0,34,-99.99,,,-99.99,369.0,HOBO +U30 +Weather +,2013-04-06 20:52:00,
2013-04-06 16:53:00,47.6,21.6,-100.00,North,-999,-999.0,-999.0,35,-99.99,,,-99.99,366.0,HOBO +U30 +Weather +,2013-04-06 20:53:00,
2013-04-06 16:54:00,47.6,20.7,-100.00,North,-999,-999.0,-999.0,34,-99.99,,,-99.99,363.0,HOBO +U30 +Weather +,2013-04-06 20:54:00,
2013-04-06 16:55:00,47.3,20.9,-100.00,North,-999,-999.0,-999.0,34,-99.99,,,-99.99,358.0,HOBO +U30 +Weather +,2013-04-06 20:55:00,
2013-04-06 16:56:00,47.4,21.0,-100.00,North,-999,-999.0,-999.0,34,-99.99,,,-99.99,356.0,HOBO +U30 +Weather +,2013-04-06 20:56:00,
2013-04-06 16:57:00,47.1,20.6,-100.00,North,-999,-999.0,-999.0,34,-99.99,,,-99.99,353.0,HOBO +U30 +Weather +,2013-04-06 20:57:00,
2013-04-06 16:58:00,46.9,20.9,-100.00,North,-999,-999.0,-999.0,35,-99.99,,,-99.99,349.0,HOBO +U30 +Weather +,2013-04-06 20:58:00,
2013-04-06 16:59:00,47.2,21.1,-100.00,North,-999,-999.0,-999.0,35,-99.99,,,-99.99,347.0,HOBO +U30 +Weather +,2013-04-06 20:59:00,
2013-04-06 17:00:00,47.5,21.5,-100.00,North,-999,-999.0,-999.0,35,-99.99,,,-99.99,343.0,HOBO +U30 +Weather +,2013-04-06 21:00:00,
2013-04-06 17:01:00,47.2,20.7,-100.00,North,-999,-999.0,-999.0,34,-99.99,,,-99.99,339.0,HOBO +U30 +Weather +,2013-04-06 21:01:00,
2013-04-06 17:02:00,46.7,20.7,-100.00,North,-999,-999.0,-999.0,35,-99.99,,,-99.99,338.0,HOBO +U30 +Weather +,2013-04-06 21:02:00,
2013-04-06 17:03:00,45.8,20.1,-100.00,North,-999,-999.0,-999.0,35,-99.99,,,-99.99,334.0,HOBO +U30 +Weather +,2013-04-06 21:03:00,
2013-04-06 17:04:00,45.6,20.4,-100.00,North,-999,-999.0,-999.0,36,-99.99,,,-99.99,331.0,HOBO +U30 +Weather +,2013-04-06 21:04:00,
2013-04-06 17:05:00,45.7,20.4,-100.00,North,-999,-999.0,-999.0,36,-99.99,,,-99.99,327.0,HOBO +U30 +Weather +,2013-04-06 21:05:00,
2013-04-06 17:06:00,45.7,20.4,-100.00,North,-999,-999.0,-999.0,36,-99.99,,,-99.99,323.0,HOBO +U30 +Weather +,2013-04-06 21:06:00,
2013-04-06 17:07:00,45.8,20.3,-100.00,North,-999,-999.0,-999.0,35,-99.99,,,-99.99,321.0,HOBO +U30 +Weather +,2013-04-06 21:07:00,
2013-04-06 17:08:00,46.0,20.6,-100.00,North,-999,-999.0,-999.0,36,-99.99,,,-99.99,318.0,HOBO +U30 +Weather +,2013-04-06 21:08:00,
2013-04-06 17:09:00,46.1,20.8,-100.00,North,-999,-999.0,-999.0,36,-99.99,,,-99.99,314.0,HOBO +U30 +Weather +,2013-04-06 21:09:00,
2013-04-06 17:10:00,46.1,20.8,-100.00,North,-999,-999.0,-999.0,36,-99.99,,,-99.99,311.0,HOBO +U30 +Weather +,2013-04-06 21:10:00,
2013-04-06 17:11:00,46.0,20.7,-100.00,North,-999,-999.0,-999.0,36,-99.99,,,-99.99,307.0,HOBO +U30 +Weather +,2013-04-06 21:11:00,
2013-04-06 17:12:00,46.1,21.0,-100.00,North,-999,-999.0,-999.0,36,-99.99,,,-99.99,303.0,HOBO +U30 +Weather +,2013-04-06 21:12:00,
2013-04-06 17:13:00,46.3,21.1,-100.00,North,-999,-999.0,-999.0,36,-99.99,,,-99.99,299.0,HOBO +U30 +Weather +,2013-04-06 21:13:00,
2013-04-06 17:14:00,46.4,21.1,-100.00,North,-999,-999.0,-999.0,36,-99.99,,,-99.99,296.0,HOBO +U30 +Weather +,2013-04-06 21:14:00,
2013-04-06 17:15:00,46.7,21.3,-100.00,North,-999,-999.0,-999.0,36,-99.99,,,-99.99,294.0,HOBO +U30 +Weather +,2013-04-06 21:15:00,
2013-04-06 17:16:00,46.8,21.2,-100.00,North,-999,-999.0,-999.0,35,-99.99,,,-99.99,289.0,HOBO +U30 +Weather +,2013-04-06 21:16:00,
2013-04-06 17:17:00,46.3,20.8,-100.00,North,-999,-999.0,-999.0,35,-99.99,,,-99.99,286.0,HOBO +U30 +Weather +,2013-04-06 21:17:00,
2013-04-06 17:18:00,46.3,21.1,-100.00,North,-999,-999.0,-999.0,36,-99.99,,,-99.99,283.0,HOBO +U30 +Weather +,2013-04-06 21:18:00,
2013-04-06 17:19:00,46.4,21.3,-100.00,North,-999,-999.0,-999.0,36,-99.99,,,-99.99,279.0,HOBO +U30 +Weather +,2013-04-06 21:19:00,
2013-04-06 17:20:00,46.3,21.0,-100.00,North,-999,-999.0,-999.0,36,-99.99,,,-99.99,276.0,HOBO +U30 +Weather +,2013-04-06 21:20:00,
2013-04-06 17:21:00,46.2,21.0,-100.00,North,-999,-999.0,-999.0,36,-99.99,,,-99.99,273.0,HOBO +U30 +Weather +,2013-04-06 21:21:00,
2013-04-06 17:22:00,46.1,20.8,-100.00,North,-999,-999.0,-999.0,36,-99.99,,,-99.99,269.0,HOBO +U30 +Weather +,2013-04-06 21:22:00,
2013-04-06 17:23:00,45.8,20.9,-100.00,North,-999,-999.0,-999.0,36,-99.99,,,-99.99,267.0,HOBO +U30 +Weather +,2013-04-06 21:23:00,
2013-04-06 17:24:00,45.5,20.5,-100.00,North,-999,-999.0,-999.0,36,-99.99,,,-99.99,261.0,HOBO +U30 +Weather +,2013-04-06 21:24:00,
2013-04-06 17:25:00,45.6,21.1,-100.00,North,-999,-999.0,-999.0,37,-99.99,,,-99.99,248.0,HOBO +U30 +Weather +,2013-04-06 21:25:00,
2013-04-06 17:26:00,45.6,20.5,-100.00,North,-999,-999.0,-999.0,36,-99.99,,,-99.99,257.0,HOBO +U30 +Weather +,2013-04-06 21:26:00,
2013-04-06 17:27:00,45.4,21.0,-100.00,North,-999,-999.0,-999.0,37,-99.99,,,-99.99,253.0,HOBO +U30 +Weather +,2013-04-06 21:27:00,
2013-04-06 17:28:00,45.0,20.6,-100.00,North,-999,-999.0,-999.0,37,-99.99,,,-99.99,249.0,HOBO +U30 +Weather +,2013-04-06 21:28:00,
2013-04-06 17:29:00,44.6,20.4,-100.00,North,-999,-999.0,-999.0,37,-99.99,,,-99.99,247.0,HOBO +U30 +Weather +,2013-04-06 21:29:00,
2013-04-06 17:30:00,44.3,20.0,-100.00,North,-999,-999.0,-999.0,37,-99.99,,,-99.99,242.0,HOBO +U30 +Weather +,2013-04-06 21:30:00,
2013-04-06 17:31:00,43.8,19.7,-100.00,North,-999,-999.0,-999.0,37,-99.99,,,-99.99,239.0,HOBO +U30 +Weather +,2013-04-06 21:31:00,
2013-04-06 17:32:00,43.7,19.4,-100.00,North,-999,-999.0,-999.0,37,-99.99,,,-99.99,237.0,HOBO +U30 +Weather +,2013-04-06 21:32:00,
2013-04-06 17:33:00,43.7,19.6,-100.00,North,-999,-999.0,-999.0,37,-99.99,,,-99.99,233.0,HOBO +U30 +Weather +,2013-04-06 21:33:00,
2013-04-06 17:34:00,44.0,20.0,-100.00,North,-999,-999.0,-999.0,38,-99.99,,,-99.99,229.0,HOBO +U30 +Weather +,2013-04-06 21:34:00,
2013-04-06 17:35:00,44.2,20.1,-100.00,North,-999,-999.0,-999.0,37,-99.99,,,-99.99,227.0,HOBO +U30 +Weather +,2013-04-06 21:35:00,
2013-04-06 17:36:00,44.0,19.5,-100.00,North,-999,-999.0,-999.0,37,-99.99,,,-99.99,223.0,HOBO +U30 +Weather +,2013-04-06 21:36:00,
2013-04-06 17:37:00,43.8,19.7,-100.00,North,-999,-999.0,-999.0,37,-99.99,,,-99.99,219.0,HOBO +U30 +Weather +,2013-04-06 21:37:00,
2013-04-06 17:38:00,43.5,19.3,-100.00,North,-999,-999.0,-999.0,37,-99.99,,,-99.99,217.0,HOBO +U30 +Weather +,2013-04-06 21:38:00,
2013-04-06 17:39:00,43.3,19.5,-100.00,North,-999,-999.0,-999.0,38,-99.99,,,-99.99,203.0,HOBO +U30 +Weather +,2013-04-06 21:39:00,
2013-04-06 17:40:00,43.2,19.3,-100.00,North,-999,-999.0,-999.0,38,-99.99,,,-99.99,104.0,HOBO +U30 +Weather +,2013-04-06 21:40:00,
2013-04-06 17:41:00,43.0,19.3,-100.00,North,-999,-999.0,-999.0,38,-99.99,,,-99.99,51.0,HOBO +U30 +Weather +,2013-04-06 21:41:00,
2013-04-06 17:42:00,42.9,19.3,-100.00,North,-999,-999.0,-999.0,38,-99.99,,,-99.99,48.0,HOBO +U30 +Weather +,2013-04-06 21:42:00,
2013-04-06 17:43:00,42.9,19.5,-100.00,North,-999,-999.0,-999.0,38,-99.99,,,-99.99,39.0,HOBO +U30 +Weather +,2013-04-06 21:43:00,
2013-04-06 17:44:00,42.9,19.5,-100.00,North,-999,-999.0,-999.0,38,-99.99,,,-99.99,34.0,HOBO +U30 +Weather +,2013-04-06 21:44:00,
2013-04-06 17:45:00,42.9,19.2,-100.00,North,-999,-999.0,-999.0,38,-99.99,,,-99.99,34.0,HOBO +U30 +Weather +,2013-04-06 21:45:00,
2013-04-06 17:46:00,42.8,19.3,-100.00,North,-999,-999.0,-999.0,38,-99.99,,,-99.99,34.0,HOBO +U30 +Weather +,2013-04-06 21:46:00,
2013-04-06 17:47:00,42.7,19.4,-100.00,North,-999,-999.0,-999.0,38,-99.99,,,-99.99,33.0,HOBO +U30 +Weather +,2013-04-06 21:47:00,
2013-04-06 17:48:00,42.7,19.7,-100.00,North,-999,-999.0,-999.0,39,-99.99,,,-99.99,32.0,HOBO +U30 +Weather +,2013-04-06 21:48:00,
2013-04-06 17:49:00,42.7,20.0,-100.00,North,-999,-999.0,-999.0,39,-99.99,,,-99.99,33.0,HOBO +U30 +Weather +,2013-04-06 21:49:00,
2013-04-06 17:50:00,42.7,20.2,-100.00,North,-999,-999.0,-999.0,40,-99.99,,,-99.99,33.0,HOBO +U30 +Weather +,2013-04-06 21:50:00,
2013-04-06 17:51:00,42.6,20.2,-100.00,North,-999,-999.0,-999.0,40,-99.99,,,-99.99,33.0,HOBO +U30 +Weather +,2013-04-06 21:51:00,
2013-04-06 17:52:00,42.6,20.3,-100.00,North,-999,-999.0,-999.0,40,-99.99,,,-99.99,33.0,HOBO +U30 +Weather +,2013-04-06 21:52:00,
2013-04-06 17:54:00,42.6,20.4,-100.00,North,-999,-999.0,-999.0,40,-99.99,,,-99.99,31.0,HOBO +U30 +Weather +,2013-04-06 21:54:00,
2013-04-06 17:55:00,42.5,20.8,-100.00,North,-999,-999.0,-999.0,41,-99.99,,,-99.99,31.0,HOBO +U30 +Weather +,2013-04-06 21:55:00,
2013-04-06 17:56:00,42.4,21.3,-100.00,North,-999,-999.0,-999.0,42,-99.99,,,-99.99,31.0,HOBO +U30 +Weather +,2013-04-06 21:56:00,
2013-04-06 17:57:00,42.1,21.4,-100.00,North,-999,-999.0,-999.0,43,-99.99,,,-99.99,29.0,HOBO +U30 +Weather +,2013-04-06 21:57:00,
2013-04-06 17:58:00,41.7,21.4,-100.00,North,-999,-999.0,-999.0,44,-99.99,,,-99.99,31.0,HOBO +U30 +Weather +,2013-04-06 21:58:00,
2013-04-06 17:59:00,41.4,21.3,-100.00,North,-999,-999.0,-999.0,44,-99.99,,,-99.99,33.0,HOBO +U30 +Weather +,2013-04-06 21:59:00,
2013-04-06 18:00:00,41.3,21.3,-100.00,North,-999,-999.0,-999.0,44,-99.99,,,-99.99,31.0,HOBO +U30 +Weather +,2013-04-06 22:00:00,
2013-04-06 18:01:00,41.1,21.1,-100.00,North,-999,-999.0,-999.0,44,-99.99,,,-99.99,28.0,HOBO +U30 +Weather +,2013-04-06 22:01:00,
2013-04-06 18:02:00,40.9,21.2,-100.00,North,-999,-999.0,-999.0,44,-99.99,,,-99.99,28.0,HOBO +U30 +Weather +,2013-04-06 22:02:00,
2013-04-06 18:03:00,40.9,21.0,-100.00,North,-999,-999.0,-999.0,44,-99.99,,,-99.99,28.0,HOBO +U30 +Weather +,2013-04-06 22:03:00,
2013-04-06 18:04:00,40.8,21.1,-100.00,North,-999,-999.0,-999.0,45,-99.99,,,-99.99,29.0,HOBO +U30 +Weather +,2013-04-06 22:04:00,
2013-04-06 18:05:00,40.8,21.2,-100.00,North,-999,-999.0,-999.0,45,-99.99,,,-99.99,28.0,HOBO +U30 +Weather +,2013-04-06 22:05:00,
2013-04-06 18:06:00,40.8,21.3,-100.00,North,-999,-999.0,-999.0,45,-99.99,,,-99.99,27.0,HOBO +U30 +Weather +,2013-04-06 22:06:00,
2013-04-06 18:07:00,40.6,21.2,-100.00,North,-999,-999.0,-999.0,45,-99.99,,,-99.99,24.0,HOBO +U30 +Weather +,2013-04-06 22:07:00,
2013-04-06 18:08:00,40.6,21.5,-100.00,North,-999,-999.0,-999.0,46,-99.99,,,-99.99,24.0,HOBO +U30 +Weather +,2013-04-06 22:08:00,
2013-04-06 18:09:00,40.5,21.3,-100.00,North,-999,-999.0,-999.0,45,-99.99,,,-99.99,23.0,HOBO +U30 +Weather +,2013-04-06 22:09:00,
2013-04-06 18:10:00,40.4,21.3,-100.00,North,-999,-999.0,-999.0,46,-99.99,,,-99.99,23.0,HOBO +U30 +Weather +,2013-04-06 22:10:00,
2013-04-06 18:11:00,40.4,21.4,-100.00,North,-999,-999.0,-999.0,46,-99.99,,,-99.99,22.0,HOBO +U30 +Weather +,2013-04-06 22:11:00,
2013-04-06 18:12:00,40.4,21.6,-100.00,North,-999,-999.0,-999.0,46,-99.99,,,-99.99,22.0,HOBO +U30 +Weather +,2013-04-06 22:12:00,
2013-04-06 18:13:00,40.4,21.6,-100.00,North,-999,-999.0,-999.0,46,-99.99,,,-99.99,21.0,HOBO +U30 +Weather +,2013-04-06 22:13:00,
2013-04-06 18:14:00,40.4,21.5,-100.00,North,-999,-999.0,-999.0,46,-99.99,,,-99.99,21.0,HOBO +U30 +Weather +,2013-04-06 22:14:00,
2013-04-06 18:15:00,40.3,21.4,-100.00,North,-999,-999.0,-999.0,46,-99.99,,,-99.99,21.0,HOBO +U30 +Weather +,2013-04-06 22:15:00,
2013-04-06 18:16:00,40.2,21.4,-100.00,North,-999,-999.0,-999.0,46,-99.99,,,-99.99,19.0,HOBO +U30 +Weather +,2013-04-06 22:16:00,
2013-04-06 18:17:00,40.1,21.4,-100.00,North,-999,-999.0,-999.0,46,-99.99,,,-99.99,19.0,HOBO +U30 +Weather +,2013-04-06 22:17:00,
2013-04-06 18:18:00,40.0,21.3,-100.00,North,-999,-999.0,-999.0,46,-99.99,,,-99.99,18.0,HOBO +U30 +Weather +,2013-04-06 22:18:00,
2013-04-06 18:19:00,39.9,21.5,-100.00,North,-999,-999.0,-999.0,47,-99.99,,,-99.99,18.0,HOBO +U30 +Weather +,2013-04-06 22:19:00,
2013-04-06 18:20:00,39.9,21.5,-100.00,North,-999,-999.0,-999.0,47,-99.99,,,-99.99,18.0,HOBO +U30 +Weather +,2013-04-06 22:20:00,
2013-04-06 18:21:00,39.8,21.5,-100.00,North,-999,-999.0,-999.0,47,-99.99,,,-99.99,17.0,HOBO +U30 +Weather +,2013-04-06 22:21:00,
2013-04-06 18:22:00,39.7,21.5,-100.00,North,-999,-999.0,-999.0,47,-99.99,,,-99.99,17.0,HOBO +U30 +Weather +,2013-04-06 22:22:00,
2013-04-06 18:23:00,39.7,21.5,-100.00,North,-999,-999.0,-999.0,47,-99.99,,,-99.99,17.0,HOBO +U30 +Weather +,2013-04-06 22:23:00,
2013-04-06 18:24:00,39.7,21.6,-100.00,North,-999,-999.0,-999.0,48,-99.99,,,-99.99,16.0,HOBO +U30 +Weather +,2013-04-06 22:24:00,
2013-04-06 18:25:00,39.7,21.7,-100.00,North,-999,-999.0,-999.0,48,-99.99,,,-99.99,16.0,HOBO +U30 +Weather +,2013-04-06 22:25:00,
2013-04-06 18:26:00,39.6,21.7,-100.00,North,-999,-999.0,-999.0,48,-99.99,,,-99.99,14.0,HOBO +U30 +Weather +,2013-04-06 22:26:00,
2013-04-06 18:27:00,39.5,21.7,-100.00,North,-999,-999.0,-999.0,48,-99.99,,,-99.99,14.0,HOBO +U30 +Weather +,2013-04-06 22:27:00,
2013-04-06 18:28:00,39.5,21.7,-100.00,North,-999,-999.0,-999.0,48,-99.99,,,-99.99,13.0,HOBO +U30 +Weather +,2013-04-06 22:28:00,
2013-04-06 18:29:00,39.5,21.6,-100.00,North,-999,-999.0,-999.0,48,-99.99,,,-99.99,13.0,HOBO +U30 +Weather +,2013-04-06 22:29:00,
2013-04-06 18:30:00,39.4,21.9,-100.00,North,-999,-999.0,-999.0,49,-99.99,,,-99.99,12.0,HOBO +U30 +Weather +,2013-04-06 22:30:00,
2013-04-06 18:31:00,39.3,21.7,-100.00,North,-999,-999.0,-999.0,48,-99.99,,,-99.99,12.0,HOBO +U30 +Weather +,2013-04-06 22:31:00,
2013-04-06 18:32:00,39.3,21.7,-100.00,North,-999,-999.0,-999.0,48,-99.99,,,-99.99,12.0,HOBO +U30 +Weather +,2013-04-06 22:32:00,
2013-04-06 18:33:00,39.3,21.7,-100.00,North,-999,-999.0,-999.0,48,-99.99,,,-99.99,12.0,HOBO +U30 +Weather +,2013-04-06 22:33:00,
2013-04-06 18:34:00,39.3,21.6,-100.00,North,-999,-999.0,-999.0,48,-99.99,,,-99.99,11.0,HOBO +U30 +Weather +,2013-04-06 22:34:00,
2013-04-06 18:35:00,39.3,21.6,-100.00,North,-999,-999.0,-999.0,48,-99.99,,,-99.99,11.0,HOBO +U30 +Weather +,2013-04-06 22:35:00,
2013-04-06 18:36:00,39.2,21.6,-100.00,North,-999,-999.0,-999.0,48,-99.99,,,-99.99,9.0,HOBO +U30 +Weather +,2013-04-06 22:36:00,
2013-04-06 18:37:00,39.1,21.6,-100.00,North,-999,-999.0,-999.0,49,-99.99,,,-99.99,9.0,HOBO +U30 +Weather +,2013-04-06 22:37:00,
2013-04-06 18:38:00,39.1,21.6,-100.00,North,-999,-999.0,-999.0,49,-99.99,,,-99.99,8.0,HOBO +U30 +Weather +,2013-04-06 22:38:00,
2013-04-06 18:39:00,39.0,21.5,-100.00,North,-999,-999.0,-999.0,49,-99.99,,,-99.99,8.0,HOBO +U30 +Weather +,2013-04-06 22:39:00,
2013-04-06 18:40:00,39.0,21.6,-100.00,North,-999,-999.0,-999.0,49,-99.99,,,-99.99,7.0,HOBO +U30 +Weather +,2013-04-06 22:40:00,
2013-04-06 18:41:00,38.9,21.5,-100.00,North,-999,-999.0,-999.0,49,-99.99,,,-99.99,7.0,HOBO +U30 +Weather +,2013-04-06 22:41:00,
2013-04-06 18:42:00,38.9,21.7,-100.00,North,-999,-999.0,-999.0,49,-99.99,,,-99.99,6.0,HOBO +U30 +Weather +,2013-04-06 22:42:00,
2013-04-06 18:43:00,38.8,21.6,-100.00,North,-999,-999.0,-999.0,49,-99.99,,,-99.99,6.0,HOBO +U30 +Weather +,2013-04-06 22:43:00,
2013-04-06 18:44:00,38.8,21.6,-100.00,North,-999,-999.0,-999.0,49,-99.99,,,-99.99,4.0,HOBO +U30 +Weather +,2013-04-06 22:44:00,
2013-04-06 18:45:00,38.8,21.7,-100.00,North,-999,-999.0,-999.0,50,-99.99,,,-99.99,4.0,HOBO +U30 +Weather +,2013-04-06 22:45:00,
2013-04-06 18:46:00,38.7,21.6,-100.00,North,-999,-999.0,-999.0,49,-99.99,,,-99.99,4.0,HOBO +U30 +Weather +,2013-04-06 22:46:00,
2013-04-06 18:47:00,38.6,21.7,-100.00,North,-999,-999.0,-999.0,50,-99.99,,,-99.99,3.0,HOBO +U30 +Weather +,2013-04-06 22:47:00,
2013-04-06 18:48:00,38.5,21.7,-100.00,North,-999,-999.0,-999.0,50,-99.99,,,-99.99,3.0,HOBO +U30 +Weather +,2013-04-06 22:48:00,
2013-04-06 18:49:00,38.5,21.7,-100.00,North,-999,-999.0,-999.0,50,-99.99,,,-99.99,2.0,HOBO +U30 +Weather +,2013-04-06 22:49:00,
2013-04-06 18:50:00,38.4,21.8,-100.00,North,-999,-999.0,-999.0,50,-99.99,,,-99.99,2.0,HOBO +U30 +Weather +,2013-04-06 22:50:00,
2013-04-06 18:51:00,38.3,21.8,-100.00,North,-999,-999.0,-999.0,51,-99.99,,,-99.99,2.0,HOBO +U30 +Weather +,2013-04-06 22:51:00,
2013-04-06 18:55:00,38.1,21.9,-100.00,North,-999,-999.0,-999.0,51,-99.99,,,-99.99,1.0,HOBO +U30 +Weather +,2013-04-06 22:55:00,
2013-04-06 18:56:00,38.0,21.9,-100.00,North,-999,-999.0,-999.0,51,-99.99,,,-99.99,1.0,HOBO +U30 +Weather +,2013-04-06 22:56:00,
2013-04-06 18:57:00,37.9,22.0,-100.00,North,-999,-999.0,-999.0,52,-99.99,,,-99.99,1.0,HOBO +U30 +Weather +,2013-04-06 22:57:00,
2013-04-06 18:58:00,37.9,21.9,-100.00,North,-999,-999.0,-999.0,52,-99.99,,,-99.99,1.0,HOBO +U30 +Weather +,2013-04-06 22:58:00,
2013-04-06 18:59:00,37.8,21.9,-100.00,North,-999,-999.0,-999.0,52,-99.99,,,-99.99,1.0,HOBO +U30 +Weather +,2013-04-06 22:59:00,
2013-04-06 19:00:00,37.7,21.9,-100.00,North,-999,-999.0,-999.0,52,-99.99,,,-99.99,1.0,HOBO +U30 +Weather +,2013-04-06 23:00:00,
2013-04-06 19:01:00,37.7,21.9,-100.00,North,-999,-999.0,-999.0,52,-99.99,,,-99.99,1.0,HOBO +U30 +Weather +,2013-04-06 23:01:00,
2013-04-06 19:02:00,37.7,21.9,-100.00,North,-999,-999.0,-999.0,52,-99.99,,,-99.99,1.0,HOBO +U30 +Weather +,2013-04-06 23:02:00,
2013-04-06 19:03:00,37.6,21.9,-100.00,North,-999,-999.0,-999.0,52,-99.99,,,-99.99,1.0,HOBO +U30 +Weather +,2013-04-06 23:03:00,
2013-04-06 19:04:00,37.6,21.9,-100.00,North,-999,-999.0,-999.0,52,-99.99,,,-99.99,1.0,HOBO +U30 +Weather +,2013-04-06 23:04:00,
2013-04-06 19:05:00,37.5,22.0,-100.00,North,-999,-999.0,-999.0,53,-99.99,,,-99.99,1.0,HOBO +U30 +Weather +,2013-04-06 23:05:00,
2013-04-06 19:06:00,37.5,22.0,-100.00,North,-999,-999.0,-999.0,53,-99.99,,,-99.99,1.0,HOBO +U30 +Weather +,2013-04-06 23:06:00,
2013-04-06 19:07:00,37.4,22.0,-100.00,North,-999,-999.0,-999.0,53,-99.99,,,-99.99,1.0,HOBO +U30 +Weather +,2013-04-06 23:07:00,
2013-04-06 19:08:00,37.3,22.0,-100.00,North,-999,-999.0,-999.0,53,-99.99,,,-99.99,1.0,HOBO +U30 +Weather +,2013-04-06 23:08:00,
2013-04-06 19:09:00,37.2,22.0,-100.00,North,-999,-999.0,-999.0,53,-99.99,,,-99.99,1.0,HOBO +U30 +Weather +,2013-04-06 23:09:00,
2013-04-06 19:10:00,37.1,22.1,-100.00,North,-999,-999.0,-999.0,54,-99.99,,,-99.99,1.0,HOBO +U30 +Weather +,2013-04-06 23:10:00,
2013-04-06 19:11:00,37.1,22.0,-100.00,North,-999,-999.0,-999.0,54,-99.99,,,-99.99,1.0,HOBO +U30 +Weather +,2013-04-06 23:11:00,
2013-04-06 19:12:00,37.0,22.1,-100.00,North,-999,-999.0,-999.0,54,-99.99,,,-99.99,1.0,HOBO +U30 +Weather +,2013-04-06 23:12:00,
2013-04-06 19:13:00,37.0,22.1,-100.00,North,-999,-999.0,-999.0,54,-99.99,,,-99.99,1.0,HOBO +U30 +Weather +,2013-04-06 23:13:00,
2013-04-06 19:14:00,37.0,22.2,-100.00,North,-999,-999.0,-999.0,54,-99.99,,,-99.99,1.0,HOBO +U30 +Weather +,2013-04-06 23:14:00,
2013-04-06 19:15:00,37.0,22.2,-100.00,North,-999,-999.0,-999.0,54,-99.99,,,-99.99,1.0,HOBO +U30 +Weather +,2013-04-06 23:15:00,
2013-04-06 19:16:00,36.9,22.2,-100.00,North,-999,-999.0,-999.0,54,-99.99,,,-99.99,1.0,HOBO +U30 +Weather +,2013-04-06 23:16:00,
2013-04-06 19:17:00,36.9,22.2,-100.00,North,-999,-999.0,-999.0,54,-99.99,,,-99.99,1.0,HOBO +U30 +Weather +,2013-04-06 23:17:00,
2013-04-06 19:18:00,36.8,22.3,-100.00,North,-999,-999.0,-999.0,55,-99.99,,,-99.99,1.0,HOBO +U30 +Weather +,2013-04-06 23:18:00,
2013-04-06 19:19:00,36.8,22.4,-100.00,North,-999,-999.0,-999.0,55,-99.99,,,-99.99,1.0,HOBO +U30 +Weather +,2013-04-06 23:19:00,
2013-04-06 19:20:00,36.7,22.2,-100.00,North,-999,-999.0,-999.0,55,-99.99,,,-99.99,1.0,HOBO +U30 +Weather +,2013-04-06 23:20:00,
2013-04-06 19:21:00,36.5,22.2,-100.00,North,-999,-999.0,-999.0,55,-99.99,,,-99.99,1.0,HOBO +U30 +Weather +,2013-04-06 23:21:00,
2013-04-06 19:22:00,36.4,22.3,-100.00,North,-999,-999.0,-999.0,56,-99.99,,,-99.99,1.0,HOBO +U30 +Weather +,2013-04-06 23:22:00,
2013-04-06 19:23:00,36.4,22.3,-100.00,North,-999,-999.0,-999.0,56,-99.99,,,-99.99,1.0,HOBO +U30 +Weather +,2013-04-06 23:23:00,
2013-04-06 19:24:00,36.5,22.4,-100.00,North,-999,-999.0,-999.0,56,-99.99,,,-99.99,1.0,HOBO +U30 +Weather +,2013-04-06 23:24:00,
2013-04-06 19:25:00,36.5,22.4,-100.00,North,-999,-999.0,-999.0,56,-99.99,,,-99.99,1.0,HOBO +U30 +Weather +,2013-04-06 23:25:00,
2013-04-06 19:26:00,36.4,22.4,-100.00,North,-999,-999.0,-999.0,56,-99.99,,,-99.99,1.0,HOBO +U30 +Weather +,2013-04-06 23:26:00,
2013-04-06 19:27:00,36.4,22.5,-100.00,North,-999,-999.0,-999.0,56,-99.99,,,-99.99,1.0,HOBO +U30 +Weather +,2013-04-06 23:27:00,
2013-04-06 19:28:00,36.3,22.4,-100.00,North,-999,-999.0,-999.0,56,-99.99,,,-99.99,1.0,HOBO +U30 +Weather +,2013-04-06 23:28:00,
2013-04-06 19:29:00,36.0,21.6,-100.00,North,-999,-999.0,-999.0,55,-99.99,,,-99.99,1.0,HOBO +U30 +Weather +,2013-04-06 23:29:00,
2013-04-06 19:30:00,35.7,21.5,-100.00,North,-999,-999.0,-999.0,55,-99.99,,,-99.99,1.0,HOBO +U30 +Weather +,2013-04-06 23:30:00,
2013-04-06 19:31:00,35.4,21.7,-100.00,North,-999,-999.0,-999.0,57,-99.99,,,-99.99,1.0,HOBO +U30 +Weather +,2013-04-06 23:31:00,
2013-04-06 19:32:00,35.2,21.6,-100.00,North,-999,-999.0,-999.0,57,-99.99,,,-99.99,1.0,HOBO +U30 +Weather +,2013-04-06 23:32:00,
2013-04-06 19:33:00,35.1,21.6,-100.00,North,-999,-999.0,-999.0,57,-99.99,,,-99.99,1.0,HOBO +U30 +Weather +,2013-04-06 23:33:00,
2013-04-06 19:34:00,35.0,21.7,-100.00,North,-999,-999.0,-999.0,58,-99.99,,,-99.99,1.0,HOBO +U30 +Weather +,2013-04-06 23:34:00,
2013-04-06 19:35:00,34.9,21.7,-100.00,North,-999,-999.0,-999.0,58,-99.99,,,-99.99,1.0,HOBO +U30 +Weather +,2013-04-06 23:35:00,
2013-04-06 19:36:00,34.8,21.6,-100.00,North,-999,-999.0,-999.0,58,-99.99,,,-99.99,1.0,HOBO +U30 +Weather +,2013-04-06 23:36:00,
2013-04-06 19:37:00,34.6,21.3,-100.00,North,-999,-999.0,-999.0,58,-99.99,,,-99.99,1.0,HOBO +U30 +Weather +,2013-04-06 23:37:00,
2013-04-06 19:38:00,34.4,21.3,-100.00,North,-999,-999.0,-999.0,58,-99.99,,,-99.99,1.0,HOBO +U30 +Weather +,2013-04-06 23:38:00,
2013-04-06 19:39:00,34.2,21.4,-100.00,North,-999,-999.0,-999.0,59,-99.99,,,-99.99,1.0,HOBO +U30 +Weather +,2013-04-06 23:39:00,
2013-04-06 19:40:00,34.1,21.5,-100.00,North,-999,-999.0,-999.0,59,-99.99,,,-99.99,1.0,HOBO +U30 +Weather +,2013-04-06 23:40:00,
2013-04-06 19:41:00,34.1,21.6,-100.00,North,-999,-999.0,-999.0,59,-99.99,,,-99.99,1.0,HOBO +U30 +Weather +,2013-04-06 23:41:00,
2013-04-06 19:42:00,34.2,22.0,-100.00,North,-999,-999.0,-999.0,60,-99.99,,,-99.99,1.0,HOBO +U30 +Weather +,2013-04-06 23:42:00,
2013-04-06 19:43:00,34.3,22.1,-100.00,North,-999,-999.0,-999.0,60,-99.99,,,-99.99,1.0,HOBO +U30 +Weather +,2013-04-06 23:43:00,
2013-04-06 19:44:00,34.5,22.1,-100.00,North,-999,-999.0,-999.0,60,-99.99,,,-99.99,1.0,HOBO +U30 +Weather +,2013-04-06 23:44:00,
2013-04-06 19:45:00,34.4,21.9,-100.00,North,-999,-999.0,-999.0,59,-99.99,,,-99.99,1.0,HOBO +U30 +Weather +,2013-04-06 23:45:00,
2013-04-06 19:46:00,34.3,22.0,-100.00,North,-999,-999.0,-999.0,60,-99.99,,,-99.99,1.0,HOBO +U30 +Weather +,2013-04-06 23:46:00,
2013-04-06 19:47:00,34.3,22.0,-100.00,North,-999,-999.0,-999.0,60,-99.99,,,-99.99,1.0,HOBO +U30 +Weather +,2013-04-06 23:47:00,
2013-04-06 19:48:00,34.2,21.9,-100.00,North,-999,-999.0,-999.0,60,-99.99,,,-99.99,1.0,HOBO +U30 +Weather +,2013-04-06 23:48:00,
2013-04-06 19:49:00,34.1,21.9,-100.00,North,-999,-999.0,-999.0,60,-99.99,,,-99.99,1.0,HOBO +U30 +Weather +,2013-04-06 23:49:00,
2013-04-06 19:50:00,33.9,21.8,-100.00,North,-999,-999.0,-999.0,60,-99.99,,,-99.99,1.0,HOBO +U30 +Weather +,2013-04-06 23:50:00,
2013-04-06 19:51:00,33.8,21.9,-100.00,North,-999,-999.0,-999.0,61,-99.99,,,-99.99,1.0,HOBO +U30 +Weather +,2013-04-06 23:51:00,
2013-04-06 19:52:00,33.7,21.7,-100.00,North,-999,-999.0,-999.0,60,-99.99,,,-99.99,1.0,HOBO +U30 +Weather +,2013-04-06 23:52:00,
2013-04-06 19:53:00,33.6,21.8,-100.00,North,-999,-999.0,-999.0,61,-99.99,,,-99.99,1.0,HOBO +U30 +Weather +,2013-04-06 23:53:00,
2013-04-06 19:54:00,33.6,22.2,-100.00,North,-999,-999.0,-999.0,62,-99.99,,,-99.99,1.0,HOBO +U30 +Weather +,2013-04-06 23:54:00,
2013-04-06 19:55:00,33.8,22.7,-100.00,North,-999,-999.0,-999.0,63,-99.99,,,-99.99,1.0,HOBO +U30 +Weather +,2013-04-06 23:55:00,
2013-04-06 19:56:00,34.1,23.2,-100.00,North,-999,-999.0,-999.0,63,-99.99,,,-99.99,1.0,HOBO +U30 +Weather +,2013-04-06 23:56:00,
2013-04-06 19:57:00,34.3,23.1,-100.00,North,-999,-999.0,-999.0,63,-99.99,,,-99.99,1.0,HOBO +U30 +Weather +,2013-04-06 23:57:00,
2013-04-06 19:58:00,34.3,23.0,-100.00,North,-999,-999.0,-999.0,62,-99.99,,,-99.99,1.0,HOBO +U30 +Weather +,2013-04-06 23:58:00,
2013-04-06 19:59:00,34.2,23.1,-100.00,North,-999,-999.0,-999.0,63,-99.99,,,-99.99,1.0,HOBO +U30 +Weather +,2013-04-06 23:59:00,
2013-04-06 20:00:00,34.2,23.3,-100.00,North,-999,-999.0,-999.0,64,-99.99,,,-99.99,1.0,HOBO +U30 +Weather +,2013-04-07 00:00:00,
2013-04-06 20:01:00,34.3,23.5,-100.00,North,-999,-999.0,-999.0,64,-99.99,,,-99.99,1.0,HOBO +U30 +Weather +,2013-04-07 00:01:00,
2013-04-06 20:02:00,34.3,23.3,-100.00,North,-999,-999.0,-999.0,63,-99.99,,,-99.99,1.0,HOBO +U30 +Weather +,2013-04-07 00:02:00,
2013-04-06 20:03:00,34.2,23.3,-100.00,North,-999,-999.0,-999.0,64,-99.99,,,-99.99,1.0,HOBO +U30 +Weather +,2013-04-07 00:03:00,
2013-04-06 20:04:00,34.1,23.2,-100.00,North,-999,-999.0,-999.0,64,-99.99,,,-99.99,1.0,HOBO +U30 +Weather +,2013-04-07 00:04:00,
2013-04-06 20:05:00,34.1,23.5,-100.00,North,-999,-999.0,-999.0,64,-99.99,,,-99.99,1.0,HOBO +U30 +Weather +,2013-04-07 00:05:00,
2013-04-06 20:06:00,34.2,23.6,-100.00,North,-999,-999.0,-999.0,64,-99.99,,,-99.99,1.0,HOBO +U30 +Weather +,2013-04-07 00:06:00,
2013-04-06 20:07:00,34.2,23.8,-100.00,North,-999,-999.0,-999.0,65,-99.99,,,-99.99,1.0,HOBO +U30 +Weather +,2013-04-07 00:07:00,
2013-04-06 20:08:00,34.4,23.9,-100.00,North,-999,-999.0,-999.0,65,-99.99,,,-99.99,1.0,HOBO +U30 +Weather +,2013-04-07 00:08:00,
2013-04-06 20:09:00,34.3,23.8,-100.00,North,-999,-999.0,-999.0,65,-99.99,,,-99.99,1.0,HOBO +U30 +Weather +,2013-04-07 00:09:00,
2013-04-06 20:10:00,34.3,23.8,-100.00,North,-999,-999.0,-999.0,65,-99.99,,,-99.99,1.0,HOBO +U30 +Weather +,2013-04-07 00:10:00,
2013-04-06 20:11:00,34.3,24.2,-100.00,North,-999,-999.0,-999.0,66,-99.99,,,-99.99,1.0,HOBO +U30 +Weather +,2013-04-07 00:11:00,
2013-04-06 20:12:00,34.5,24.7,-100.00,North,-999,-999.0,-999.0,67,-99.99,,,-99.99,1.0,HOBO +U30 +Weather +,2013-04-07 00:12:00,
2013-04-06 20:13:00,34.6,24.6,-100.00,North,-999,-999.0,-999.0,66,-99.99,,,-99.99,1.0,HOBO +U30 +Weather +,2013-04-07 00:13:00,
2013-04-06 20:14:00,34.7,24.9,-100.00,North,-999,-999.0,-999.0,67,-99.99,,,-99.99,1.0,HOBO +U30 +Weather +,2013-04-07 00:14:00,
2013-04-06 20:15:00,35.0,25.4,-100.00,North,-999,-999.0,-999.0,67,-99.99,,,-99.99,1.0,HOBO +U30 +Weather +,2013-04-07 00:15:00,
2013-04-06 20:16:00,35.2,25.7,-100.00,North,-999,-999.0,-999.0,68,-99.99,,,-99.99,1.0,HOBO +U30 +Weather +,2013-04-07 00:16:00,
2013-04-06 20:17:00,35.5,26.2,-100.00,North,-999,-999.0,-999.0,68,-99.99,,,-99.99,1.0,HOBO +U30 +Weather +,2013-04-07 00:17:00,
2013-04-06 20:18:00,35.9,26.6,-100.00,North,-999,-999.0,-999.0,68,-99.99,,,-99.99,1.0,HOBO +U30 +Weather +,2013-04-07 00:18:00,
2013-04-06 20:19:00,36.4,27.1,-100.00,North,-999,-999.0,-999.0,68,-99.99,,,-99.99,1.0,HOBO +U30 +Weather +,2013-04-07 00:19:00,
2013-04-06 20:20:00,36.8,27.3,-100.00,North,-999,-999.0,-999.0,68,-99.99,,,-99.99,1.0,HOBO +U30 +Weather +,2013-04-07 00:20:00,
2013-04-06 20:21:00,37.1,27.7,-100.00,North,-999,-999.0,-999.0,68,-99.99,,,-99.99,1.0,HOBO +U30 +Weather +,2013-04-07 00:21:00,
2013-04-06 20:22:00,37.3,27.8,-100.00,North,-999,-999.0,-999.0,68,-99.99,,,-99.99,1.0,HOBO +U30 +Weather +,2013-04-07 00:22:00,
2013-04-06 20:23:00,37.5,27.8,-100.00,North,-999,-999.0,-999.0,67,-99.99,,,-99.99,1.0,HOBO +U30 +Weather +,2013-04-07 00:23:00,
2013-04-06 20:24:00,37.4,27.7,-100.00,North,-999,-999.0,-999.0,67,-99.99,,,-99.99,1.0,HOBO +U30 +Weather +,2013-04-07 00:24:00,
2013-04-06 20:25:00,37.5,27.9,-100.00,North,-999,-999.0,-999.0,67,-99.99,,,-99.99,1.0,HOBO +U30 +Weather +,2013-04-07 00:25:00,
2013-04-06 20:26:00,37.4,27.4,-100.00,North,-999,-999.0,-999.0,67,-99.99,,,-99.99,1.0,HOBO +U30 +Weather +,2013-04-07 00:26:00,
2013-04-06 20:27:00,37.5,27.9,-100.00,North,-999,-999.0,-999.0,68,-99.99,,,-99.99,1.0,HOBO +U30 +Weather +,2013-04-07 00:27:00,
2013-04-06 20:28:00,37.2,27.4,-100.00,North,-999,-999.0,-999.0,67,-99.99,,,-99.99,1.0,HOBO +U30 +Weather +,2013-04-07 00:28:00,
2013-04-06 20:29:00,37.1,27.4,-100.00,North,-999,-999.0,-999.0,67,-99.99,,,-99.99,1.0,HOBO +U30 +Weather +,2013-04-07 00:29:00,
2013-04-06 20:30:00,36.8,27.1,-100.00,North,-999,-999.0,-999.0,67,-99.99,,,-99.99,1.0,HOBO +U30 +Weather +,2013-04-07 00:30:00,
2013-04-06 20:31:00,36.8,27.4,-100.00,North,-999,-999.0,-999.0,68,-99.99,,,-99.99,1.0,HOBO +U30 +Weather +,2013-04-07 00:31:00,
2013-04-06 20:32:00,36.8,27.5,-100.00,North,-999,-999.0,-999.0,68,-99.99,,,-99.99,1.0,HOBO +U30 +Weather +,2013-04-07 00:32:00,
2013-04-06 20:33:00,36.8,27.6,-100.00,North,-999,-999.0,-999.0,68,-99.99,,,-99.99,1.0,HOBO +U30 +Weather +,2013-04-07 00:33:00,
2013-04-06 20:34:00,36.9,27.7,-100.00,North,-999,-999.0,-999.0,68,-99.99,,,-99.99,1.0,HOBO +U30 +Weather +,2013-04-07 00:34:00,
2013-04-06 20:35:00,37.1,27.8,-100.00,North,-999,-999.0,-999.0,68,-99.99,,,-99.99,1.0,HOBO +U30 +Weather +,2013-04-07 00:35:00,
2013-04-06 20:36:00,37.3,28.1,-100.00,North,-999,-999.0,-999.0,69,-99.99,,,-99.99,1.0,HOBO +U30 +Weather +,2013-04-07 00:36:00,
2013-04-06 20:37:00,37.5,28.1,-100.00,North,-999,-999.0,-999.0,68,-99.99,,,-99.99,1.0,HOBO +U30 +Weather +,2013-04-07 00:37:00,
2013-04-06 20:38:00,37.7,28.2,-100.00,North,-999,-999.0,-999.0,68,-99.99,,,-99.99,1.0,HOBO +U30 +Weather +,2013-04-07 00:38:00,
2013-04-06 20:39:00,37.7,28.2,-100.00,North,-999,-999.0,-999.0,68,-99.99,,,-99.99,1.0,HOBO +U30 +Weather +,2013-04-07 00:39:00,
2013-04-06 20:40:00,37.6,28.1,-100.00,North,-999,-999.0,-999.0,68,-99.99,,,-99.99,1.0,HOBO +U30 +Weather +,2013-04-07 00:40:00,
2013-04-06 20:41:00,37.3,27.8,-100.00,North,-999,-999.0,-999.0,68,-99.99,,,-99.99,1.0,HOBO +U30 +Weather +,2013-04-07 00:41:00,
2013-04-06 20:42:00,37.2,27.9,-100.00,North,-999,-999.0,-999.0,68,-99.99,,,-99.99,1.0,HOBO +U30 +Weather +,2013-04-07 00:42:00,
2013-04-06 20:43:00,37.0,27.8,-100.00,North,-999,-999.0,-999.0,68,-99.99,,,-99.99,1.0,HOBO +U30 +Weather +,2013-04-07 00:43:00,
2013-04-06 20:44:00,36.8,27.6,-100.00,North,-999,-999.0,-999.0,68,-99.99,,,-99.99,1.0,HOBO +U30 +Weather +,2013-04-07 00:44:00,
2013-04-06 20:45:00,36.6,27.6,-100.00,North,-999,-999.0,-999.0,69,-99.99,,,-99.99,1.0,HOBO +U30 +Weather +,2013-04-07 00:45:00,
2013-04-06 20:46:00,36.6,27.9,-100.00,North,-999,-999.0,-999.0,70,-99.99,,,-99.99,1.0,HOBO +U30 +Weather +,2013-04-07 00:46:00,
2013-04-06 20:47:00,36.7,27.8,-100.00,North,-999,-999.0,-999.0,70,-99.99,,,-99.99,1.0,HOBO +U30 +Weather +,2013-04-07 00:47:00,
2013-04-06 20:48:00,36.6,27.8,-100.00,North,-999,-999.0,-999.0,70,-99.99,,,-99.99,1.0,HOBO +U30 +Weather +,2013-04-07 00:48:00,
2013-04-06 20:52:00,36.5,27.8,-100.00,North,-999,-999.0,-999.0,70,-99.99,,,-99.99,1.0,HOBO +U30 +Weather +,2013-04-07 00:52:00,
2013-04-06 20:53:00,36.3,27.4,-100.00,North,-999,-999.0,-999.0,69,-99.99,,,-99.99,1.0,HOBO +U30 +Weather +,2013-04-07 00:53:00,
2013-04-06 20:54:00,36.1,27.6,-100.00,North,-999,-999.0,-999.0,70,-99.99,,,-99.99,1.0,HOBO +U30 +Weather +,2013-04-07 00:54:00,
2013-04-06 20:55:00,36.2,27.8,-100.00,North,-999,-999.0,-999.0,71,-99.99,,,-99.99,1.0,HOBO +U30 +Weather +,2013-04-07 00:55:00,
2013-04-06 20:56:00,36.4,28.0,-100.00,North,-999,-999.0,-999.0,71,-99.99,,,-99.99,1.0,HOBO +U30 +Weather +,2013-04-07 00:56:00,
2013-04-06 20:57:00,36.5,28.1,-100.00,North,-999,-999.0,-999.0,71,-99.99,,,-99.99,1.0,HOBO +U30 +Weather +,2013-04-07 00:57:00,
2013-04-06 20:58:00,36.6,28.2,-100.00,North,-999,-999.0,-999.0,71,-99.99,,,-99.99,1.0,HOBO +U30 +Weather +,2013-04-07 00:58:00,
2013-04-06 20:59:00,36.7,28.2,-100.00,North,-999,-999.0,-999.0,71,-99.99,,,-99.99,1.0,HOBO +U30 +Weather +,2013-04-07 00:59:00,
2013-04-06 21:00:00,36.8,28.3,-100.00,North,-999,-999.0,-999.0,71,-99.99,,,-99.99,1.0,HOBO +U30 +Weather +,2013-04-07 01:00:00,
2013-04-06 21:01:00,36.9,28.4,-100.00,North,-999,-999.0,-999.0,71,-99.99,,,-99.99,1.0,HOBO +U30 +Weather +,2013-04-07 01:01:00,
2013-04-06 21:02:00,37.1,28.5,-100.00,North,-999,-999.0,-999.0,70,-99.99,,,-99.99,1.0,HOBO +U30 +Weather +,2013-04-07 01:02:00,
2013-04-06 21:03:00,37.2,28.5,-100.00,North,-999,-999.0,-999.0,70,-99.99,,,-99.99,1.0,HOBO +U30 +Weather +,2013-04-07 01:03:00,
2013-04-06 21:04:00,37.1,28.4,-100.00,North,-999,-999.0,-999.0,70,-99.99,,,-99.99,1.0,HOBO +U30 +Weather +,2013-04-07 01:04:00,
2013-04-06 21:05:00,37.1,28.5,-100.00,North,-999,-999.0,-999.0,70,-99.99,,,-99.99,1.0,HOBO +U30 +Weather +,2013-04-07 01:05:00,
2013-04-06 21:06:00,36.9,27.9,-100.00,North,-999,-999.0,-999.0,69,-99.99,,,-99.99,1.0,HOBO +U30 +Weather +,2013-04-07 01:06:00,
2013-04-06 21:07:00,36.5,27.6,-100.00,North,-999,-999.0,-999.0,69,-99.99,,,-99.99,1.0,HOBO +U30 +Weather +,2013-04-07 01:07:00,
2013-04-06 21:08:00,36.2,27.6,-100.00,North,-999,-999.0,-999.0,70,-99.99,,,-99.99,1.0,HOBO +U30 +Weather +,2013-04-07 01:08:00,
2013-04-06 21:09:00,36.2,28.1,-100.00,North,-999,-999.0,-999.0,72,-99.99,,,-99.99,1.0,HOBO +U30 +Weather +,2013-04-07 01:09:00,
2013-04-06 21:10:00,36.2,28.1,-100.00,North,-999,-999.0,-999.0,72,-99.99,,,-99.99,1.0,HOBO +U30 +Weather +,2013-04-07 01:10:00,
2013-04-06 21:11:00,36.5,28.4,-100.00,North,-999,-999.0,-999.0,72,-99.99,,,-99.99,1.0,HOBO +U30 +Weather +,2013-04-07 01:11:00,
2013-04-06 21:12:00,36.6,28.6,-100.00,North,-999,-999.0,-999.0,72,-99.99,,,-99.99,1.0,HOBO +U30 +Weather +,2013-04-07 01:12:00,
2013-04-06 21:13:00,36.8,28.7,-100.00,North,-999,-999.0,-999.0,72,-99.99,,,-99.99,1.0,HOBO +U30 +Weather +,2013-04-07 01:13:00,
2013-04-06 21:14:00,36.8,28.5,-100.00,North,-999,-999.0,-999.0,71,-99.99,,,-99.99,1.0,HOBO +U30 +Weather +,2013-04-07 01:14:00,
2013-04-06 21:15:00,36.8,28.5,-100.00,North,-999,-999.0,-999.0,71,-99.99,,,-99.99,1.0,HOBO +U30 +Weather +,2013-04-07 01:15:00,
2013-04-06 21:16:00,36.6,28.4,-100.00,North,-999,-999.0,-999.0,71,-99.99,,,-99.99,1.0,HOBO +U30 +Weather +,2013-04-07 01:16:00,
2013-04-06 21:17:00,36.6,28.6,-100.00,North,-999,-999.0,-999.0,72,-99.99,,,-99.99,1.0,HOBO +U30 +Weather +,2013-04-07 01:17:00,
2013-04-06 21:18:00,36.6,28.8,-100.00,North,-999,-999.0,-999.0,72,-99.99,,,-99.99,1.0,HOBO +U30 +Weather +,2013-04-07 01:18:00,
2013-04-06 21:19:00,36.8,28.7,-100.00,North,-999,-999.0,-999.0,72,-99.99,,,-99.99,1.0,HOBO +U30 +Weather +,2013-04-07 01:19:00,
2013-04-06 21:20:00,36.8,28.9,-100.00,North,-999,-999.0,-999.0,72,-99.99,,,-99.99,1.0,HOBO +U30 +Weather +,2013-04-07 01:20:00,
2013-04-06 21:21:00,36.9,28.9,-100.00,North,-999,-999.0,-999.0,72,-99.99,,,-99.99,1.0,HOBO +U30 +Weather +,2013-04-07 01:21:00,
2013-04-06 21:22:00,37.0,28.9,-100.00,North,-999,-999.0,-999.0,72,-99.99,,,-99.99,1.0,HOBO +U30 +Weather +,2013-04-07 01:22:00,
2013-04-06 21:23:00,37.0,29.0,-100.00,North,-999,-999.0,-999.0,72,-99.99,,,-99.99,1.0,HOBO +U30 +Weather +,2013-04-07 01:23:00,
2013-04-06 21:24:00,37.0,29.0,-100.00,North,-999,-999.0,-999.0,72,-99.99,,,-99.99,1.0,HOBO +U30 +Weather +,2013-04-07 01:24:00,
2013-04-06 21:25:00,37.0,29.0,-100.00,North,-999,-999.0,-999.0,72,-99.99,,,-99.99,1.0,HOBO +U30 +Weather +,2013-04-07 01:25:00,
2013-04-06 21:26:00,37.0,29.0,-100.00,North,-999,-999.0,-999.0,72,-99.99,,,-99.99,1.0,HOBO +U30 +Weather +,2013-04-07 01:26:00,
2013-04-06 21:27:00,37.0,28.9,-100.00,North,-999,-999.0,-999.0,72,-99.99,,,-99.99,1.0,HOBO +U30 +Weather +,2013-04-07 01:27:00,
2013-04-06 21:28:00,37.0,28.9,-100.00,North,-999,-999.0,-999.0,72,-99.99,,,-99.99,1.0,HOBO +U30 +Weather +,2013-04-07 01:28:00,
2013-04-06 21:29:00,37.0,29.0,-100.00,North,-999,-999.0,-999.0,72,-99.99,,,-99.99,1.0,HOBO +U30 +Weather +,2013-04-07 01:29:00,
2013-04-06 21:30:00,37.1,29.2,-100.00,North,-999,-999.0,-999.0,72,-99.99,,,-99.99,1.0,HOBO +U30 +Weather +,2013-04-07 01:30:00,
2013-04-06 21:31:00,37.3,29.2,-100.00,North,-999,-999.0,-999.0,72,-99.99,,,-99.99,1.0,HOBO +U30 +Weather +,2013-04-07 01:31:00,
2013-04-06 21:32:00,37.3,29.1,-100.00,North,-999,-999.0,-999.0,72,-99.99,,,-99.99,1.0,HOBO +U30 +Weather +,2013-04-07 01:32:00,
2013-04-06 21:33:00,37.1,28.9,-100.00,North,-999,-999.0,-999.0,72,-99.99,,,-99.99,1.0,HOBO +U30 +Weather +,2013-04-07 01:33:00,
2013-04-06 21:34:00,37.0,29.0,-100.00,North,-999,-999.0,-999.0,72,-99.99,,,-99.99,1.0,HOBO +U30 +Weather +,2013-04-07 01:34:00,
2013-04-06 21:35:00,37.0,29.0,-100.00,North,-999,-999.0,-999.0,72,-99.99,,,-99.99,1.0,HOBO +U30 +Weather +,2013-04-07 01:35:00,
2013-04-06 21:36:00,36.9,29.0,-100.00,North,-999,-999.0,-999.0,72,-99.99,,,-99.99,1.0,HOBO +U30 +Weather +,2013-04-07 01:36:00,
2013-04-06 21:37:00,36.9,29.0,-100.00,North,-999,-999.0,-999.0,72,-99.99,,,-99.99,1.0,HOBO +U30 +Weather +,2013-04-07 01:37:00,
2013-04-06 21:38:00,37.0,29.1,-100.00,North,-999,-999.0,-999.0,72,-99.99,,,-99.99,1.0,HOBO +U30 +Weather +,2013-04-07 01:38:00,
2013-04-06 21:39:00,37.1,29.2,-100.00,North,-999,-999.0,-999.0,72,-99.99,,,-99.99,1.0,HOBO +U30 +Weather +,2013-04-07 01:39:00,
2013-04-06 21:40:00,37.1,29.2,-100.00,North,-999,-999.0,-999.0,72,-99.99,,,-99.99,1.0,HOBO +U30 +Weather +,2013-04-07 01:40:00,
2013-04-06 21:41:00,37.0,29.1,-100.00,North,-999,-999.0,-999.0,72,-99.99,,,-99.99,1.0,HOBO +U30 +Weather +,2013-04-07 01:41:00,
2013-04-06 21:42:00,37.1,29.3,-100.00,North,-999,-999.0,-999.0,72,-99.99,,,-99.99,1.0,HOBO +U30 +Weather +,2013-04-07 01:42:00,
2013-04-06 21:43:00,37.1,29.2,-100.00,North,-999,-999.0,-999.0,72,-99.99,,,-99.99,1.0,HOBO +U30 +Weather +,2013-04-07 01:43:00,
2013-04-06 21:44:00,37.2,29.3,-100.00,North,-999,-999.0,-999.0,72,-99.99,,,-99.99,1.0,HOBO +U30 +Weather +,2013-04-07 01:44:00,
2013-04-06 21:45:00,37.1,29.2,-100.00,North,-999,-999.0,-999.0,72,-99.99,,,-99.99,1.0,HOBO +U30 +Weather +,2013-04-07 01:45:00,
2013-04-06 21:46:00,37.1,29.4,-100.00,North,-999,-999.0,-999.0,73,-99.99,,,-99.99,1.0,HOBO +U30 +Weather +,2013-04-07 01:46:00,
2013-04-06 21:47:00,37.2,29.4,-100.00,North,-999,-999.0,-999.0,73,-99.99,,,-99.99,1.0,HOBO +U30 +Weather +,2013-04-07 01:47:00,
2013-04-06 21:48:00,37.1,29.3,-100.00,North,-999,-999.0,-999.0,73,-99.99,,,-99.99,1.0,HOBO +U30 +Weather +,2013-04-07 01:48:00,
2013-04-06 21:49:00,37.1,29.3,-100.00,North,-999,-999.0,-999.0,73,-99.99,,,-99.99,1.0,HOBO +U30 +Weather +,2013-04-07 01:49:00,
2013-04-06 21:50:00,37.2,29.5,-100.00,North,-999,-999.0,-999.0,73,-99.99,,,-99.99,1.0,HOBO +U30 +Weather +,2013-04-07 01:50:00,
2013-04-06 21:51:00,37.1,29.4,-100.00,North,-999,-999.0,-999.0,73,-99.99,,,-99.99,1.0,HOBO +U30 +Weather +,2013-04-07 01:51:00,
2013-04-06 21:52:00,37.0,29.4,-100.00,North,-999,-999.0,-999.0,73,-99.99,,,-99.99,1.0,HOBO +U30 +Weather +,2013-04-07 01:52:00,
2013-04-06 21:53:00,36.8,28.8,-100.00,North,-999,-999.0,-999.0,72,-99.99,,,-99.99,1.0,HOBO +U30 +Weather +,2013-04-07 01:53:00,
2013-04-06 21:54:00,36.4,28.8,-100.00,North,-999,-999.0,-999.0,73,-99.99,,,-99.99,1.0,HOBO +U30 +Weather +,2013-04-07 01:54:00,
2013-04-06 21:55:00,36.2,28.6,-100.00,North,-999,-999.0,-999.0,73,-99.99,,,-99.99,1.0,HOBO +U30 +Weather +,2013-04-07 01:55:00,
2013-04-06 21:56:00,36.0,28.6,-100.00,North,-999,-999.0,-999.0,74,-99.99,,,-99.99,1.0,HOBO +U30 +Weather +,2013-04-07 01:56:00,
2013-04-06 21:57:00,36.0,28.8,-100.00,North,-999,-999.0,-999.0,74,-99.99,,,-99.99,1.0,HOBO +U30 +Weather +,2013-04-07 01:57:00,
2013-04-06 21:58:00,36.0,28.8,-100.00,North,-999,-999.0,-999.0,74,-99.99,,,-99.99,1.0,HOBO +U30 +Weather +,2013-04-07 01:58:00,
2013-04-06 21:59:00,36.2,29.2,-100.00,North,-999,-999.0,-999.0,75,-99.99,,,-99.99,1.0,HOBO +U30 +Weather +,2013-04-07 01:59:00,
2013-04-06 22:00:00,36.3,29.1,-100.00,North,-999,-999.0,-999.0,74,-99.99,,,-99.99,1.0,HOBO +U30 +Weather +,2013-04-07 02:00:00,
2013-04-06 22:01:00,36.3,29.1,-100.00,North,-999,-999.0,-999.0,74,-99.99,,,-99.99,1.0,HOBO +U30 +Weather +,2013-04-07 02:01:00,
2013-04-06 22:02:00,36.2,29.0,-100.00,North,-999,-999.0,-999.0,74,-99.99,,,-99.99,1.0,HOBO +U30 +Weather +,2013-04-07 02:02:00,
2013-04-06 22:03:00,36.0,28.8,-100.00,North,-999,-999.0,-999.0,74,-99.99,,,-99.99,1.0,HOBO +U30 +Weather +,2013-04-07 02:03:00,
2013-04-06 22:04:00,35.9,28.9,-100.00,North,-999,-999.0,-999.0,75,-99.99,,,-99.99,1.0,HOBO +U30 +Weather +,2013-04-07 02:04:00,
2013-04-06 22:05:00,35.8,28.7,-100.00,North,-999,-999.0,-999.0,75,-99.99,,,-99.99,1.0,HOBO +U30 +Weather +,2013-04-07 02:05:00,
2013-04-06 22:06:00,35.6,28.7,-100.00,North,-999,-999.0,-999.0,75,-99.99,,,-99.99,1.0,HOBO +U30 +Weather +,2013-04-07 02:06:00,
2013-04-06 22:07:00,35.5,28.3,-100.00,North,-999,-999.0,-999.0,74,-99.99,,,-99.99,1.0,HOBO +U30 +Weather +,2013-04-07 02:07:00,
2013-04-06 22:08:00,35.2,28.2,-100.00,North,-999,-999.0,-999.0,75,-99.99,,,-99.99,1.0,HOBO +U30 +Weather +,2013-04-07 02:08:00,
2013-04-06 22:09:00,34.9,28.0,-100.00,North,-999,-999.0,-999.0,75,-99.99,,,-99.99,1.0,HOBO +U30 +Weather +,2013-04-07 02:09:00,
2013-04-06 22:10:00,34.8,28.1,-100.00,North,-999,-999.0,-999.0,76,-99.99,,,-99.99,1.0,HOBO +U30 +Weather +,2013-04-07 02:10:00,
2013-04-06 22:11:00,34.7,28.0,-100.00,North,-999,-999.0,-999.0,76,-99.99,,,-99.99,1.0,HOBO +U30 +Weather +,2013-04-07 02:11:00,
2013-04-06 22:12:00,34.5,27.8,-100.00,North,-999,-999.0,-999.0,76,-99.99,,,-99.99,1.0,HOBO +U30 +Weather +,2013-04-07 02:12:00,
2013-04-06 22:13:00,34.4,27.9,-100.00,North,-999,-999.0,-999.0,76,-99.99,,,-99.99,1.0,HOBO +U30 +Weather +,2013-04-07 02:13:00,
2013-04-06 22:14:00,34.4,28.1,-100.00,North,-999,-999.0,-999.0,77,-99.99,,,-99.99,1.0,HOBO +U30 +Weather +,2013-04-07 02:14:00,
2013-04-06 22:15:00,34.4,27.9,-100.00,North,-999,-999.0,-999.0,76,-99.99,,,-99.99,1.0,HOBO +U30 +Weather +,2013-04-07 02:15:00,
2013-04-06 22:16:00,34.3,27.9,-100.00,North,-999,-999.0,-999.0,77,-99.99,,,-99.99,1.0,HOBO +U30 +Weather +,2013-04-07 02:16:00,
2013-04-06 22:17:00,34.5,28.4,-100.00,North,-999,-999.0,-999.0,78,-99.99,,,-99.99,1.0,HOBO +U30 +Weather +,2013-04-07 02:17:00,
2013-04-06 22:18:00,35.0,29.0,-100.00,North,-999,-999.0,-999.0,78,-99.99,,,-99.99,1.0,HOBO +U30 +Weather +,2013-04-07 02:18:00,
2013-04-06 22:19:00,35.2,28.8,-100.00,North,-999,-999.0,-999.0,77,-99.99,,,-99.99,1.0,HOBO +U30 +Weather +,2013-04-07 02:19:00,
2013-04-06 22:20:00,35.4,29.0,-100.00,North,-999,-999.0,-999.0,77,-99.99,,,-99.99,1.0,HOBO +U30 +Weather +,2013-04-07 02:20:00,
2013-04-06 22:21:00,35.6,29.0,-100.00,North,-999,-999.0,-999.0,76,-99.99,,,-99.99,1.0,HOBO +U30 +Weather +,2013-04-07 02:21:00,
2013-04-06 22:22:00,35.8,29.3,-100.00,North,-999,-999.0,-999.0,77,-99.99,,,-99.99,1.0,HOBO +U30 +Weather +,2013-04-07 02:22:00,
2013-04-06 22:23:00,36.1,29.5,-100.00,North,-999,-999.0,-999.0,76,-99.99,,,-99.99,1.0,HOBO +U30 +Weather +,2013-04-07 02:23:00,
2013-04-06 22:24:00,36.2,29.4,-100.00,North,-999,-999.0,-999.0,76,-99.99,,,-99.99,1.0,HOBO +U30 +Weather +,2013-04-07 02:24:00,
2013-04-06 22:25:00,36.0,29.0,-100.00,North,-999,-999.0,-999.0,75,-99.99,,,-99.99,1.0,HOBO +U30 +Weather +,2013-04-07 02:25:00,
2013-04-06 22:26:00,35.7,28.7,-100.00,North,-999,-999.0,-999.0,75,-99.99,,,-99.99,1.0,HOBO +U30 +Weather +,2013-04-07 02:26:00,
2013-04-06 22:27:00,35.4,28.5,-100.00,North,-999,-999.0,-999.0,75,-99.99,,,-99.99,1.0,HOBO +U30 +Weather +,2013-04-07 02:27:00,
2013-04-06 22:28:00,35.2,28.6,-100.00,North,-999,-999.0,-999.0,76,-99.99,,,-99.99,1.0,HOBO +U30 +Weather +,2013-04-07 02:28:00,
2013-04-06 22:29:00,35.0,28.4,-100.00,North,-999,-999.0,-999.0,76,-99.99,,,-99.99,1.0,HOBO +U30 +Weather +,2013-04-07 02:29:00,
2013-04-06 22:30:00,34.9,28.3,-100.00,North,-999,-999.0,-999.0,76,-99.99,,,-99.99,1.0,HOBO +U30 +Weather +,2013-04-07 02:30:00,
2013-04-06 22:31:00,34.7,28.1,-100.00,North,-999,-999.0,-999.0,76,-99.99,,,-99.99,1.0,HOBO +U30 +Weather +,2013-04-07 02:31:00,
2013-04-06 22:32:00,34.5,28.0,-100.00,North,-999,-999.0,-999.0,76,-99.99,,,-99.99,1.0,HOBO +U30 +Weather +,2013-04-07 02:32:00,
2013-04-06 22:33:00,34.3,27.9,-100.00,North,-999,-999.0,-999.0,77,-99.99,,,-99.99,1.0,HOBO +U30 +Weather +,2013-04-07 02:33:00,
2013-04-06 22:34:00,34.2,28.0,-100.00,North,-999,-999.0,-999.0,77,-99.99,,,-99.99,1.0,HOBO +U30 +Weather +,2013-04-07 02:34:00,
2013-04-06 22:35:00,34.1,27.8,-100.00,North,-999,-999.0,-999.0,77,-99.99,,,-99.99,1.0,HOBO +U30 +Weather +,2013-04-07 02:35:00,
2013-04-06 22:36:00,34.0,27.7,-100.00,North,-999,-999.0,-999.0,77,-99.99,,,-99.99,1.0,HOBO +U30 +Weather +,2013-04-07 02:36:00,
2013-04-06 22:37:00,33.8,27.4,-100.00,North,-999,-999.0,-999.0,77,-99.99,,,-99.99,1.0,HOBO +U30 +Weather +,2013-04-07 02:37:00,
2013-04-06 22:38:00,33.6,27.4,-100.00,North,-999,-999.0,-999.0,77,-99.99,,,-99.99,1.0,HOBO +U30 +Weather +,2013-04-07 02:38:00,
2013-04-06 22:39:00,33.3,27.1,-100.00,North,-999,-999.0,-999.0,77,-99.99,,,-99.99,1.0,HOBO +U30 +Weather +,2013-04-07 02:39:00,
2013-04-06 22:40:00,33.2,27.1,-100.00,North,-999,-999.0,-999.0,78,-99.99,,,-99.99,1.0,HOBO +U30 +Weather +,2013-04-07 02:40:00,
2013-04-06 22:41:00,33.0,27.1,-100.00,North,-999,-999.0,-999.0,78,-99.99,,,-99.99,1.0,HOBO +U30 +Weather +,2013-04-07 02:41:00,
2013-04-06 22:42:00,32.9,27.0,-100.00,North,-999,-999.0,-999.0,78,-99.99,,,-99.99,1.0,HOBO +U30 +Weather +,2013-04-07 02:42:00,
2013-04-06 22:43:00,32.7,26.9,-100.00,North,-999,-999.0,-999.0,78,-99.99,,,-99.99,1.0,HOBO +U30 +Weather +,2013-04-07 02:43:00,
2013-04-06 22:44:00,32.6,26.9,-100.00,North,-999,-999.0,-999.0,79,-99.99,,,-99.99,1.0,HOBO +U30 +Weather +,2013-04-07 02:44:00,
2013-04-06 22:45:00,32.5,26.9,-100.00,North,-999,-999.0,-999.0,79,-99.99,,,-99.99,1.0,HOBO +U30 +Weather +,2013-04-07 02:45:00,
2013-04-06 22:46:00,32.5,26.9,-100.00,North,-999,-999.0,-999.0,79,-99.99,,,-99.99,1.0,HOBO +U30 +Weather +,2013-04-07 02:46:00,
2013-04-06 22:47:00,32.5,26.9,-100.00,North,-999,-999.0,-999.0,79,-99.99,,,-99.99,1.0,HOBO +U30 +Weather +,2013-04-07 02:47:00,
2013-04-06 22:48:00,32.3,26.7,-100.00,North,-999,-999.0,-999.0,79,-99.99,,,-99.99,1.0,HOBO +U30 +Weather +,2013-04-07 02:48:00,
2013-04-06 22:49:00,32.2,26.6,-100.00,North,-999,-999.0,-999.0,79,-99.99,,,-99.99,1.0,HOBO +U30 +Weather +,2013-04-07 02:49:00,
2013-04-06 22:50:00,32.1,26.5,-100.00,North,-999,-999.0,-999.0,79,-99.99,,,-99.99,1.0,HOBO +U30 +Weather +,2013-04-07 02:50:00,
2013-04-06 22:51:00,32.1,26.6,-100.00,North,-999,-999.0,-999.0,79,-99.99,,,-99.99,1.0,HOBO +U30 +Weather +,2013-04-07 02:51:00,
2013-04-06 22:52:00,32.1,26.5,-100.00,North,-999,-999.0,-999.0,79,-99.99,,,-99.99,1.0,HOBO +U30 +Weather +,2013-04-07 02:52:00,
2013-04-06 22:53:00,32.0,26.5,-100.00,North,-999,-999.0,-999.0,79,-99.99,,,-99.99,1.0,HOBO +U30 +Weather +,2013-04-07 02:53:00,
2013-04-06 22:54:00,31.9,26.4,-100.00,North,-999,-999.0,-999.0,79,-99.99,,,-99.99,1.0,HOBO +U30 +Weather +,2013-04-07 02:54:00,
2013-04-06 22:55:00,31.8,26.3,-100.00,North,-999,-999.0,-999.0,79,-99.99,,,-99.99,1.0,HOBO +U30 +Weather +,2013-04-07 02:55:00,
2013-04-06 22:56:00,31.7,26.2,-100.00,North,-999,-999.0,-999.0,79,-99.99,,,-99.99,1.0,HOBO +U30 +Weather +,2013-04-07 02:56:00,
2013-04-06 22:57:00,31.6,26.2,-100.00,North,-999,-999.0,-999.0,80,-99.99,,,-99.99,1.0,HOBO +U30 +Weather +,2013-04-07 02:57:00,
2013-04-06 22:58:00,31.6,26.1,-100.00,North,-999,-999.0,-999.0,79,-99.99,,,-99.99,1.0,HOBO +U30 +Weather +,2013-04-07 02:58:00,
2013-04-06 22:59:00,31.5,26.2,-100.00,North,-999,-999.0,-999.0,80,-99.99,,,-99.99,1.0,HOBO +U30 +Weather +,2013-04-07 02:59:00,
2013-04-06 23:00:00,31.4,26.1,-100.00,North,-999,-999.0,-999.0,80,-99.99,,,-99.99,1.0,HOBO +U30 +Weather +,2013-04-07 03:00:00,
2013-04-06 23:01:00,31.4,26.1,-100.00,North,-999,-999.0,-999.0,80,-99.99,,,-99.99,1.0,HOBO +U30 +Weather +,2013-04-07 03:01:00,
2013-04-06 23:02:00,31.3,26.1,-100.00,North,-999,-999.0,-999.0,80,-99.99,,,-99.99,1.0,HOBO +U30 +Weather +,2013-04-07 03:02:00,
2013-04-06 23:03:00,31.2,26.0,-100.00,North,-999,-999.0,-999.0,80,-99.99,,,-99.99,1.0,HOBO +U30 +Weather +,2013-04-07 03:03:00,
2013-04-06 23:04:00,31.1,25.8,-100.00,North,-999,-999.0,-999.0,80,-99.99,,,-99.99,1.0,HOBO +U30 +Weather +,2013-04-07 03:04:00,
2013-04-06 23:05:00,30.9,25.7,-100.00,North,-999,-999.0,-999.0,80,-99.99,,,-99.99,1.0,HOBO +U30 +Weather +,2013-04-07 03:05:00,
2013-04-06 23:06:00,30.8,25.7,-100.00,North,-999,-999.0,-999.0,80,-99.99,,,-99.99,1.0,HOBO +U30 +Weather +,2013-04-07 03:06:00,
2013-04-06 23:07:00,30.8,25.7,-100.00,North,-999,-999.0,-999.0,81,-99.99,,,-99.99,1.0,HOBO +U30 +Weather +,2013-04-07 03:07:00,
2013-04-06 23:08:00,30.7,25.6,-100.00,North,-999,-999.0,-999.0,81,-99.99,,,-99.99,1.0,HOBO +U30 +Weather +,2013-04-07 03:08:00,
2013-04-06 23:09:00,30.6,25.4,-100.00,North,-999,-999.0,-999.0,81,-99.99,,,-99.99,1.0,HOBO +U30 +Weather +,2013-04-07 03:09:00,
2013-04-06 23:10:00,30.5,25.4,-100.00,North,-999,-999.0,-999.0,81,-99.99,,,-99.99,1.0,HOBO +U30 +Weather +,2013-04-07 03:10:00,
2013-04-06 23:11:00,30.5,25.4,-100.00,North,-999,-999.0,-999.0,81,-99.99,,,-99.99,1.0,HOBO +U30 +Weather +,2013-04-07 03:11:00,
2013-04-06 23:12:00,30.4,25.3,-100.00,North,-999,-999.0,-999.0,81,-99.99,,,-99.99,1.0,HOBO +U30 +Weather +,2013-04-07 03:12:00,
2013-04-06 23:13:00,30.3,25.2,-100.00,North,-999,-999.0,-999.0,81,-99.99,,,-99.99,1.0,HOBO +U30 +Weather +,2013-04-07 03:13:00,
2013-04-06 23:14:00,30.2,25.2,-100.00,North,-999,-999.0,-999.0,81,-99.99,,,-99.99,1.0,HOBO +U30 +Weather +,2013-04-07 03:14:00,
2013-04-06 23:15:00,30.2,25.1,-100.00,North,-999,-999.0,-999.0,81,-99.99,,,-99.99,1.0,HOBO +U30 +Weather +,2013-04-07 03:15:00,
2013-04-06 23:16:00,30.1,25.1,-100.00,North,-999,-999.0,-999.0,81,-99.99,,,-99.99,1.0,HOBO +U30 +Weather +,2013-04-07 03:16:00,
2013-04-06 23:17:00,30.0,25.0,-100.00,North,-999,-999.0,-999.0,81,-99.99,,,-99.99,1.0,HOBO +U30 +Weather +,2013-04-07 03:17:00,
2013-04-06 23:18:00,29.9,24.9,-100.00,North,-999,-999.0,-999.0,81,-99.99,,,-99.99,1.0,HOBO +U30 +Weather +,2013-04-07 03:18:00,
2013-04-06 23:19:00,29.8,24.8,-100.00,North,-999,-999.0,-999.0,81,-99.99,,,-99.99,1.0,HOBO +U30 +Weather +,2013-04-07 03:19:00,
2013-04-06 23:20:00,29.7,24.8,-100.00,North,-999,-999.0,-999.0,81,-99.99,,,-99.99,1.0,HOBO +U30 +Weather +,2013-04-07 03:20:00,
2013-04-06 23:21:00,29.7,24.9,-100.00,North,-999,-999.0,-999.0,81,-99.99,,,-99.99,1.0,HOBO +U30 +Weather +,2013-04-07 03:21:00,
2013-04-06 23:22:00,29.8,24.9,-100.00,North,-999,-999.0,-999.0,81,-99.99,,,-99.99,1.0,HOBO +U30 +Weather +,2013-04-07 03:22:00,
2013-04-06 23:23:00,29.8,24.9,-100.00,North,-999,-999.0,-999.0,81,-99.99,,,-99.99,1.0,HOBO +U30 +Weather +,2013-04-07 03:23:00,
2013-04-06 23:24:00,29.7,24.7,-100.00,North,-999,-999.0,-999.0,81,-99.99,,,-99.99,1.0,HOBO +U30 +Weather +,2013-04-07 03:24:00,
2013-04-06 23:25:00,29.6,24.6,-100.00,North,-999,-999.0,-999.0,81,-99.99,,,-99.99,1.0,HOBO +U30 +Weather +,2013-04-07 03:25:00,
2013-04-06 23:26:00,29.5,24.6,-100.00,North,-999,-999.0,-999.0,81,-99.99,,,-99.99,1.0,HOBO +U30 +Weather +,2013-04-07 03:26:00,
2013-04-06 23:27:00,29.5,24.7,-100.00,North,-999,-999.0,-999.0,82,-99.99,,,-99.99,1.0,HOBO +U30 +Weather +,2013-04-07 03:27:00,
2013-04-06 23:28:00,29.4,24.5,-100.00,North,-999,-999.0,-999.0,81,-99.99,,,-99.99,1.0,HOBO +U30 +Weather +,2013-04-07 03:28:00,
2013-04-06 23:29:00,29.3,24.5,-100.00,North,-999,-999.0,-999.0,82,-99.99,,,-99.99,1.0,HOBO +U30 +Weather +,2013-04-07 03:29:00,
2013-04-06 23:30:00,29.2,24.5,-100.00,North,-999,-999.0,-999.0,82,-99.99,,,-99.99,1.0,HOBO +U30 +Weather +,2013-04-07 03:30:00,
2013-04-06 23:31:00,29.2,24.5,-100.00,North,-999,-999.0,-999.0,82,-99.99,,,-99.99,1.0,HOBO +U30 +Weather +,2013-04-07 03:31:00,
2013-04-06 23:32:00,29.1,24.4,-100.00,North,-999,-999.0,-999.0,82,-99.99,,,-99.99,1.0,HOBO +U30 +Weather +,2013-04-07 03:32:00,
2013-04-06 23:34:00,29.0,24.6,-100.00,North,-999,-999.0,-999.0,83,-99.99,,,-99.99,1.0,HOBO +U30 +Weather +,2013-04-07 03:34:00,
2013-04-06 23:35:00,29.1,24.5,-100.00,North,-999,-999.0,-999.0,82,-99.99,,,-99.99,1.0,HOBO +U30 +Weather +,2013-04-07 03:35:00,
2013-04-06 23:36:00,29.0,24.4,-100.00,North,-999,-999.0,-999.0,82,-99.99,,,-99.99,1.0,HOBO +U30 +Weather +,2013-04-07 03:36:00,
2013-04-06 23:37:00,29.0,24.3,-100.00,North,-999,-999.0,-999.0,82,-99.99,,,-99.99,1.0,HOBO +U30 +Weather +,2013-04-07 03:37:00,
2013-04-06 23:38:00,28.9,24.3,-100.00,North,-999,-999.0,-999.0,82,-99.99,,,-99.99,1.0,HOBO +U30 +Weather +,2013-04-07 03:38:00,
2013-04-06 23:39:00,28.9,24.3,-100.00,North,-999,-999.0,-999.0,82,-99.99,,,-99.99,1.0,HOBO +U30 +Weather +,2013-04-07 03:39:00,
2013-04-06 23:40:00,28.9,24.2,-100.00,North,-999,-999.0,-999.0,82,-99.99,,,-99.99,1.0,HOBO +U30 +Weather +,2013-04-07 03:40:00,
2013-04-06 23:41:00,28.8,24.1,-100.00,North,-999,-999.0,-999.0,82,-99.99,,,-99.99,1.0,HOBO +U30 +Weather +,2013-04-07 03:41:00,
2013-04-06 23:42:00,28.6,24.0,-100.00,North,-999,-999.0,-999.0,82,-99.99,,,-99.99,1.0,HOBO +U30 +Weather +,2013-04-07 03:42:00,
2013-04-06 23:43:00,28.6,24.0,-100.00,North,-999,-999.0,-999.0,82,-99.99,,,-99.99,1.0,HOBO +U30 +Weather +,2013-04-07 03:43:00,
2013-04-06 23:44:00,28.5,24.0,-100.00,North,-999,-999.0,-999.0,83,-99.99,,,-99.99,1.0,HOBO +U30 +Weather +,2013-04-07 03:44:00,
2013-04-06 23:45:00,28.4,24.0,-100.00,North,-999,-999.0,-999.0,83,-99.99,,,-99.99,1.0,HOBO +U30 +Weather +,2013-04-07 03:45:00,
2013-04-06 23:46:00,28.4,24.1,-100.00,North,-999,-999.0,-999.0,83,-99.99,,,-99.99,1.0,HOBO +U30 +Weather +,2013-04-07 03:46:00,
2013-04-06 23:47:00,28.5,24.2,-100.00,North,-999,-999.0,-999.0,83,-99.99,,,-99.99,1.0,HOBO +U30 +Weather +,2013-04-07 03:47:00,
2013-04-06 23:48:00,28.5,24.2,-100.00,North,-999,-999.0,-999.0,83,-99.99,,,-99.99,1.0,HOBO +U30 +Weather +,2013-04-07 03:48:00,
2013-04-06 23:49:00,28.5,24.2,-100.00,North,-999,-999.0,-999.0,83,-99.99,,,-99.99,1.0,HOBO +U30 +Weather +,2013-04-07 03:49:00,
2013-04-06 23:50:00,28.5,24.2,-100.00,North,-999,-999.0,-999.0,83,-99.99,,,-99.99,1.0,HOBO +U30 +Weather +,2013-04-07 03:50:00,
2013-04-06 23:51:00,28.5,24.1,-100.00,North,-999,-999.0,-999.0,83,-99.99,,,-99.99,1.0,HOBO +U30 +Weather +,2013-04-07 03:51:00,
2013-04-06 23:52:00,28.4,24.0,-100.00,North,-999,-999.0,-999.0,83,-99.99,,,-99.99,1.0,HOBO +U30 +Weather +,2013-04-07 03:52:00,
2013-04-06 23:53:00,28.4,24.1,-100.00,North,-999,-999.0,-999.0,83,-99.99,,,-99.99,1.0,HOBO +U30 +Weather +,2013-04-07 03:53:00,
2013-04-06 23:54:00,28.4,24.0,-100.00,North,-999,-999.0,-999.0,83,-99.99,,,-99.99,1.0,HOBO +U30 +Weather +,2013-04-07 03:54:00,
2013-04-06 23:55:00,28.3,23.9,-100.00,North,-999,-999.0,-999.0,83,-99.99,,,-99.99,1.0,HOBO +U30 +Weather +,2013-04-07 03:55:00,
2013-04-06 23:56:00,28.2,23.9,-100.00,North,-999,-999.0,-999.0,83,-99.99,,,-99.99,1.0,HOBO +U30 +Weather +,2013-04-07 03:56:00,
2013-04-06 23:57:00,28.1,23.8,-100.00,North,-999,-999.0,-999.0,83,-99.99,,,-99.99,1.0,HOBO +U30 +Weather +,2013-04-07 03:57:00,
2013-04-06 23:58:00,28.0,23.7,-100.00,North,-999,-999.0,-999.0,83,-99.99,,,-99.99,1.0,HOBO +U30 +Weather +,2013-04-07 03:58:00,
2013-04-06 23:59:00,27.9,23.6,-100.00,North,-999,-999.0,-999.0,83,-99.99,,,-99.99,1.0,HOBO +U30 +Weather +,2013-04-07 03:59:00,